ECMWFNIL_925_temp_000.txt.gz
Temp
6 5 5 5 5 5 6 6 6 6 7 7 7 7 7 7 7 8 8 9 9 10 10 11 12 13 13 14 14 15 15 15 15 16 15 15 16 17 17 17 18 18
5 5 5 5 5 5 5 5 5 6 6 6 6 7 7 7 7 8 8 8 9 9 10 11 11 12 13 13 14 14 15 15 15 15 15 15 16 17 16 17 17 18
5 5 5 5 5 5 5 5 5 5 5 5 6 6 7 7 8 8 8 9 9 9 9 10 11 11 12 13 14 14 14 15 15 15 15 16 16 16 16 17 17 18
5 5 5 5 5 5 5 5 5 5 5 5 5 6 6 7 7 7 8 8 9 9 9 9 10 11 11 12 13 13 14 14 14 15 15 15 16 16 16 17 17 18
4 5 5 5 5 5 4 4 5 5 5 5 5 5 6 6 6 7 7 7 8 9 9 9 10 10 11 11 12 13 13 14 14 14 15 15 16 16 16 17 17 17
4 4 4 4 4 4 4 4 4 4 5 5 5 5 6 6 6 6 7 7 8 8 9 9 10 10 10 11 11 12 13 13 14 14 14 15 15 16 16 17 17 17
4 4 4 4 4 4 4 4 4 4 5 5 5 5 5 6 6 6 6 7 7 8 9 9 10 10 10 10 11 11 12 12 13 14 14 14 15 15 16 16 16 17
4 4 4 4 4 4 4 4 4 4 4 4 5 5 5 5 5 5 6 6 7 8 8 9 10 10 10 10 10 11 11 12 12 13 14 14 14 15 16 16 16 16
4 4 4 4 4 4 4 4 4 4 4 4 4 4 5 5 5 5 5 6 6 7 8 9 10 10 10 10 10 10 11 12 12 13 14 14 14 15 15 16 16 16
4 4 4 4 4 4 4 4 4 4 4 4 4 4 4 4 5 5 5 5 6 6 7 8 9 10 10 10 10 10 11 11 12 13 13 14 14 15 15 15 15 16
4 4 4 4 4 4 4 3 3 3 3 4 4 4 4 4 4 5 5 5 5 6 7 8 9 9 10 10 10 10 10 11 12 13 13 14 14 15 15 15 15 16
5 4 4 4 4 4 4 3 3 3 3 3 3 4 4 4 4 4 4 5 5 6 6 7 8 9 10 10 10 10 10 11 12 13 13 14 14 15 15 16 16 16
5 4 4 4 4 4 4 3 3 3 3 3 3 3 3 3 4 4 4 4 5 5 6 7 8 9 10 10 10 10 10 11 12 12 13 14 14 14 15 16 16 16
5 4 4 4 4 4 4 3 3 3 3 3 3 3 3 3 3 3 4 4 4 5 6 6 7 8 9 10 10 10 10 11 11 12 13 13 14 14 15 16 16 16
4 4 4 4 4 4 3 3 3 3 3 3 3 3 3 3 3 3 3 4 4 5 5 6 7 8 9 10 10 10 10 11 11 12 13 13 14 14 14 15 16 16
4 4 4 4 4 3 3 3 3 3 3 3 3 3 3 3 3 3 3 4 4 5 6 6 7 7 9 10 10 10 10 11 11 12 13 13 13 14 14 14 15 15
4 4 4 4 3 3 3 3 2 2 2 2 2 2 2 3 3 3 3 4 5 5 6 6 7 7 9 10 10 10 11 11 11 12 13 13 13 14 14 14 14 15
4 4 4 3 3 3 3 2 2 2 2 2 2 2 2 3 3 3 3 4 5 6 6 7 7 7 9 10 11 11 11 11 11 12 13 13 13 13 13 13 14 14
4 4 3 3 3 2 2 2 2 1 1 2 2 2 2 2 3 3 4 4 5 6 7 7 7 8 9 10 11 11 11 11 11 12 12 12 12 12 13 13 13 13
4 3 3 3 3 2 2 2 2 1 1 1 2 2 2 3 3 3 4 5 6 7 7 8 8 8 9 10 11 11 11 11 11 12 12 12 12 12 13 13 13 14
3 3 3 3 2 2 2 2 1 1 1 1 1 2 2 3 3 4 5 5 6 7 8 8 8 9 9 10 11 11 11 11 11 11 11 12 12 13 13 13 14 15
3 3 3 3 2 2 2 1 1 1 1 1 1 2 2 3 3 4 5 6 7 8 8 9 9 9 10 11 11 12 11 11 11 11 11 11 11 12 13 14 15 15
3 3 2 2 2 2 1 1 1 0 0 1 1 1 2 2 3 4 5 7 8 9 9 9 10 10 11 11 11 11 12 11 11 11 10 10 10 10 11 13 15 15
3 2 2 2 1 1 1 0 0 0 0 0 1 1 2 3 3 4 5 7 8 9 9 10 10 11 12 12 11 11 11 11 10 10 9 9 9 8 10 12 12 12
3 2 1 1 1 1 0 -0 -0 -0 -0 0 1 1 2 3 3 4 5 7 8 9 10 10 10 11 12 12 11 11 11 10 10 9 8 8 8 8 8 10 10 10
3 2 1 1 1 0 -0 -0 -0 -0 -0 0 1 2 2 3 4 5 6 7 8 8 9 10 10 10 11 11 11 10 10 10 9 9 7 7 7 7 8 8 8 8

ECMWFNIL_925_temp_003.txt.gz
Temp
6 6 6 6 6 7 6 6 6 6 6 6 6 7 7 7 7 8 8 8 8 9 10 10 10 11 11 11 12 12 13 14 14 15 15 15 15 15 15 16 16 16
6 6 6 6 6 6 6 6 6 6 6 6 6 6 6 6 6 7 7 8 8 9 9 10 10 10 11 11 11 12 12 13 14 14 15 15 15 15 15 15 16 16
6 6 6 6 6 6 5 6 6 6 6 6 6 6 6 6 6 6 7 8 8 9 9 10 10 10 10 11 11 11 12 12 13 14 14 15 15 15 15 15 16 16
6 6 6 6 6 5 5 5 6 6 6 6 6 5 5 6 6 6 6 7 7 8 9 9 10 10 11 11 11 11 11 12 13 13 14 14 15 15 15 15 15 15
6 6 6 6 6 5 5 5 5 5 5 5 5 5 5 5 6 6 6 6 7 8 8 9 9 10 10 11 11 11 11 12 12 13 13 14 14 15 15 15 15 15
6 6 6 6 5 5 5 5 5 5 5 5 5 5 5 5 5 6 6 6 6 7 8 8 9 9 10 11 11 11 11 12 12 13 13 14 14 14 15 15 15 15
6 6 6 6 5 5 5 5 5 5 5 5 5 5 5 5 5 6 6 6 6 6 7 8 8 9 10 10 11 11 11 11 12 12 13 14 14 14 14 15 15 15
6 6 6 6 5 5 5 5 5 5 5 5 5 5 5 5 5 5 6 6 6 6 7 7 8 8 9 10 10 11 11 11 12 12 13 13 14 14 14 14 15 15
6 6 6 6 6 6 6 6 5 5 5 5 5 5 5 5 5 5 5 5 6 6 6 7 7 8 8 9 10 11 11 11 11 12 12 13 13 14 14 14 15 15
6 6 6 6 6 6 6 6 6 6 5 5 5 5 5 5 5 5 5 5 5 6 6 6 7 7 8 9 10 10 11 11 11 11 12 12 13 14 14 14 14 15
6 6 6 6 6 6 6 6 6 6 5 5 5 5 5 5 5 5 5 5 5 5 6 6 6 7 7 8 9 10 11 11 11 11 12 12 13 13 14 14 14 15
6 6 6 6 6 6 6 6 5 5 5 5 5 5 5 5 5 5 5 5 5 5 5 6 6 6 7 7 9 10 10 11 11 11 11 12 12 13 14 14 14 15
6 6 6 6 6 6 5 5 5 5 5 5 5 5 5 5 5 4 4 4 4 5 5 5 6 6 6 7 8 9 10 11 11 11 11 12 12 13 13 14 15 15
6 6 6 6 6 6 5 5 5 5 5 5 4 4 4 5 4 4 4 4 4 4 4 5 5 5 6 6 7 8 9 10 11 11 11 11 12 13 13 14 14 15
6 6 6 6 6 5 5 5 5 5 5 4 4 4 4 4 4 4 4 4 4 4 4 4 5 5 5 6 6 7 9 10 11 11 11 11 12 13 13 14 14 15
6 6 6 6 5 5 5 5 5 4 4 4 4 4 4 4 4 4 4 4 4 4 4 4 4 5 5 5 6 7 8 9 11 11 11 11 12 12 13 13 14 14
6 6 6 5 5 5 5 5 4 4 4 4 4 3 3 3 3 3 3 3 4 4 4 4 4 4 5 5 5 6 7 8 10 11 11 11 12 12 13 13 14 14
6 6 5 5 5 5 5 4 4 4 4 4 3 3 3 3 3 3 3 3 3 4 4 4 4 4 4 5 5 6 6 7 9 10 11 11 12 12 13 13 14 14
6 5 5 5 5 5 4 4 4 4 3 3 3 3 3 3 3 3 3 3 3 4 4 4 4 4 4 4 5 5 6 6 7 9 11 12 12 12 13 13 14 14
5 5 5 5 4 4 4 3 3 3 3 3 3 3 3 2 2 2 3 3 3 3 4 4 4 4 4 5 5 5 6 6 7 8 10 11 12 12 13 13 14 14
5 4 5 5 4 4 3 3 3 3 3 2 2 2 2 1 2 2 2 3 3 3 4 4 4 5 5 5 5 6 6 6 7 7 9 11 12 12 12 13 13 14
4 4 4 4 4 3 3 3 2 2 2 2 1 1 1 1 1 1 2 2 3 3 3 4 4 5 5 5 6 6 6 7 7 8 9 11 12 12 12 12 13 13
5 4 4 4 4 3 2 2 1 1 1 1 1 1 1 1 1 1 2 2 3 3 3 4 4 5 6 6 6 6 7 7 7 8 9 11 11 11 12 12 12 13
5 4 4 4 3 2 2 1 1 0 0 0 0 0 0 1 1 1 1 2 2 3 3 4 5 5 6 7 7 7 7 7 7 8 9 10 11 11 11 12 12 12
5 4 4 3 3 2 1 1 0 0 -0 -0 -0 0 0 0 1 1 2 2 2 3 3 4 4 5 7 7 8 8 8 8 8 9 10 10 10 11 11 11 11 12
5 4 3 3 2 1 1 1 0 -0 -0 -0 -0 -0 0 0 1 1 2 3 3 3 4 4 5 6 7 8 8 8 8 8 8 9 10 10 10 10 10 10 10 11

ECMWFNIL_925_temp_006.txt.gz
Temp
10 10 10 10 10 10 10 10 10 10 10 10 10 10 10 10 10 9 9 10 10 10 11 11 11 12 13 13 13 14 14 15 15 15 15 15 15 15 15 15 16 16
10 10 10 10 10 10 10 9 9 9 9 9 10 10 10 9 9 9 9 9 9 9 10 10 10 11 12 13 13 14 14 15 15 15 15 15 15 15 15 16 16 16
10 9 9 9 10 9 9 9 9 9 9 9 9 9 9 9 9 9 9 9 9 9 9 10 10 11 12 13 13 14 14 14 15 15 15 15 15 15 15 16 16 15
9 9 9 9 9 9 9 9 9 9 9 9 9 9 9 9 9 9 9 9 9 9 9 9 9 10 11 12 13 13 14 14 15 15 15 15 16 15 15 15 15 15
10 9 9 9 9 9 9 9 8 8 9 9 9 9 9 9 9 9 9 9 9 9 9 8 9 10 10 11 12 13 14 14 14 15 15 15 16 16 16 15 15 15
10 9 9 9 9 8 8 8 8 8 8 8 9 9 9 9 9 9 9 9 9 9 9 9 9 9 10 11 11 12 13 14 14 14 15 15 16 16 16 16 16 16
10 9 9 9 9 8 8 8 8 8 8 9 9 9 9 9 9 9 9 9 9 9 9 9 9 9 9 10 11 11 12 13 14 14 14 15 16 16 16 16 16 16
10 9 9 9 9 9 8 8 8 9 9 9 8 8 8 8 8 9 9 9 9 9 9 9 9 9 9 10 10 11 12 13 13 14 14 15 15 16 16 16 16 16
10 9 9 9 9 9 9 9 9 9 9 9 8 8 8 8 8 8 8 9 9 9 9 9 9 9 9 10 10 10 11 12 13 13 14 14 15 15 16 16 17 16
10 10 9 9 9 9 9 9 9 9 9 9 8 8 8 8 8 8 8 8 8 8 9 9 9 9 9 9 10 10 10 11 12 13 13 14 14 15 15 16 16 17
10 9 9 9 9 9 9 9 8 8 9 8 8 8 8 7 7 8 8 8 8 8 8 9 9 9 9 9 10 10 10 10 11 12 13 13 14 14 15 16 16 16
10 10 9 9 9 9 9 9 8 8 8 8 8 7 7 7 7 7 7 7 8 8 8 8 9 9 9 9 10 10 10 10 11 12 13 13 14 14 14 15 15 16
10 9 9 9 9 9 9 8 8 8 8 8 7 7 7 7 7 7 7 7 7 7 8 8 8 8 9 9 9 9 9 10 10 11 12 13 13 14 14 14 15 15
10 9 9 9 9 9 8 8 8 8 8 8 8 7 7 7 7 7 7 7 7 7 7 8 8 8 8 8 9 9 9 9 10 10 11 12 13 13 14 14 15 15
9 9 9 9 9 9 9 8 8 8 8 8 8 7 7 7 7 7 7 7 7 7 7 7 7 8 8 8 8 8 9 9 9 9 10 12 13 13 14 14 14 15
9 9 9 9 9 9 8 8 8 8 8 8 8 8 7 7 7 6 6 6 6 7 7 7 7 7 7 7 7 7 8 9 9 9 9 11 12 13 14 14 14 14
9 9 9 9 8 8 8 8 8 8 8 8 7 7 7 7 6 6 6 6 6 6 6 6 7 7 7 7 6 6 6 7 8 9 9 10 11 12 13 14 14 14
9 9 9 8 8 8 8 8 7 7 7 7 7 7 6 6 6 6 6 6 6 6 6 6 6 6 6 6 6 6 5 5 6 7 8 9 10 11 12 13 14 14
9 9 9 8 8 8 8 7 7 7 7 6 6 6 6 6 6 6 6 6 6 6 6 6 6 6 5 5 5 5 5 5 5 6 7 8 9 10 11 13 14 14
9 9 9 8 8 8 8 7 7 6 6 5 5 5 5 5 5 5 5 5 5 5 5 5 5 5 5 5 5 5 5 5 5 5 6 7 8 9 10 11 13 14
9 9 8 8 7 7 7 7 6 6 5 5 4 4 4 4 4 4 4 4 4 4 4 4 4 4 4 4 4 4 4 4 4 5 5 6 7 8 8 9 11 13
9 9 8 8 8 7 7 7 6 5 4 4 4 4 3 4 3 3 3 3 3 4 4 4 4 4 4 4 4 4 4 4 4 4 5 5 6 7 8 8 10 12
9 8 8 8 8 7 7 6 5 5 4 4 3 3 3 3 3 3 3 3 3 3 3 4 4 4 4 4 4 4 4 4 4 4 5 5 6 7 8 9 9 11
8 8 8 8 8 7 6 5 5 4 4 4 3 3 3 3 3 3 3 3 3 3 3 3 3 3 4 4 4 4 4 4 4 5 5 6 6 7 8 9 10 11
8 8 8 8 8 7 6 5 4 4 4 4 3 3 3 2 2 2 2 2 2 2 2 2 3 3 3 3 4 4 4 4 4 5 5 6 7 7 8 9 10 11
8 8 8 8 7 6 6 5 4 4 4 3 3 3 2 2 2 2 2 2 2 2 2 2 3 3 4 4 4 4 4 4 4 5 6 7 7 8 9 9 10 12

ECMWFNIL_925_temp_009.txt.gz
Temp
14 14 14 14 14 14 14 14 14 14 14 14 14 14 14 13 13 13 12 12 12 12 12 12 13 13 13 13 14 14 15 15 16 16 16 16 16 16 16 16 16 16
14 14 14 14 14 14 14 13 13 13 13 13 13 13 13 13 12 12 12 12 12 12 12 12 12 12 13 13 13 13 14 15 15 16 16 16 16 16 16 16 16 16
13 13 13 13 14 14 13 13 12 12 12 13 12 12 12 12 12 12 11 11 11 11 11 11 11 11 12 12 13 13 14 15 15 15 16 16 16 16 16 16 15 15
13 13 13 13 13 13 12 12 12 12 12 12 12 12 12 12 11 11 11 11 11 11 11 11 11 11 11 12 12 13 14 14 15 15 16 16 16 16 17 16 16 16
13 13 13 13 12 12 12 12 12 12 12 12 12 11 11 11 11 11 11 11 11 11 11 11 11 11 11 11 12 12 13 13 14 15 16 16 16 16 17 17 17 16
13 13 13 13 12 12 12 12 12 12 12 11 11 11 11 11 11 11 11 11 11 12 12 12 12 12 12 11 11 12 13 13 14 14 15 16 16 16 17 17 17 17
13 13 13 12 12 12 12 12 12 11 11 11 11 11 11 11 11 11 11 11 11 11 12 12 12 12 12 12 12 12 12 13 13 14 15 16 16 17 17 17 17 17
13 13 12 12 12 12 12 11 11 11 11 11 11 11 11 11 11 11 11 11 11 11 11 12 12 12 12 12 12 12 12 12 12 13 14 15 16 16 17 17 17 17
13 13 12 12 12 12 12 11 11 11 11 11 11 11 11 11 11 11 11 11 11 11 11 11 11 12 12 12 12 12 12 12 12 12 13 14 15 15 16 17 17 18
13 13 12 12 12 12 12 12 11 11 11 11 11 11 11 11 11 11 11 11 11 11 11 11 11 11 12 12 12 12 12 12 12 12 12 13 14 15 15 16 16 17
13 13 12 12 12 12 12 11 11 11 11 11 11 11 11 11 11 11 10 10 10 10 10 11 11 11 11 12 12 12 12 12 12 12 12 12 13 14 15 15 16 16
13 13 12 12 12 12 11 11 11 11 11 11 11 11 11 11 11 10 10 10 10 10 10 10 10 11 11 11 12 12 12 12 12 12 12 12 13 13 14 15 15 16
13 13 12 12 12 12 11 11 11 11 11 11 11 11 11 11 10 10 10 9 9 10 10 10 10 10 10 11 11 11 12 12 12 13 13 12 12 12 13 14 15 15
13 13 12 12 12 11 11 11 11 11 11 11 11 10 10 10 10 10 10 9 9 9 9 9 10 10 10 10 11 11 11 12 12 12 12 12 12 12 12 13 14 15
13 12 12 12 11 11 11 11 11 11 10 10 10 10 10 10 10 10 10 10 10 9 9 9 9 9 10 10 10 11 11 11 11 12 12 12 12 12 12 12 13 14
13 12 12 12 11 11 11 11 11 10 10 10 10 10 10 10 10 10 10 10 9 9 9 9 9 9 9 9 9 10 10 10 11 11 11 11 12 12 12 12 12 13
13 12 12 12 12 11 11 11 11 10 10 10 10 10 9 9 9 9 9 9 9 9 9 9 9 9 8 8 8 8 8 8 9 9 10 10 10 11 11 12 12 12
13 12 12 12 12 11 11 11 10 10 10 10 10 9 9 8 8 8 8 8 8 8 8 8 8 8 8 8 8 8 7 7 7 8 8 9 9 9 10 11 11 12
13 13 12 12 12 11 11 10 10 10 10 10 9 8 8 7 7 7 7 7 7 7 8 8 8 8 8 8 7 7 7 7 7 7 7 7 8 8 9 9 10 11
13 12 12 12 11 11 10 10 10 10 10 9 9 7 7 6 6 6 6 6 6 7 7 7 7 7 7 7 7 7 6 6 6 6 6 7 7 7 8 8 9 10
13 12 12 12 11 11 10 10 10 10 9 9 8 7 6 6 6 6 6 6 6 6 6 6 6 6 6 6 6 6 6 5 5 5 6 6 6 6 7 7 7 8
12 12 12 11 11 10 10 10 10 10 9 8 7 6 6 6 6 6 5 5 5 5 5 5 5 5 5 5 5 5 5 5 4 5 5 5 6 6 6 6 7 7
12 12 12 11 11 11 10 10 10 9 8 7 6 6 6 6 6 5 5 5 5 5 5 5 5 5 5 5 5 5 4 4 4 5 5 5 5 5 6 6 6 6
12 12 11 11 11 10 10 10 10 9 8 7 6 6 6 5 5 5 5 5 5 5 5 5 5 4 4 4 4 4 4 4 4 4 4 5 5 5 5 6 6 6
12 11 11 11 10 10 10 10 9 8 7 6 6 5 5 5 5 5 5 5 5 4 4 4 4 4 4 4 4 4 3 3 3 4 4 4 5 5 5 5 6 6
11 11 11 10 10 10 10 9 9 8 7 6 5 5 5 5 4 4 4 4 4 4 4 4 4 4 3 4 4 3 3 3 3 3 3 4 4 5 5 5 6 6

ECMWFNIL_925_temp_012.txt.gz
Temp
15 15 15 15 15 15 15 15 15 15 15 15 15 14 14 14 14 14 14 13 13 13 13 13 13 13 13 13 13 13 13 14 14 14 15 15 16 16 16 16 16 16
15 15 15 15 15 15 15 15 15 14 14 14 14 14 14 14 14 13 13 13 13 13 12 12 12 12 12 12 12 13 13 13 13 14 14 15 15 16 16 16 16 16
15 15 15 15 15 15 15 14 14 14 14 14 14 13 13 13 13 13 13 12 12 12 12 12 12 12 12 12 12 12 12 13 13 13 14 14 15 15 16 16 16 16
15 15 15 15 15 15 14 14 14 13 13 13 13 13 13 13 13 12 12 12 12 12 12 12 12 12 12 12 12 12 12 12 13 13 14 14 15 15 15 16 16 16
14 14 14 14 14 14 14 14 13 13 13 13 13 13 13 12 12 12 12 12 12 12 12 12 12 12 12 12 12 12 12 12 12 13 13 14 14 15 15 16 16 16
14 14 14 14 14 14 13 13 13 13 13 13 13 12 12 12 12 12 12 12 12 12 12 12 12 12 12 12 12 12 12 12 12 12 13 13 14 14 15 16 16 16
14 14 14 14 14 13 13 13 13 13 13 13 12 12 12 12 12 12 12 12 12 12 12 12 12 12 12 12 12 12 12 12 12 12 12 13 14 14 14 15 16 16
14 14 14 14 13 13 13 13 13 13 12 12 12 12 12 12 12 12 12 12 12 11 12 11 11 11 12 12 12 12 12 12 12 12 12 12 13 13 14 14 15 16
14 14 14 13 13 13 13 13 12 12 12 12 12 12 12 12 12 12 12 12 12 11 11 11 11 11 11 11 12 12 12 12 12 12 12 12 12 12 13 13 14 15
14 14 14 13 13 13 13 12 12 12 12 12 12 12 12 12 12 12 12 12 11 11 11 11 11 11 11 11 11 11 12 12 12 12 12 12 13 12 12 13 13 14
14 14 14 13 13 13 13 12 12 12 12 12 12 12 12 12 12 11 11 11 11 11 11 11 11 11 11 11 11 11 11 12 12 12 12 12 12 13 13 13 13 13
14 14 13 13 13 13 12 12 12 12 12 12 12 12 12 12 11 11 11 11 11 11 11 11 11 10 10 10 11 11 11 11 12 12 12 12 12 12 12 13 13 13
14 14 13 13 13 13 12 12 12 12 12 12 12 12 12 11 11 11 11 11 11 11 11 11 10 10 10 10 10 10 11 11 11 11 12 12 12 12 12 13 13 13
14 13 13 13 13 13 12 12 12 12 12 12 12 11 11 11 11 11 11 11 11 11 11 10 10 10 10 10 10 10 10 10 11 11 11 11 12 12 12 12 13 13
14 14 13 13 13 13 12 12 12 12 12 12 11 11 11 11 11 11 11 11 10 10 10 10 10 10 10 10 10 10 10 10 10 10 10 11 11 11 12 12 12 12
14 14 13 13 13 12 12 12 12 12 12 11 11 11 11 11 10 10 10 10 10 9 9 10 10 10 10 10 10 9 9 9 9 9 9 9 9 10 10 11 11 12
14 14 13 13 13 12 12 12 12 12 11 11 11 11 11 10 10 10 9 9 8 8 8 8 9 9 9 9 9 9 9 9 8 8 8 8 8 9 9 9 10 10
14 14 13 13 13 13 12 12 12 12 11 11 11 11 10 10 10 9 8 8 7 7 7 7 8 8 8 8 8 8 8 8 8 8 8 8 8 8 8 8 9 9
14 14 13 13 13 13 13 12 12 11 11 11 11 10 10 10 9 8 7 7 7 7 6 6 7 7 7 7 7 7 7 7 7 7 7 7 7 7 8 8 8 8
14 14 14 13 13 13 12 12 12 11 11 11 10 10 10 9 8 7 7 7 6 6 6 6 6 6 6 6 6 6 6 6 6 6 6 6 6 7 7 7 7 8
14 14 13 13 13 13 12 12 11 11 11 10 10 10 9 8 7 7 7 6 6 6 6 6 6 6 6 6 6 6 6 6 6 5 5 5 5 6 6 6 7 7
14 14 13 13 13 12 12 12 11 11 11 10 10 10 8 7 7 7 6 6 6 6 6 6 6 6 6 6 5 5 5 5 5 5 5 5 5 5 5 6 6 6
13 13 13 13 13 12 12 11 11 11 11 10 10 9 8 7 7 6 6 6 6 6 6 6 6 5 5 5 5 5 5 4 4 4 4 4 5 5 5 5 5 5
13 13 13 13 12 12 12 11 11 10 10 10 9 8 7 6 6 6 6 6 5 5 5 5 5 5 5 5 5 5 4 4 4 4 4 4 4 4 4 5 5 5
13 13 12 12 12 11 11 11 10 10 10 9 9 7 7 6 6 6 6 5 5 5 5 4 4 5 4 4 4 4 4 4 4 4 4 4 4 4 4 4 4 4
13 12 12 11 11 11 10 10 10 10 9 9 8 7 6 6 6 5 5 5 4 4 4 4 4 4 4 4 4 4 4 3 3 3 3 3 3 4 4 4 4 4

ECMWFNIL_925_temp_015.txt.gz
Temp
16 16 16 16 16 16 15 15 15 15 15 15 15 15 15 15 15 14 14 14 14 14 13 13 13 13 13 12 12 12 12 12 12 12 13 13 13 14 14 14 15 15
16 16 16 16 16 15 15 15 15 15 15 15 15 14 14 14 14 14 14 14 13 13 13 13 12 12 12 12 12 12 12 12 12 12 12 12 13 13 13 14 14 15
16 16 16 15 15 15 15 15 15 15 15 15 14 14 14 14 14 14 13 13 13 13 12 12 12 12 12 12 11 11 11 11 11 11 11 12 12 12 13 13 14 14
16 16 15 15 15 15 15 15 15 15 15 14 14 14 14 13 13 13 13 13 12 12 12 12 12 12 12 11 11 11 11 11 11 11 11 11 12 12 12 13 13 14
15 15 15 15 15 15 15 15 15 14 14 14 14 14 13 13 13 13 13 12 12 12 12 12 12 12 12 11 11 11 12 12 12 12 12 12 12 12 12 12 13 13
15 15 15 15 15 15 15 14 14 14 14 14 13 13 13 13 13 12 12 12 12 12 12 12 12 12 11 11 11 11 11 12 12 12 12 12 12 12 12 12 12 13
15 15 15 15 15 14 14 14 14 14 13 13 13 13 13 12 12 12 12 12 12 11 12 11 11 11 11 11 11 11 11 11 11 11 12 12 12 12 12 12 12 12
15 15 14 14 14 14 14 14 14 13 13 13 13 13 12 12 12 12 12 11 11 11 11 11 11 11 11 11 11 11 11 11 11 11 11 11 12 12 12 12 12 12
15 14 14 14 14 14 14 13 13 13 13 13 13 12 12 12 12 12 11 11 11 11 11 11 11 11 11 11 11 11 11 11 11 11 11 11 11 11 12 12 12 12
15 14 14 14 14 13 13 13 13 13 13 12 12 12 12 12 12 12 11 11 11 11 11 11 11 11 11 11 11 10 10 10 10 10 11 11 11 11 11 12 12 12
14 14 14 14 13 13 13 13 13 13 12 12 12 12 12 12 12 11 11 11 11 11 11 11 11 11 11 11 11 10 10 10 10 10 10 10 10 11 11 11 11 12
14 14 14 13 13 13 13 13 13 12 12 12 12 12 12 12 12 11 11 11 11 11 11 11 11 11 11 10 10 10 10 10 10 10 10 10 10 10 10 11 11 11
14 14 14 13 13 13 13 13 12 12 12 12 12 12 12 12 11 11 11 11 11 11 10 10 10 10 10 10 10 10 10 10 10 10 10 10 10 10 10 10 10 10
14 14 14 13 13 13 13 13 12 12 12 12 12 12 12 11 11 11 11 11 10 10 10 9 9 9 9 9 9 9 9 9 9 9 9 9 9 9 9 9 9 9
14 14 14 13 13 13 13 12 12 12 12 12 12 12 11 11 11 11 11 10 10 10 9 9 9 9 8 8 8 8 8 8 8 8 8 8 8 8 8 9 9 9
14 14 13 13 13 13 13 12 12 12 12 12 12 11 11 11 11 10 10 10 9 9 9 9 8 8 8 8 7 7 7 7 7 7 7 7 7 7 7 8 8 8
14 14 13 13 13 13 12 12 12 12 12 12 11 11 11 11 10 10 10 9 9 9 8 8 8 8 7 7 7 7 6 6 6 6 6 6 6 6 6 7 7 7
14 14 13 13 13 13 13 12 12 12 12 12 11 11 11 10 10 10 9 9 9 8 8 8 7 7 7 7 6 6 6 6 6 6 6 5 5 5 5 6 6 6
14 14 13 13 13 13 13 12 12 12 12 11 11 11 11 10 10 9 9 8 8 7 7 7 7 7 7 6 6 6 6 6 6 6 6 5 5 5 5 5 5 5
14 14 13 13 13 13 13 12 12 12 12 11 11 11 10 10 9 9 8 8 7 7 7 6 6 6 6 6 6 6 6 6 5 5 5 5 5 5 5 5 5 5
14 14 13 13 13 13 13 12 12 12 11 11 11 10 10 9 9 8 8 7 7 7 6 6 6 6 6 5 5 5 5 5 5 5 5 5 4 4 4 4 4 4
14 13 13 13 13 13 12 12 12 11 11 11 10 10 9 8 8 7 7 7 6 6 6 6 5 5 5 5 5 5 4 4 4 4 4 4 4 4 4 4 4 4
13 13 13 13 13 12 12 11 11 10 10 10 9 9 8 8 7 7 6 6 6 6 5 5 5 5 4 4 4 4 4 4 4 4 4 4 4 4 4 4 4 4
13 13 13 12 12 11 11 10 10 10 10 9 9 8 7 7 6 6 6 5 5 5 5 4 4 4 4 4 4 4 4 4 4 3 3 3 3 3 3 3 3 3
13 13 12 12 11 11 10 10 10 10 9 9 8 7 7 6 6 6 5 5 5 4 4 4 4 4 3 3 3 3 3 3 3 2 2 2 2 2 2 2 2 3
12 12 12 11 11 11 10 10 10 9 9 8 8 7 7 6 6 6 5 5 5 4 4 4 3 3 3 3 3 3 2 2 2 2 1 1 1 1 1 2 2 2

ECMWFNIL_925_temp_018.txt.gz
Temp
17 17 17 17 16 17 17 16 16 16 16 16 15 15 15 15 14 14 14 14 14 14 14 13 13 13 13 13 12 12 12 11 11 11 11 11 11 11 11 12 12 12
16 17 17 16 16 16 16 16 16 16 15 15 15 15 15 15 15 15 15 14 14 14 13 13 13 13 12 12 12 11 11 11 11 11 11 11 11 11 11 11 11 12
16 16 16 16 16 16 16 16 15 15 15 15 15 15 15 15 14 14 14 14 14 13 13 13 12 12 12 12 11 11 11 11 11 11 11 11 11 11 11 11 11 11
16 16 16 16 16 16 16 16 15 15 15 15 15 14 14 14 14 14 14 14 13 13 13 12 12 12 12 11 11 11 11 11 11 11 11 11 11 11 11 11 11 11
16 16 16 16 16 16 16 15 15 15 15 14 14 14 14 14 14 14 13 13 13 12 12 12 12 11 11 11 11 11 11 11 11 11 11 11 11 11 11 11 11 11
16 16 16 16 16 16 15 15 15 15 15 14 14 14 14 14 13 13 13 13 12 12 12 12 11 11 11 11 11 11 11 11 11 11 11 11 11 11 11 11 11 11
16 16 16 16 16 15 15 15 15 15 14 14 14 14 14 13 13 13 12 12 12 12 11 11 11 11 11 11 11 11 11 11 11 11 11 10 10 10 11 11 11 11
16 16 16 16 15 15 15 15 15 14 14 14 14 13 13 13 13 12 12 12 12 11 11 11 11 11 11 11 11 11 11 11 10 10 10 10 10 10 10 10 10 10
16 16 16 15 15 15 15 14 14 14 14 14 13 13 13 13 12 12 12 12 11 11 11 11 11 11 11 11 11 11 11 10 10 10 10 10 10 10 10 10 10 10
16 16 16 15 15 15 14 14 14 14 13 13 13 13 13 12 12 12 12 11 11 11 11 11 11 11 10 10 10 10 10 10 10 10 10 10 10 10 10 10 10 10
16 16 15 15 15 14 14 14 14 14 13 13 13 13 12 12 12 12 11 11 11 11 11 11 10 10 10 10 10 9 9 9 9 9 9 9 9 9 9 9 10 10
15 15 15 15 14 14 14 14 14 13 13 13 13 12 12 12 12 11 11 11 11 11 11 10 10 10 10 10 9 9 9 9 9 8 8 8 8 8 8 9 9 9
15 15 15 15 14 14 14 13 13 13 13 13 12 12 12 12 12 11 11 11 11 11 10 10 10 10 10 9 9 9 9 9 9 8 8 8 7 7 7 8 8 8
15 15 15 14 14 14 13 13 13 13 13 12 12 12 12 12 11 11 11 11 11 10 10 10 10 9 9 9 9 9 9 8 8 8 7 7 7 7 7 7 7 7
15 14 14 14 14 13 13 13 13 13 12 12 12 12 12 12 11 11 11 11 11 10 10 10 9 9 9 9 9 8 8 8 7 7 7 6 6 6 6 6 6 6
14 14 14 14 13 13 13 13 13 13 12 12 12 12 12 11 11 11 11 11 10 10 9 9 9 9 9 9 8 8 7 7 7 6 6 6 6 6 5 6 6 6
14 13 13 13 13 13 13 13 13 12 12 12 12 12 11 11 11 11 11 10 10 9 9 9 9 8 8 8 8 7 7 6 6 6 6 5 5 5 5 5 5 5
13 13 13 13 13 13 13 13 12 12 12 12 12 12 11 11 11 10 10 9 9 9 8 8 8 8 7 7 7 6 6 6 5 5 5 5 5 5 5 5 5 5
13 13 13 13 13 13 13 13 12 12 12 12 12 11 11 11 10 10 9 9 8 8 7 7 7 7 6 6 6 5 5 5 5 5 5 5 5 4 4 4 4 4
13 13 13 13 13 13 13 13 13 12 12 12 11 11 10 10 9 9 8 8 7 7 6 6 6 5 5 5 5 5 5 5 4 4 4 4 4 4 4 4 4 4
13 13 13 13 13 13 13 13 12 12 11 11 10 10 10 9 8 8 7 7 6 6 5 5 5 5 5 4 4 4 4 4 4 4 4 4 4 4 4 4 4 4
13 13 13 13 13 13 12 12 11 11 10 10 10 9 9 8 8 7 7 6 6 6 5 5 5 5 4 4 4 4 4 3 3 3 3 3 3 3 3 3 3 3
12 12 12 12 12 12 11 11 10 10 10 9 9 9 8 8 7 7 7 7 6 6 5 5 5 5 4 4 4 3 3 3 3 3 3 3 2 2 2 2 2 2
12 12 12 12 11 11 10 10 10 10 9 9 9 8 8 7 7 7 7 7 7 6 5 5 5 4 4 3 3 3 3 3 3 3 2 2 2 2 1 1 1 1
11 11 11 11 11 10 10 10 10 9 9 9 9 9 8 8 7 7 7 7 6 6 5 5 4 4 3 3 3 2 2 2 2 2 2 1 1 1 1 1 1 1
11 11 11 11 10 10 10 10 10 9 9 9 9 8 8 8 7 7 7 6 6 5 5 4 4 3 3 2 2 2 2 2 2 1 1 1 1 1 0 0 0 0

ECMWFNIL_925_temp_021.txt.gz
Temp
17 17 17 17 17 17 17 17 17 17 16 16 16 16 15 15 15 14 14 14 14 14 14 13 13 13 13 13 12 12 11 11 11 11 11 11 11 11 11 11 11 11
17 17 17 17 17 17 17 17 17 17 16 16 16 15 15 14 14 14 14 14 14 14 14 13 13 13 12 12 12 11 11 11 11 11 11 11 11 11 11 11 11 11
17 17 17 17 17 17 17 17 16 16 16 16 16 15 15 14 14 14 14 14 14 14 13 13 13 12 12 12 11 11 11 11 11 11 11 11 11 11 11 11 11 11
17 17 17 17 17 17 17 16 16 16 16 16 15 15 15 14 14 14 14 14 14 14 13 13 12 12 12 11 11 11 11 11 11 11 11 11 10 10 10 10 10 10
17 17 17 17 17 16 16 16 16 16 16 16 15 15 15 14 14 14 14 14 14 13 13 12 12 12 11 11 11 11 11 11 11 10 10 10 10 10 10 10 10 10
17 17 17 17 17 16 16 16 16 16 16 15 15 15 15 14 14 14 14 14 13 13 12 12 12 11 11 11 11 11 11 10 10 10 10 10 10 10 10 10 10 10
16 17 17 17 16 16 16 16 16 16 16 15 15 15 14 14 14 14 14 13 13 12 12 12 11 11 11 11 11 11 10 10 10 10 10 10 10 10 10 10 10 10
16 16 17 17 16 16 16 16 16 15 15 15 14 14 14 14 14 14 13 13 12 12 12 11 11 11 11 11 10 10 10 10 10 10 10 10 9 9 9 9 9 9
16 16 16 16 16 16 16 16 15 15 15 15 14 14 14 13 13 13 13 12 12 12 11 11 11 11 10 10 10 10 10 10 10 9 9 9 9 9 9 9 9 9
16 16 16 16 16 16 16 15 15 15 15 14 14 14 13 13 13 13 12 12 11 11 11 11 11 10 10 10 10 10 10 10 9 9 9 9 9 8 8 8 8 8
15 15 16 16 16 16 15 15 15 14 14 14 13 13 13 13 13 12 12 12 11 11 11 11 10 10 10 10 10 10 10 9 9 9 9 9 8 8 8 8 8 8
15 15 15 16 15 15 15 15 14 14 14 14 13 13 13 13 12 12 12 11 11 11 11 11 10 10 10 10 10 10 9 9 9 9 8 8 8 8 8 8 7 7
15 15 15 15 15 14 14 14 14 14 14 13 13 13 13 12 12 12 11 11 11 11 11 10 10 10 10 10 9 9 9 9 8 8 8 8 8 7 7 7 7 6
15 15 14 14 14 14 14 14 14 14 13 13 13 13 12 12 12 11 11 11 11 11 10 10 10 10 9 9 9 9 8 8 8 7 7 7 7 7 6 6 6 6
14 14 14 14 13 13 13 14 14 13 13 13 13 12 12 12 11 11 11 11 11 10 10 10 10 9 9 8 8 8 7 7 7 7 6 6 6 6 6 6 5 5
12 12 13 13 13 13 13 13 13 13 13 13 12 12 12 11 11 11 11 11 10 10 10 9 9 8 8 8 7 7 6 6 6 6 6 5 5 5 5 5 5 5
11 11 12 12 13 13 13 13 13 13 13 12 12 12 11 11 11 11 11 10 10 9 9 8 8 8 7 7 7 6 6 5 5 5 5 5 5 5 5 4 4 4
12 11 11 12 12 13 13 13 13 13 12 12 12 12 11 11 11 11 10 9 9 8 8 8 7 7 7 7 6 6 5 5 4 4 4 4 4 4 4 4 4 4
12 11 11 12 12 13 13 13 13 12 12 12 12 11 11 11 10 10 9 8 8 8 8 7 7 7 7 6 6 5 5 4 4 4 4 4 4 4 3 3 3 3
12 12 12 12 12 12 13 12 12 12 12 12 11 11 11 10 9 9 8 8 8 8 7 7 7 6 6 6 5 5 4 4 3 3 3 3 3 3 3 3 3 3
12 12 11 11 10 11 12 12 12 12 11 11 11 10 10 9 9 8 8 8 7 7 7 7 6 6 6 5 5 5 4 3 3 3 3 3 3 2 2 2 2 2
12 11 10 11 11 11 11 12 11 11 11 10 10 10 9 9 8 8 8 7 7 7 7 6 6 6 5 5 5 4 4 3 2 2 2 2 2 2 2 2 2 2
11 10 11 11 12 11 11 11 11 10 10 10 10 9 9 8 8 8 7 7 7 7 6 5 5 5 5 5 4 4 3 2 2 2 1 1 1 1 1 1 1 1
10 11 11 11 11 11 10 10 10 10 10 10 9 9 8 8 8 7 7 7 7 6 6 5 5 5 5 4 4 4 3 2 1 1 1 1 1 1 1 1 1 1
10 10 11 10 10 10 10 10 10 9 9 9 9 8 8 8 7 7 7 7 6 6 5 5 5 5 5 4 4 3 2 1 1 1 0 0 0 0 0 0 0 0
10 11 10 10 10 9 9 9 9 9 9 8 8 8 8 8 7 7 7 7 6 6 5 5 4 4 4 4 3 3 2 1 1 0 -0 -0 -0 -0 -0 -0 -0 -0

ECMWFNIL_925_temp_024.txt.gz
Temp
17 17 17 17 17 17 17 17 17 17 16 16 16 16 15 15 14 14 14 14 14 13 13 13 13 13 12 12 12 11 11 11 11 10 10 10 10 10 10 10 10 10
17 17 17 17 17 17 17 17 17 17 16 16 16 16 16 15 14 14 14 14 14 13 13 13 13 13 12 12 12 11 11 11 10 10 10 10 10 10 10 10 10 10
17 17 17 17 17 17 17 17 16 16 16 16 16 16 15 15 14 14 14 14 14 13 13 13 13 13 12 12 11 11 11 10 10 10 10 10 10 10 10 10 10 10
17 17 17 17 17 17 17 17 17 16 16 16 16 16 15 15 14 14 14 14 13 13 13 13 13 12 12 12 11 11 10 10 10 10 10 10 10 10 10 10 9 9
16 17 17 17 17 17 17 17 17 17 16 16 16 16 15 15 14 14 14 14 13 13 13 13 12 12 12 11 11 10 10 10 10 10 10 10 10 10 9 9 9 9
16 16 16 17 17 17 17 17 17 17 16 16 16 16 15 15 14 14 14 13 13 13 13 13 12 12 11 11 11 10 10 10 10 10 10 10 10 9 9 9 9 9
16 16 16 16 16 17 17 17 17 17 16 16 16 16 15 15 14 14 14 13 13 13 13 13 12 12 11 11 10 10 10 10 10 10 10 10 9 9 9 9 9 9
15 16 16 16 16 16 16 17 17 16 16 16 16 15 15 15 14 14 14 13 13 13 13 12 12 11 11 10 10 10 10 10 10 10 10 9 9 9 9 9 9 9
15 15 15 16 16 16 16 16 16 16 16 16 15 15 15 14 14 14 14 13 13 13 12 12 12 11 11 10 10 10 10 10 10 9 9 9 9 9 9 8 8 8
15 15 15 15 15 16 16 16 16 16 16 15 15 15 15 14 14 14 13 13 13 13 12 12 11 11 11 11 10 10 10 10 9 9 9 9 8 8 8 8 8 8
14 15 15 15 15 15 16 16 16 16 15 15 15 15 14 14 13 13 13 13 13 12 12 11 11 11 11 10 10 10 10 9 9 9 8 8 8 8 8 8 7 7
14 14 14 15 15 15 15 15 15 15 15 14 14 14 14 14 13 13 13 13 12 12 11 11 11 11 10 10 10 10 9 9 8 8 8 8 8 8 7 7 7 7
13 13 13 14 14 14 14 14 15 15 15 14 14 14 14 13 13 13 13 12 12 11 11 11 11 10 10 10 9 9 8 8 8 8 8 7 7 7 7 7 6 6
13 13 13 13 13 13 13 13 13 14 14 14 14 14 14 13 13 13 12 12 11 11 11 10 10 10 9 9 8 8 8 8 7 7 7 7 6 6 6 6 6 6
13 13 12 12 13 13 12 12 12 12 13 13 13 14 13 13 13 13 12 11 11 11 10 10 9 9 8 8 8 7 7 7 7 7 6 6 6 6 6 5 5 5
13 13 12 12 13 13 13 12 12 12 12 13 13 13 13 13 12 12 11 11 11 10 10 9 8 8 7 7 7 7 7 7 6 6 6 5 5 5 5 5 4 4
12 12 12 12 13 13 13 12 11 12 12 13 13 12 12 12 12 11 11 11 10 10 9 8 8 7 7 7 7 7 6 6 6 6 5 5 5 4 4 4 4 3
12 12 12 12 12 12 12 11 11 12 12 12 12 12 12 11 11 11 11 10 10 9 8 8 8 7 7 7 7 6 6 6 5 5 5 4 4 4 3 3 3 3
12 11 11 12 12 12 11 11 11 11 11 11 11 11 11 11 11 10 10 9 9 8 8 8 7 7 7 7 6 6 6 6 5 5 4 4 4 3 3 3 3 2
11 11 11 11 11 11 10 10 10 11 11 11 11 11 11 10 10 10 9 8 8 8 8 8 7 7 7 6 6 6 5 5 5 4 4 4 3 3 3 2 2 2
10 11 11 10 10 10 10 10 10 10 10 11 11 10 10 10 9 9 8 8 8 8 8 7 7 6 6 6 5 5 5 5 5 4 4 3 3 3 2 2 1 1
10 10 10 10 10 10 9 10 10 10 10 10 10 10 10 9 9 8 8 8 8 8 7 7 6 6 6 5 5 5 5 4 4 3 3 2 2 2 1 1 1 0
10 10 10 10 9 9 9 10 10 10 10 10 10 9 9 8 8 8 8 8 7 7 7 6 6 6 5 5 5 5 4 4 3 3 2 1 1 1 1 0 0 -0
10 9 9 9 9 9 9 9 10 10 10 10 10 9 8 8 8 8 7 7 7 7 6 6 6 6 5 5 5 4 4 3 2 2 1 1 0 0 -0 -0 -0 -0
9 9 9 9 8 8 7 7 7 8 9 10 9 9 8 8 8 7 7 7 6 6 6 6 6 6 5 5 4 4 4 3 2 1 1 0 -0 -0 -1 -1 -1 -0
9 8 8 8 8 8 7 7 7 7 8 9 9 8 8 8 7 7 7 6 6 6 6 6 6 5 5 5 4 4 3 3 2 1 1 0 -0 -1 -1 -1 -1 -1

ECMWFNIL_925_temp_027.txt.gz
Temp
17 17 17 17 17 17 17 17 17 17 17 16 16 16 15 15 14 14 14 14 14 13 13 13 13 13 12 12 12 12 11 11 10 10 10 10 10 10 10 10 10 10
17 17 17 17 17 17 17 17 17 17 17 17 16 16 15 15 15 14 14 14 13 13 13 13 13 13 12 12 12 11 11 11 10 10 10 10 10 10 10 10 10 10
17 17 17 17 17 17 17 17 17 17 17 16 16 16 15 15 15 14 14 14 14 13 13 13 13 12 12 12 12 11 11 10 10 10 10 10 10 10 10 10 10 9
16 17 17 17 17 17 17 17 17 17 16 16 16 16 15 15 15 14 14 14 13 13 13 13 13 12 12 12 11 11 10 10 10 10 10 10 10 10 9 9 9 9
16 17 17 17 17 17 17 17 17 17 17 16 16 16 15 15 15 14 14 14 13 13 13 13 13 12 12 12 11 11 10 10 10 10 10 10 9 9 9 9 9 9
16 16 16 17 17 16 16 17 17 17 17 16 16 16 15 15 15 14 14 14 13 13 13 13 13 12 12 12 11 11 10 10 10 10 10 10 9 9 9 9 9 9
15 15 16 16 16 16 16 16 16 17 17 16 16 16 15 15 15 14 14 14 13 13 13 13 12 12 12 11 11 11 10 10 10 10 10 10 9 9 9 9 9 9
16 16 16 16 16 16 16 16 16 16 16 16 16 15 15 15 15 14 14 14 13 13 12 12 12 12 12 11 11 11 10 10 10 10 9 9 9 9 9 9 8 9
16 16 16 16 15 15 16 16 16 16 16 16 16 15 15 15 15 14 14 14 13 13 12 12 12 12 12 11 11 10 10 10 10 9 9 9 9 9 9 8 8 8
15 15 15 15 15 15 15 15 15 16 16 16 15 15 15 15 15 14 14 14 13 12 12 12 12 12 11 11 11 10 10 10 9 9 9 9 8 8 8 8 8 8
14 14 14 14 14 15 15 15 15 14 15 15 15 15 15 15 14 14 14 13 13 13 12 12 12 12 11 11 10 10 10 9 9 8 8 8 8 8 8 8 7 7
13 13 13 13 14 14 14 14 14 14 14 13 13 13 13 14 14 14 14 13 13 13 12 12 12 12 11 10 10 10 9 9 8 8 8 8 8 7 7 7 7 7
13 13 12 12 13 13 14 14 13 13 13 12 12 12 12 13 13 14 14 13 13 13 12 12 12 11 11 10 10 9 9 8 8 8 8 8 8 7 7 7 7 7
13 13 13 12 13 13 13 13 13 13 12 12 12 13 13 13 13 13 13 13 13 12 12 12 11 11 10 10 9 9 9 8 8 8 7 7 7 7 7 7 7 7
12 12 12 12 12 13 13 13 13 13 12 12 12 12 13 13 13 13 13 13 12 12 12 11 11 10 10 9 9 8 8 8 7 7 7 6 6 6 6 6 6 6
12 12 12 12 12 12 12 12 12 12 12 12 12 12 12 13 13 13 13 12 12 12 11 11 10 10 9 9 8 8 7 7 7 6 6 6 6 6 6 5 5 5
11 11 11 11 12 12 12 12 12 12 12 12 11 11 12 12 12 12 12 12 12 11 10 10 9 9 9 8 8 7 7 7 6 6 6 5 5 5 5 5 5 5
11 11 11 11 11 11 11 12 12 12 11 11 11 11 11 11 11 11 11 11 11 10 9 9 8 8 8 7 7 7 7 6 6 5 5 5 5 5 4 4 4 4
11 11 11 11 11 11 11 11 11 11 11 11 11 11 11 10 10 11 11 10 10 9 9 8 7 7 7 7 7 6 6 6 5 5 5 4 4 4 4 3 3 3
11 10 10 10 10 10 10 10 11 11 11 11 11 10 10 10 10 10 10 9 9 9 8 7 7 7 7 7 6 6 6 6 5 5 4 4 4 3 3 3 3 3
10 10 10 10 10 10 10 10 10 10 10 10 10 9 9 9 10 10 9 9 8 8 8 7 7 7 7 6 6 6 6 5 5 4 4 3 3 3 2 2 2 2
10 10 10 10 10 10 10 10 10 10 10 10 9 9 9 9 9 9 9 8 8 8 7 7 6 7 6 6 6 6 5 5 4 4 3 3 3 2 2 2 2 2
9 9 10 9 9 9 10 10 9 9 9 9 8 8 8 8 9 8 8 7 7 7 7 7 7 6 6 6 6 5 5 4 4 4 3 3 3 2 2 2 1 1
9 9 9 9 9 9 10 9 9 9 8 8 8 8 8 8 8 7 7 7 7 7 7 7 6 6 6 6 5 5 5 4 4 4 3 3 3 2 2 2 2 1
9 9 9 9 9 9 9 9 8 8 7 7 7 7 7 7 7 7 7 7 7 7 6 6 6 6 6 6 5 5 5 4 4 4 3 3 3 2 2 2 2 2
8 9 9 9 9 8 8 8 7 6 6 6 6 6 6 7 7 7 6 6 6 6 6 6 6 6 6 5 5 5 4 4 3 3 3 3 3 2 2 2 3 3

ECMWFNIL_925_temp_030.txt.gz
Temp
17 18 18 18 18 18 18 18 18 17 17 17 17 17 16 16 15 15 15 14 14 14 14 14 14 13 13 13 14 14 14 13 13 13 12 12 12 12 12 12 12 13
17 17 17 18 18 18 18 17 17 17 17 17 17 17 16 16 15 15 15 14 14 14 14 14 13 13 14 14 13 14 14 13 13 13 13 12 12 12 12 12 12 12
17 17 17 17 18 18 17 17 17 17 17 17 17 17 16 16 15 15 15 14 14 14 14 14 13 13 14 13 13 14 13 13 13 13 13 13 13 12 12 12 12 12
16 16 16 17 17 17 17 17 17 17 17 17 17 16 16 15 15 15 15 14 14 14 14 13 13 14 14 13 13 14 13 13 13 13 13 13 12 12 12 12 12 12
16 16 16 16 17 17 17 17 17 17 17 17 16 16 16 15 15 15 15 14 14 14 14 14 13 14 13 13 14 13 13 13 13 12 13 13 12 12 12 12 12 12
16 16 16 16 16 16 16 16 17 17 17 17 16 16 16 16 15 15 15 15 15 14 14 14 14 14 13 13 14 13 13 13 13 12 13 13 12 12 12 12 12 12
16 16 16 16 16 16 16 16 17 17 17 17 16 16 16 16 15 15 15 15 15 15 14 14 14 14 14 14 14 13 13 13 13 13 13 13 12 12 12 12 12 12
16 16 16 16 16 16 16 16 16 16 16 16 16 16 16 16 16 16 15 15 15 15 15 14 14 14 14 14 14 13 13 12 12 13 13 12 12 12 12 11 11 11
16 16 16 16 16 16 16 16 16 16 16 16 16 16 16 16 16 16 15 15 15 15 15 15 14 14 14 14 14 13 13 12 12 12 12 12 12 12 12 12 11 11
15 16 16 16 16 16 16 16 16 16 16 16 16 16 16 16 16 16 16 15 15 15 15 15 14 14 14 14 13 13 13 12 12 12 12 12 12 12 11 11 11 11
15 15 15 16 16 16 16 16 16 16 16 15 15 16 15 15 16 16 16 16 15 15 15 15 14 14 14 14 13 13 13 12 12 12 12 11 11 11 11 11 11 11
15 15 15 15 15 15 15 15 16 16 16 15 15 15 15 15 15 15 15 15 15 15 15 15 14 14 14 14 13 13 12 12 12 11 11 11 11 10 10 10 10 10
16 15 15 15 15 14 14 15 15 16 16 16 15 15 14 14 14 14 14 15 15 15 15 15 15 14 14 14 13 12 12 11 11 11 11 10 10 10 10 10 10 10
15 15 15 15 14 14 13 14 15 15 15 15 15 15 14 13 13 13 13 14 15 15 15 15 15 14 14 13 13 12 12 11 11 10 10 10 10 10 9 9 9 9
15 15 15 15 15 15 14 14 15 15 15 15 15 14 14 13 13 13 13 13 14 14 15 15 14 14 13 13 12 12 11 11 10 10 10 10 9 9 9 9 9 9
15 15 15 15 15 15 15 15 15 14 14 14 14 14 14 13 12 12 13 13 14 14 14 14 13 12 12 12 11 11 10 10 10 9 9 9 9 9 9 9 9 9
15 15 15 15 15 15 15 15 15 15 14 14 14 13 13 13 12 13 13 13 14 14 13 12 11 11 11 10 10 10 10 9 9 9 9 9 9 9 9 9 9 9
15 15 15 15 15 15 15 15 15 15 15 14 14 13 12 12 12 12 13 13 13 12 11 10 10 10 10 10 9 9 9 8 9 8 8 8 8 8 8 8 8 8
14 15 15 15 15 15 15 15 15 15 14 14 14 13 12 12 12 12 13 12 12 11 10 10 9 9 9 9 9 8 8 8 8 8 8 8 8 8 8 8 8 8
14 14 14 14 14 14 14 14 14 14 14 14 14 13 12 12 12 13 12 12 11 10 9 8 8 8 8 8 8 8 8 8 7 7 7 7 7 7 7 7 7 7
13 14 14 14 14 14 14 14 14 14 14 14 14 13 12 12 12 12 11 10 10 9 8 7 7 7 7 7 7 7 7 7 6 6 7 7 7 7 6 6 6 6
13 13 13 13 14 14 14 14 14 14 13 13 13 13 12 12 12 11 10 9 9 8 8 7 6 6 7 7 7 7 7 7 6 6 7 7 7 7 6 6 6 6
13 13 13 13 13 13 13 13 13 13 13 13 13 12 12 11 10 9 8 8 8 8 7 7 6 6 6 6 6 6 6 7 7 8 8 7 7 7 6 6 6 5
13 13 13 13 13 13 13 13 13 13 13 12 12 11 10 9 8 8 7 7 7 7 7 6 6 6 6 6 6 5 6 7 8 8 8 7 7 7 6 6 6 5
12 12 12 13 13 13 13 13 12 12 12 11 10 9 8 8 7 7 7 7 7 7 6 6 6 6 6 5 5 5 5 6 7 8 7 7 7 7 7 6 6 6
12 12 12 12 12 12 12 12 11 10 9 9 8 8 7 7 7 7 6 6 6 6 6 6 6 6 5 5 5 5 5 5 6 7 7 7 7 6 6 6 6 6

ECMWFNIL_925_temp_033.txt.gz
Temp
19 19 19 19 19 19 19 19 19 19 19 19 19 18 18 17 17 16 16 16 16 16 16 15 15 15 15 15 16 16 16 15 15 15 15 14 14 14 14 14 14 15
19 19 19 19 20 20 19 19 19 19 19 19 19 18 18 17 17 16 16 16 16 16 15 15 15 15 16 16 15 16 16 15 15 15 14 14 14 14 14 14 14 14
19 19 19 19 20 20 19 19 19 19 19 19 18 18 18 17 17 16 16 16 16 16 15 15 15 15 16 16 15 16 16 15 15 15 15 15 15 14 14 14 14 14
19 19 19 19 19 19 19 19 19 19 19 19 18 18 18 17 17 17 16 16 16 16 15 15 15 15 16 15 15 16 15 15 15 15 15 15 14 14 14 14 14 14
19 19 19 19 19 19 19 19 19 19 19 19 18 18 18 17 17 17 16 16 16 16 16 15 15 15 15 15 15 16 15 15 15 15 15 15 14 14 14 14 14 14
18 19 19 19 19 19 19 19 19 19 19 19 18 18 18 17 17 17 17 16 16 16 16 16 15 15 15 15 15 15 15 15 15 15 15 15 14 14 14 14 14 14
18 18 19 19 19 19 19 19 19 19 19 19 18 18 18 18 17 17 17 17 17 17 16 16 16 16 15 15 15 15 15 15 15 15 15 15 14 14 14 14 14 14
18 18 18 18 18 18 18 18 18 18 18 18 18 18 18 18 18 17 17 17 17 17 17 16 16 16 16 15 16 15 15 15 15 15 15 15 15 14 14 14 13 14
17 17 17 18 18 18 18 18 18 18 18 18 18 18 18 18 18 18 18 17 17 17 17 17 17 16 16 15 16 16 15 15 15 15 15 15 15 14 15 14 13 13
16 16 16 16 17 17 17 17 17 17 18 18 18 18 18 18 18 18 18 18 17 17 17 17 17 17 16 16 16 16 15 15 14 15 15 15 14 14 15 14 14 13
16 16 16 15 15 16 17 17 16 16 16 17 18 18 18 18 18 18 18 18 18 17 18 17 17 17 17 16 16 16 15 15 15 15 14 14 14 14 14 14 13 13
15 15 15 15 15 15 16 16 16 16 15 16 17 17 17 18 18 17 18 18 18 18 18 18 17 17 17 16 16 16 15 15 15 15 14 14 14 14 13 13 13 13
15 14 15 15 15 15 16 16 16 16 16 16 16 17 17 17 17 17 17 17 18 18 18 18 18 17 17 17 16 16 15 15 15 14 14 14 13 13 13 13 12 12
17 16 16 16 15 15 15 15 15 15 16 16 16 16 16 17 17 17 16 16 17 17 17 17 17 17 17 17 17 16 16 15 14 14 14 13 13 13 13 12 12 12
17 17 17 17 16 16 16 16 16 15 15 16 16 16 16 16 17 16 15 15 15 16 16 16 16 17 17 17 16 16 15 15 14 14 13 13 12 12 12 12 12 12
17 17 17 17 17 17 17 17 17 16 16 16 16 16 16 16 16 15 14 14 14 14 15 15 15 15 16 16 16 16 15 14 14 13 13 13 12 12 12 12 11 11
17 17 17 17 17 17 17 17 17 17 17 16 16 16 15 15 15 14 13 14 13 14 15 15 14 14 14 15 15 15 15 14 13 12 12 12 12 12 12 11 11 11
17 17 17 17 17 17 17 17 18 18 17 17 16 16 15 15 15 14 14 13 13 13 14 14 14 14 13 14 14 14 13 12 12 11 11 11 11 11 11 11 11 11
17 17 17 17 17 17 17 17 17 17 17 17 17 16 15 15 15 15 15 14 13 14 13 12 12 12 12 13 13 12 12 11 11 11 11 11 11 11 11 10 10 10
16 17 17 17 17 17 17 17 17 17 17 17 17 16 16 15 15 15 15 14 14 13 12 11 11 11 11 12 12 12 11 11 10 10 10 10 10 10 10 10 9 9
16 16 16 16 16 16 16 16 16 17 16 16 17 16 16 15 15 14 14 14 13 12 11 10 10 10 10 11 11 10 10 10 9 9 9 9 9 9 9 9 9 9
16 16 16 16 16 16 16 16 16 16 16 16 16 16 16 15 15 14 14 13 12 10 9 9 9 9 9 9 9 9 9 9 8 8 8 9 9 9 9 9 9 9
16 16 16 16 16 16 16 16 16 16 16 16 16 15 15 15 15 14 13 12 10 9 9 8 8 8 8 8 8 8 8 8 8 8 9 9 9 9 9 9 9 9
16 16 16 15 15 15 15 15 15 15 15 15 15 15 15 14 13 13 12 10 9 8 8 8 7 7 7 7 7 8 8 8 8 9 9 9 10 10 9 9 9 9
15 15 15 15 15 15 15 15 15 15 15 15 15 14 14 12 11 10 9 8 8 8 8 7 7 6 6 6 7 7 8 8 8 9 9 9 10 10 9 9 9 9
15 14 14 14 14 14 14 14 14 14 14 14 13 12 11 10 9 8 8 7 7 7 7 7 6 6 6 6 6 7 7 7 7 8 9 9 9 9 9 9 9 9

ECMWFNIL_925_temp_039.txt.gz
Temp
19 19 19 19 18 18 18 18 18 18 18 17 17 17 17 17 16 16 16 16 16 16 16 17 17 16 16 16 16 16 15 15 15 15 16 16 15 15 15 15 15 15
19 19 19 19 18 18 18 18 18 18 18 18 18 17 17 17 17 16 16 16 16 16 16 16 17 16 16 16 16 16 15 15 15 15 15 15 15 15 15 15 14 15
19 19 19 19 19 18 18 18 18 18 18 18 18 17 17 17 17 16 16 16 16 16 16 16 16 16 16 16 16 15 15 15 15 14 14 15 15 15 14 14 14 14
19 19 19 19 19 19 19 19 18 19 18 18 18 18 18 17 17 17 16 16 16 16 16 16 16 16 16 16 16 15 15 15 15 15 15 15 14 14 14 14 14 14
19 19 19 19 19 19 19 19 19 18 19 18 18 18 18 17 17 17 17 16 16 16 16 16 16 16 16 16 16 15 15 15 15 15 15 15 14 14 15 14 14 14
19 19 19 19 19 19 19 19 19 19 18 19 18 18 18 18 17 17 17 16 16 16 16 16 16 16 16 16 16 15 15 15 15 15 15 14 14 14 14 14 14 14
19 19 19 19 19 19 19 19 19 19 19 18 18 18 18 18 18 17 17 17 16 16 16 16 16 16 16 15 16 15 15 15 15 15 15 15 15 15 14 14 14 14
18 19 19 19 19 19 19 19 19 19 19 18 18 18 18 18 18 18 17 17 17 16 16 16 16 16 16 16 15 15 15 15 15 15 15 15 15 15 14 14 14 14
17 18 17 18 19 19 18 19 19 18 18 18 18 18 18 18 18 18 17 17 17 17 16 16 16 16 16 16 16 15 15 15 15 15 15 15 15 15 15 14 14 14
17 17 16 16 18 18 18 18 18 18 18 18 18 18 18 18 18 17 17 17 17 17 17 17 16 16 16 16 16 16 15 15 15 15 15 15 15 15 15 14 14 14
16 17 16 15 16 17 17 17 18 18 18 18 18 17 17 17 17 17 17 16 17 17 17 17 17 16 16 16 16 16 16 16 15 15 15 15 15 15 15 14 14 14
16 17 16 15 16 16 17 17 17 17 17 17 17 17 17 17 17 17 16 16 17 17 17 17 16 16 16 16 16 16 16 16 15 15 15 15 15 15 15 15 14 14
16 16 16 16 16 16 16 17 17 17 17 17 17 16 16 16 16 16 16 16 17 17 17 16 16 15 15 16 16 15 15 16 16 16 15 15 15 15 15 15 14 14
16 16 16 16 16 16 16 16 16 16 16 16 16 16 16 16 16 15 16 16 16 16 16 16 16 15 15 15 15 15 15 15 15 15 15 15 15 15 15 14 14 14
16 16 16 16 16 16 16 16 16 16 16 16 16 16 16 15 15 15 15 16 16 16 16 15 15 15 15 15 15 15 15 15 15 15 15 15 15 14 14 14 14 14
17 17 17 17 17 17 16 16 16 16 16 16 16 16 16 15 15 15 16 16 16 16 15 15 15 15 15 15 15 15 15 15 15 14 15 15 15 14 14 14 13 13
17 17 17 17 17 17 17 17 16 16 16 16 16 16 16 16 16 16 16 16 16 16 15 15 15 15 15 15 15 14 14 14 14 14 14 15 15 14 14 13 13 13
17 17 17 17 17 17 17 17 17 17 16 16 16 16 16 16 16 16 16 16 16 15 15 15 15 15 15 15 14 14 14 14 13 13 14 14 14 14 13 13 13 12
16 17 17 17 17 17 17 17 17 17 17 16 16 16 16 16 15 16 16 16 15 15 15 14 14 14 15 14 14 14 14 13 13 13 14 14 14 13 13 13 12 12
16 16 16 16 16 16 16 16 16 16 16 16 16 16 16 16 16 16 16 15 15 15 14 14 14 14 14 14 13 13 13 13 13 13 13 13 13 12 12 12 12 11
16 16 16 16 16 16 16 16 16 16 16 16 16 16 16 16 16 15 15 15 15 14 14 14 14 13 13 13 13 13 13 13 13 13 12 12 12 11 11 11 11 11
16 16 16 16 16 16 16 16 16 16 16 16 16 15 15 15 15 15 15 15 14 14 14 13 13 12 12 12 12 12 12 12 12 12 12 11 11 11 10 10 10 11
16 16 16 16 16 16 16 16 15 15 15 15 15 15 15 15 15 15 14 14 14 13 13 13 12 11 11 11 11 11 12 12 11 11 11 11 10 10 10 10 10 10
15 15 15 15 15 15 15 15 15 15 15 15 15 15 14 14 14 14 14 13 13 13 12 12 12 11 11 11 11 11 11 11 11 10 10 10 10 10 10 10 9 9
15 15 15 15 15 15 15 15 14 14 14 14 14 14 14 13 13 13 13 12 12 11 11 11 11 10 10 10 11 10 11 10 10 10 10 9 9 9 9 9 9 9
15 15 15 15 14 14 14 14 14 14 14 14 13 13 13 12 12 12 12 11 10 10 10 10 10 10 9 9 10 10 10 10 9 9 9 9 9 9 9 9 8 8

ECMWFNIL_925_temp_042.txt.gz
Temp
18 18 18 18 17 17 17 17 17 17 17 17 17 17 17 17 16 16 16 16 16 16 16 16 16 15 15 16 16 16 16 16 16 15 15 15 14 14 14 14 15 14
18 18 18 18 17 17 17 17 17 17 17 17 17 17 17 16 16 16 16 16 16 16 16 16 16 15 15 15 16 16 16 15 15 15 15 15 14 14 14 14 14 14
18 18 18 18 18 17 17 17 17 17 17 17 17 17 17 17 16 16 16 16 17 17 17 16 16 15 15 15 15 15 15 15 15 15 15 15 14 14 14 14 14 14
18 18 18 18 18 18 17 17 17 17 17 17 17 17 17 17 17 16 16 16 17 17 17 16 16 16 15 15 15 15 15 15 15 15 15 15 15 14 14 14 14 14
18 18 18 18 18 18 18 18 17 17 17 17 17 17 17 17 17 17 16 16 16 16 16 16 16 16 16 15 15 15 15 15 15 14 15 15 15 14 14 14 14 14
18 18 18 18 18 18 18 18 18 18 18 18 17 17 17 17 17 17 17 16 16 16 16 16 16 16 16 15 15 15 15 15 15 15 15 15 15 14 14 14 14 14
18 18 18 18 18 18 18 18 18 18 18 18 18 17 17 17 17 17 17 17 17 17 16 16 16 16 16 16 16 15 15 15 15 15 15 15 14 14 14 14 14 14
18 18 18 18 18 18 18 18 18 18 18 18 18 18 17 17 17 17 17 17 17 17 17 16 16 16 16 16 16 16 15 15 15 15 15 15 14 14 14 14 14 14
18 18 18 17 17 18 17 17 17 17 18 18 17 17 17 17 17 17 17 17 17 17 17 16 16 16 16 16 16 16 16 15 15 15 15 15 15 14 14 14 14 14
17 18 17 17 17 17 17 17 17 17 17 17 16 17 17 17 17 17 17 17 17 17 17 16 16 16 16 16 16 16 16 16 16 15 15 15 15 15 14 14 14 14
17 16 16 17 17 17 17 17 17 16 16 15 15 15 16 16 17 16 16 17 17 17 17 16 16 16 16 16 16 16 16 16 16 16 15 15 15 15 15 14 14 14
16 15 15 16 16 16 16 17 17 16 15 15 14 14 14 16 16 16 16 16 16 16 16 16 16 16 16 16 16 16 16 16 16 16 15 15 15 15 15 15 14 14
16 16 16 17 17 17 16 16 16 16 15 15 15 14 14 15 16 16 16 16 16 16 16 16 16 16 16 16 16 16 15 16 16 15 15 15 15 15 15 15 14 14
16 16 16 16 16 16 16 15 15 15 16 15 16 16 15 16 16 16 16 16 16 16 16 15 15 15 15 15 15 15 15 15 15 15 15 15 15 15 15 15 15 14
16 16 16 16 16 16 16 16 15 15 16 16 16 16 16 16 16 16 16 15 15 15 15 15 15 15 15 15 15 15 15 15 15 15 15 15 15 15 15 15 15 14
16 16 16 16 16 16 16 16 16 16 16 16 16 16 16 16 16 15 15 15 15 15 15 14 14 15 15 15 15 15 15 15 15 15 14 14 14 14 15 15 14 14
16 16 16 16 16 16 16 16 16 16 16 16 16 15 15 15 15 15 15 15 15 15 14 14 14 14 14 14 14 14 14 14 14 14 14 14 14 14 14 14 14 14
16 16 16 16 16 16 16 16 16 16 16 15 16 16 15 15 15 15 15 15 15 15 15 15 14 14 14 13 13 13 13 13 13 14 14 14 14 14 14 14 14 13
16 16 16 16 16 16 16 16 16 16 16 15 16 15 15 16 15 16 15 15 15 15 15 14 14 14 14 13 13 13 13 13 13 13 13 13 13 13 13 13 13 13
16 16 16 16 16 16 16 16 16 16 15 15 15 15 15 15 15 15 15 15 15 15 14 14 14 14 14 14 13 13 13 13 13 13 13 13 12 12 12 13 13 12
16 16 16 16 16 16 16 16 16 16 15 15 15 15 15 15 15 15 15 15 15 15 14 14 14 14 14 14 13 13 13 12 12 12 12 12 11 11 12 12 12 11
15 15 16 16 16 16 15 15 15 15 15 15 15 15 15 15 15 15 15 15 15 14 14 14 14 14 13 13 13 13 12 12 12 12 11 11 11 11 11 11 11 11
15 15 15 15 15 15 15 15 15 15 15 15 14 14 14 14 14 14 14 14 14 14 13 13 13 13 12 12 12 12 12 12 12 11 11 11 10 10 10 10 10 10
14 14 14 14 15 15 15 15 14 14 14 14 14 14 14 14 14 14 14 14 14 13 13 12 12 12 11 11 11 11 11 11 11 11 11 10 10 10 10 10 10 10
14 14 14 14 14 14 14 14 14 14 14 13 13 13 13 13 13 13 13 13 13 13 12 12 12 11 11 11 11 11 11 11 11 11 11 10 10 9 9 9 9 9
14 14 14 14 14 14 13 13 13 13 13 13 13 13 13 13 12 12 12 12 12 11 11 11 11 11 10 10 10 10 11 11 10 10 10 9 9 9 8 8 8 8

ECMWFNIL_925_temp_045.txt.gz
Temp
18 18 18 17 17 17 17 17 16 16 16 16 16 16 16 16 16 16 16 16 16 16 16 16 16 15 15 16 16 16 16 15 15 14 14 15 14 14 14 14 14 14
18 18 18 17 17 17 17 17 17 17 17 17 16 16 16 16 16 16 16 16 16 16 16 16 16 15 15 15 16 16 16 15 15 14 14 14 14 14 14 14 14 14
18 18 18 18 17 18 17 16 17 17 17 17 17 17 17 16 16 16 16 16 16 16 16 16 16 15 15 15 15 15 15 15 15 14 14 14 14 14 14 14 14 14
18 18 18 18 18 18 17 17 17 17 17 17 17 17 17 17 17 16 16 16 16 16 16 16 16 15 15 15 15 15 15 15 15 15 14 14 14 14 14 14 14 14
18 18 18 18 18 18 17 17 17 17 17 17 17 17 17 17 17 17 17 16 16 16 16 16 15 15 15 15 15 15 15 15 15 15 15 14 14 14 14 14 14 14
17 17 18 18 18 18 17 17 17 17 17 17 17 17 17 17 17 17 17 17 16 16 16 16 16 15 15 15 15 15 15 15 15 15 15 15 15 14 14 14 14 14
16 17 18 18 18 18 18 17 17 17 17 17 17 17 17 17 17 17 17 17 16 16 16 16 16 16 16 16 15 15 15 15 15 15 15 15 15 14 14 14 14 14
16 16 17 17 18 18 17 17 17 17 17 17 17 17 17 17 17 17 17 17 16 16 16 16 16 16 16 16 16 15 15 15 15 15 15 15 15 14 14 14 14 14
16 16 16 17 17 17 17 16 16 16 17 17 16 17 16 16 17 17 16 16 16 16 16 16 16 16 16 16 16 16 16 15 15 15 15 15 15 15 14 14 14 14
16 16 16 16 17 17 17 16 16 16 16 16 16 16 16 16 16 16 16 16 16 16 16 16 16 16 16 16 16 16 16 16 15 15 15 15 15 15 15 14 14 14
16 16 16 16 17 17 16 16 16 16 16 16 17 17 16 16 16 15 15 15 15 15 15 15 16 16 16 16 16 16 16 16 16 15 15 15 15 15 15 14 14 14
15 15 15 16 16 16 15 15 16 16 16 16 16 16 16 16 16 15 15 15 15 15 14 14 15 16 16 16 16 16 15 15 15 15 15 15 15 15 15 15 15 14
15 15 15 15 16 16 16 16 15 15 16 16 15 16 16 16 15 15 15 15 15 15 14 13 13 15 16 16 16 16 15 15 15 15 15 15 15 15 15 15 15 14
15 16 15 15 16 16 16 16 16 15 16 15 15 15 15 15 15 15 15 15 15 15 14 13 13 15 15 15 15 15 15 15 15 15 15 15 15 15 15 15 15 15
15 16 15 15 16 16 16 15 15 15 15 15 14 15 15 15 15 15 15 15 15 14 14 13 14 14 15 15 15 15 15 15 15 15 15 15 15 15 15 15 15 15
15 15 15 15 15 15 14 14 14 14 14 14 14 14 15 15 14 14 14 14 14 13 13 13 13 14 14 14 14 14 14 14 14 14 14 14 14 15 15 15 15 14
15 14 14 14 14 14 14 14 14 14 14 14 14 14 14 14 13 13 13 13 13 13 13 14 14 14 13 13 13 13 13 13 13 13 13 14 14 14 14 14 14 14
16 16 15 15 15 15 16 16 15 15 15 15 15 14 14 14 14 14 14 13 13 14 14 14 14 14 13 13 13 13 13 13 13 13 13 13 13 13 13 14 14 14
16 16 16 16 16 16 16 16 16 16 15 15 15 15 15 15 15 15 15 15 15 15 14 14 14 14 14 13 13 13 13 13 13 13 13 13 12 13 13 13 13 13
16 15 15 15 15 15 15 15 15 15 15 15 15 15 15 15 15 15 15 15 15 15 14 14 14 14 14 13 13 13 13 13 13 12 12 12 12 12 12 12 12 12
15 15 15 15 15 15 15 15 15 15 15 15 15 15 15 15 15 15 15 15 15 14 14 14 14 13 13 13 13 13 13 13 12 12 12 12 12 11 11 11 11 11
15 15 15 15 15 15 15 15 15 14 15 15 14 14 14 14 14 14 14 14 14 14 14 14 13 13 13 13 12 12 12 12 12 12 11 11 10 10 10 10 10 11
14 14 14 14 14 14 14 14 14 14 14 14 14 14 14 14 14 14 14 14 14 14 14 13 13 12 12 12 12 12 12 12 12 12 11 10 10 10 10 10 10 10
14 14 14 14 14 14 14 14 14 14 14 14 14 14 14 14 13 13 13 13 13 13 13 13 13 12 12 12 12 12 12 12 12 11 10 10 10 10 10 10 10 10
14 14 14 14 14 14 13 13 13 13 13 13 13 13 13 13 13 12 12 13 13 13 12 12 11 11 11 11 11 11 11 11 11 11 10 10 10 10 10 10 9 9
13 14 13 13 13 13 13 13 13 13 13 13 13 12 12 12 12 12 12 12 12 12 12 11 11 11 11 11 10 10 11 11 11 11 10 10 10 9 9 9 8 8

ECMWFNIL_925_temp_051.txt.gz
Temp
18 18 17 17 17 17 17 16 16 15 16 15 15 15 15 15 15 15 15 15 15 15 15 15 15 15 15 14 14 14 14 14 14 14 14 14 14 14 14 14 14 14
18 18 17 17 17 17 17 16 16 16 16 15 15 15 15 15 15 15 15 15 15 15 15 15 15 15 15 15 14 14 14 14 14 14 14 14 14 14 14 13 13 13
18 18 17 17 17 17 17 16 16 16 16 15 15 15 15 15 15 15 15 15 15 15 15 15 15 15 15 15 15 14 14 14 14 14 14 14 14 14 14 13 13 13
18 17 17 17 17 17 17 16 16 16 16 15 15 15 15 15 15 15 15 15 15 15 15 15 15 15 15 15 15 14 14 14 14 14 14 14 14 14 13 13 13 13
17 17 17 17 17 17 17 16 16 16 16 16 15 15 15 15 15 15 15 15 15 15 15 15 15 15 15 14 14 14 14 14 14 14 14 14 13 13 13 13 13 13
17 17 17 17 16 17 17 17 16 16 16 16 16 16 15 15 15 15 15 15 15 15 15 15 15 15 15 14 14 14 14 14 14 14 14 14 14 14 13 13 13 13
16 16 17 17 16 16 16 17 17 16 16 16 16 16 16 16 16 16 16 15 15 15 15 15 15 15 15 15 14 14 14 14 14 14 14 14 14 14 14 14 13 13
16 16 16 16 16 16 16 17 17 16 16 16 16 16 16 16 16 16 16 16 16 16 15 15 15 15 15 15 15 15 14 14 14 14 14 14 14 14 14 14 14 14
16 16 16 16 15 16 16 17 17 17 16 16 16 16 16 16 16 16 16 16 16 16 16 16 15 15 15 15 15 15 14 14 14 14 14 14 14 14 14 14 14 13
16 16 16 16 15 16 16 17 17 17 17 16 16 16 16 16 16 16 16 16 16 16 16 16 15 15 15 15 15 15 14 14 14 14 14 14 14 13 13 13 13 13
16 16 16 15 15 16 16 17 17 16 16 16 16 16 16 16 16 16 16 16 16 16 16 15 15 15 15 15 15 15 15 15 14 14 14 14 14 13 13 13 13 13
16 16 16 16 16 16 16 17 16 16 16 16 16 16 16 16 16 16 16 15 15 16 15 15 15 15 15 15 15 15 15 15 14 14 14 14 14 14 14 14 13 13
16 16 16 16 16 15 15 16 16 16 16 16 16 16 16 16 16 16 16 15 15 15 15 15 15 15 15 15 15 14 14 14 14 14 14 14 14 14 14 13 13 13
15 15 15 15 15 15 15 15 15 15 15 15 15 15 15 15 15 15 15 15 15 15 15 15 15 14 14 14 14 14 14 14 14 14 14 14 14 14 14 13 13 13
15 15 14 14 14 14 14 14 15 15 15 15 15 15 15 15 15 15 15 15 15 15 14 14 14 14 14 14 14 14 13 13 13 14 14 13 13 13 13 13 13 12
14 14 14 14 14 14 14 14 15 15 15 15 15 15 15 15 14 15 15 15 15 14 14 13 13 13 13 13 13 13 13 12 13 13 13 13 13 13 13 13 13 13
14 14 14 14 14 14 15 15 15 15 15 15 14 14 14 14 14 14 14 14 14 14 14 14 13 13 13 13 13 13 13 13 13 12 12 12 12 12 12 12 12 12
14 14 14 14 14 14 14 15 15 15 15 14 14 14 14 14 14 14 14 14 14 14 14 14 14 13 13 13 13 14 14 14 13 13 12 12 11 11 11 11 11 12
14 14 14 14 13 14 14 14 15 15 15 14 14 14 14 14 14 14 14 14 14 14 14 14 14 14 14 14 13 14 14 13 13 13 13 12 12 11 11 11 11 12
14 14 14 14 14 14 14 14 15 14 14 14 14 14 14 14 14 14 14 14 14 14 14 14 14 13 13 13 13 13 13 13 13 13 13 13 12 12 12 12 12 11
14 14 15 15 15 15 15 15 15 14 15 15 14 14 14 14 14 14 14 14 14 14 14 13 13 13 13 13 13 13 13 13 13 13 13 13 12 12 12 12 11 11
14 15 15 15 15 15 15 15 15 14 14 14 14 14 14 14 14 14 14 14 14 14 13 13 13 13 13 13 12 12 13 13 12 12 12 12 12 12 12 11 11 11
14 14 14 14 14 14 14 14 14 14 14 14 14 14 13 13 13 13 13 13 13 13 13 13 13 13 12 12 12 12 12 12 12 12 12 12 12 11 11 11 11 10
14 14 14 14 14 14 14 14 14 14 13 13 13 13 13 13 13 13 13 13 13 13 13 13 13 12 12 12 12 12 12 12 12 12 11 11 11 11 10 10 10 10
13 13 13 13 14 14 14 14 13 13 13 13 13 13 13 13 13 13 13 12 12 12 12 12 12 12 12 12 11 11 12 12 11 11 11 11 10 10 10 9 9 9
13 13 13 13 13 13 13 13 13 13 13 13 13 13 13 12 12 12 12 12 12 12 12 12 11 11 11 11 11 11 11 11 11 11 11 11 10 9 9 9 8 8

ECMWFNIL_925_temp_057.txt.gz
Temp
19 19 19 19 19 19 19 19 19 19 19 19 19 18 18 18 17 17 17 17 17 17 17 17 17 17 17 17 18 18 17 17 17 17 17 17 17 17 17 17 17 18
19 19 19 20 20 19 19 19 19 19 19 19 18 18 18 17 17 17 17 17 17 17 17 17 17 17 17 17 17 18 17 17 17 17 17 17 17 17 17 17 17 18
19 19 19 19 19 19 19 19 19 19 19 18 18 18 17 17 17 17 17 17 17 17 17 17 17 17 17 17 17 17 17 17 17 17 17 17 17 17 17 17 17 18
18 18 19 19 19 19 19 19 19 19 18 18 18 17 17 17 17 17 17 17 17 17 17 17 17 17 17 18 18 17 17 17 17 17 17 17 17 17 17 17 17 17
18 18 18 19 19 18 18 18 18 18 18 18 18 17 17 17 17 17 17 17 17 17 17 17 17 17 17 18 18 17 17 17 17 17 17 17 17 17 17 17 17 17
18 18 18 18 18 18 18 18 18 18 18 18 18 18 17 17 18 18 17 18 18 17 17 17 17 17 17 18 18 18 18 17 17 17 18 17 17 17 17 17 17 17
18 18 17 18 18 18 18 18 18 18 18 18 18 18 18 18 18 18 18 18 18 18 18 17 17 17 17 17 17 18 18 17 17 18 18 18 17 17 17 17 18 18
18 17 17 17 17 18 18 18 18 18 18 18 18 18 18 18 18 18 18 18 18 18 18 18 17 17 17 17 17 17 17 17 17 18 18 17 17 17 17 17 17 17
17 17 17 17 17 18 18 18 18 18 18 18 18 18 18 18 18 18 18 18 18 18 18 18 18 18 17 18 17 17 17 17 17 17 17 17 17 17 18 17 17 17
17 17 17 17 17 18 18 18 18 18 18 18 18 18 18 18 18 18 18 18 18 18 18 18 18 18 17 18 18 17 17 17 17 17 17 17 17 17 18 17 17 17
17 17 17 17 17 18 18 18 18 18 18 18 18 18 18 18 18 18 18 18 18 19 19 18 18 18 18 18 18 17 17 17 17 17 17 17 17 17 17 17 17 17
17 17 17 17 17 17 17 18 18 18 18 18 18 18 18 18 18 18 18 18 18 19 19 19 18 18 18 18 18 17 17 17 17 17 17 17 17 17 17 17 17 17
17 16 16 16 17 17 17 17 18 18 18 18 18 18 18 18 18 18 18 18 18 18 18 18 18 18 18 18 18 18 17 17 17 16 16 16 16 17 17 16 16 16
16 15 15 16 17 17 17 17 18 18 18 18 18 18 18 18 18 18 18 18 17 17 18 18 18 17 17 17 17 17 17 17 16 16 16 15 16 16 16 16 16 16
14 14 14 16 17 16 16 17 18 17 18 18 18 18 18 18 18 17 17 17 17 17 17 17 16 16 16 16 16 16 16 15 15 15 15 14 15 15 15 16 16 16
14 14 15 16 16 16 16 16 16 16 17 17 17 17 17 17 17 16 15 14 15 16 16 16 15 15 16 16 16 15 15 14 14 14 14 14 14 14 15 15 15 15
16 16 16 16 15 15 15 15 14 14 15 16 16 16 16 16 16 16 15 14 14 14 14 14 14 15 15 15 15 15 15 14 14 14 14 14 15 15 15 15 15 15
17 17 16 15 15 15 15 14 14 14 15 15 15 15 15 15 16 16 16 15 14 13 13 13 14 15 15 15 15 15 15 14 15 15 15 15 15 16 16 16 15 15
17 16 16 15 14 14 14 13 13 14 14 14 15 15 14 15 15 14 14 14 13 13 13 14 14 14 14 15 15 15 15 15 15 16 16 16 15 15 16 16 16 15
17 17 16 15 15 14 14 14 14 14 14 14 14 14 14 14 14 14 13 14 13 13 13 14 14 14 14 14 14 15 15 15 15 15 15 15 15 15 15 15 15 15
17 17 16 16 16 15 15 15 15 15 14 14 14 13 14 14 14 13 14 14 14 14 13 14 14 14 14 14 14 14 14 14 15 15 15 15 14 14 14 14 14 14
18 17 17 17 16 16 16 15 15 15 15 15 14 14 14 15 14 14 15 15 15 15 14 14 14 14 13 14 14 14 14 14 15 15 15 15 14 14 14 13 13 14
18 18 18 17 17 17 16 16 16 16 16 15 15 15 15 15 15 15 15 15 15 15 14 14 14 14 14 14 14 13 14 14 15 15 15 14 14 13 13 12 12 13
18 18 18 18 17 17 16 16 16 16 16 16 16 16 16 16 16 16 15 15 15 15 14 14 14 14 14 14 13 13 14 14 15 15 14 14 14 13 12 12 12 12
17 17 17 17 17 17 16 16 16 16 16 16 16 16 16 16 16 16 15 15 15 14 14 14 13 14 14 13 13 13 13 14 14 15 14 14 14 13 12 11 11 11
17 16 16 16 17 16 16 16 17 16 16 16 16 16 16 16 16 16 15 15 14 14 14 13 13 13 13 13 13 13 13 13 14 15 14 14 15 14 13 11 10 10

ECMWFNIL_925_temp_060.txt.gz
Temp
19 19 19 19 19 19 19 19 19 19 19 19 18 18 18 18 17 17 17 17 17 17 17 17 17 18 18 18 17 17 17 17 17 17 17 17 17 17 17 18 18 18
19 19 19 19 19 19 19 19 19 19 19 18 18 18 18 17 17 17 17 17 17 17 17 17 17 17 17 17 17 17 17 17 17 17 17 17 17 17 17 18 18 18
19 19 19 19 19 19 19 19 19 19 19 18 18 18 17 17 17 17 17 17 17 17 17 17 18 18 17 17 17 17 17 17 17 17 17 17 17 17 17 18 18 17
19 19 19 19 19 19 19 19 19 19 19 18 18 17 17 17 17 17 17 17 17 17 17 18 18 18 18 18 17 17 17 17 17 17 17 17 17 17 17 17 17 18
19 19 19 19 19 19 19 19 19 19 18 18 18 17 17 17 17 17 17 17 17 17 17 17 18 18 18 18 18 17 17 17 17 17 17 17 17 17 17 17 17 17
18 19 19 19 19 19 19 19 19 18 18 18 18 17 17 17 17 17 17 17 17 17 17 17 17 18 18 18 18 18 18 17 17 18 18 17 18 18 18 18 17 17
18 18 18 18 18 18 18 19 18 18 18 18 18 17 17 17 17 17 18 18 18 17 17 17 17 18 18 18 18 18 18 18 18 18 18 17 18 18 18 18 18 17
18 18 18 18 18 18 18 18 18 18 18 18 18 18 17 18 18 18 18 18 18 18 18 18 18 17 17 18 18 17 17 17 18 18 18 17 18 18 17 17 17 17
17 18 18 18 17 18 18 18 18 18 18 18 18 18 18 18 18 18 18 18 18 18 18 18 18 17 17 18 18 17 17 17 18 18 17 17 17 18 17 17 17 17
16 15 17 17 17 18 18 18 18 18 18 18 18 18 18 18 18 18 18 18 18 18 18 18 18 18 18 18 18 17 17 17 17 17 17 17 17 18 18 17 17 17
15 15 16 16 16 18 18 18 18 18 18 18 18 18 18 18 18 18 18 18 18 18 18 18 18 18 18 18 17 17 17 17 17 17 17 17 16 17 17 17 17 17
16 16 16 15 15 17 18 18 18 18 18 18 18 18 18 18 18 18 18 18 18 19 19 18 18 18 18 18 17 17 16 16 16 15 15 15 15 16 16 15 15 16
16 16 16 16 16 17 17 17 18 18 18 18 18 18 18 18 18 18 18 18 19 19 18 17 17 17 17 17 17 16 15 15 15 15 15 15 15 16 16 15 14 14
16 15 14 14 15 16 16 16 16 17 18 18 18 18 18 18 18 18 18 18 18 17 16 16 16 15 16 16 16 16 16 16 16 16 15 15 15 15 15 15 15 14
16 15 14 14 14 14 15 15 15 15 17 17 18 18 18 18 18 18 18 17 17 16 16 16 16 15 15 16 16 16 16 16 16 15 15 15 15 15 15 14 15 15
15 16 15 15 14 13 14 15 16 15 16 17 17 18 18 18 18 18 17 16 16 16 16 16 16 15 15 15 16 16 16 16 16 15 15 15 15 15 15 15 15 15
15 15 15 14 14 13 14 15 15 15 16 16 16 17 17 17 17 17 16 16 15 15 16 16 16 16 15 15 16 15 15 15 15 15 15 15 15 15 15 15 15 15
14 14 14 14 13 13 13 14 14 15 15 15 15 16 16 16 15 15 15 15 15 15 16 16 16 15 15 15 15 15 15 15 15 15 15 15 15 15 15 15 15 14
13 13 13 13 13 13 13 13 14 14 15 15 15 15 15 15 15 15 15 15 15 15 16 15 15 15 15 14 15 15 15 15 15 15 15 15 15 15 15 15 15 15
13 14 13 13 13 13 13 13 13 14 15 15 15 15 15 15 15 15 15 15 15 15 15 15 15 14 14 14 14 15 15 15 15 15 15 15 15 15 15 15 15 15
14 14 13 13 13 13 13 13 14 14 14 14 14 14 14 14 15 15 15 14 14 14 15 15 14 14 14 14 14 15 15 15 15 15 15 14 14 14 14 14 14 14
15 14 14 14 14 14 14 14 14 14 14 14 14 14 14 14 14 15 15 14 14 14 14 14 14 14 14 14 14 14 15 15 15 15 15 14 14 13 13 14 14 14
17 16 16 15 15 15 15 14 14 14 14 14 14 14 14 14 14 15 14 14 14 14 14 14 14 14 14 14 14 14 14 15 15 15 14 14 13 13 13 13 13 13
18 18 17 16 16 16 15 15 15 15 15 15 15 15 15 15 15 15 15 14 14 14 14 14 14 14 14 14 14 14 15 15 14 14 14 13 13 13 13 13 13 12
17 17 17 17 16 16 16 16 16 15 15 15 15 16 16 15 15 15 15 15 14 14 14 15 14 14 14 14 14 14 15 14 14 14 14 14 13 12 13 13 12 12
16 16 16 17 17 16 16 16 16 16 16 16 16 16 16 16 16 16 15 15 14 14 14 14 14 14 14 14 14 14 14 14 14 14 14 14 13 12 12 12 12 12

ECMWFNIL_925_temp_063.txt.gz
Temp
19 19 19 19 18 19 19 18 18 18 18 17 17 17 17 17 17 17 17 17 17 17 18 18 17 17 17 17 17 17 16 16 17 17 17 18 18 18 18 18 18 18
19 19 19 19 19 19 19 18 18 18 18 17 17 17 17 17 17 17 17 17 17 17 17 17 17 17 17 17 17 17 17 17 17 17 17 17 17 17 17 18 18 18
19 19 19 19 19 19 19 19 18 18 18 17 17 17 17 17 17 17 17 17 17 17 17 17 17 17 17 17 17 17 17 17 17 17 17 17 17 17 17 17 18 18
19 19 19 19 19 19 19 19 18 18 18 18 17 17 17 17 17 17 17 17 17 17 17 17 17 17 17 17 17 17 17 17 17 17 17 17 17 17 17 17 17 18
19 19 19 19 19 19 19 19 18 18 18 17 17 17 17 17 17 17 17 17 17 17 17 17 17 17 17 17 17 17 17 17 17 17 17 17 17 17 17 17 17 18
19 19 19 19 19 19 19 19 18 18 18 17 17 17 17 17 17 17 17 17 17 17 17 17 17 17 17 17 17 17 17 17 17 17 17 17 17 17 17 17 17 17
19 19 19 19 19 19 19 18 18 18 18 17 17 17 17 17 17 17 17 17 17 17 17 17 17 17 17 17 17 17 17 17 17 17 17 17 17 17 17 17 17 17
18 18 18 19 19 19 19 18 18 18 18 17 17 17 17 17 17 17 17 17 17 17 17 17 17 17 17 17 17 17 17 17 17 17 17 17 17 17 17 17 17 17
17 17 18 18 18 18 18 18 18 18 18 17 17 17 17 17 17 17 17 17 17 17 17 17 17 17 17 17 17 17 17 17 17 17 17 17 17 17 17 17 17 17
17 17 17 18 18 18 18 18 18 18 18 17 17 17 17 17 17 17 17 18 18 17 17 17 17 17 17 17 17 17 17 17 17 17 17 16 16 17 17 17 16 16
17 17 17 17 17 17 17 17 18 18 18 17 17 17 17 17 18 18 18 18 18 18 18 18 17 17 17 17 17 17 17 17 17 17 17 16 16 16 16 16 16 16
17 17 17 17 16 16 16 16 17 17 17 18 17 17 17 18 18 18 18 18 18 18 18 18 17 17 17 17 17 17 17 17 16 16 16 16 16 16 16 16 16 16
17 17 16 16 16 15 16 16 16 17 17 17 18 18 18 18 18 18 18 18 18 18 17 17 17 17 17 16 16 16 16 16 16 16 16 16 16 16 16 16 16 16
16 16 16 16 16 15 16 17 16 16 17 17 18 18 18 18 18 18 18 18 18 18 17 17 17 17 17 16 17 17 16 16 16 16 16 16 16 16 16 16 16 16
14 14 15 15 16 15 15 16 16 16 16 17 17 18 18 18 18 18 18 18 17 17 17 17 17 17 16 16 17 17 16 15 16 16 15 15 15 15 15 15 15 15
14 14 14 15 15 14 15 15 15 15 15 17 17 17 18 18 18 18 18 17 17 17 17 17 17 16 16 16 16 16 16 15 15 16 15 15 14 14 14 14 14 14
14 14 15 15 15 15 15 16 16 15 15 16 17 16 17 18 18 17 17 17 17 17 17 16 16 16 16 16 16 15 15 15 16 15 15 15 14 14 14 14 14 14
14 14 14 15 15 15 14 14 15 15 15 16 16 16 16 17 17 17 17 17 17 17 16 16 16 16 16 16 16 15 15 15 15 15 15 15 15 15 15 14 14 14
13 13 13 14 15 15 14 13 13 14 15 15 15 15 16 16 16 16 16 16 17 16 16 16 16 15 15 15 16 15 15 15 15 15 15 15 15 15 14 14 14 13
13 13 12 13 14 14 14 13 13 13 14 14 14 15 15 16 16 16 16 16 16 16 16 15 15 15 15 15 15 15 15 15 15 15 14 14 14 14 14 14 14 13
13 13 13 12 13 13 13 12 13 13 14 14 14 14 15 15 15 15 16 16 16 16 16 15 15 15 15 15 15 15 15 15 15 15 14 14 14 14 14 14 14 13
14 13 13 13 12 12 12 12 13 13 14 14 14 14 14 15 15 15 15 15 16 16 15 15 15 14 15 15 15 15 15 14 14 15 15 14 14 14 14 14 14 13
14 13 13 13 13 13 13 13 13 13 13 14 14 14 14 15 15 15 14 15 15 15 15 15 14 14 14 15 15 15 15 14 14 14 14 14 14 14 14 13 13 13
15 14 13 13 14 14 14 14 14 14 14 14 14 14 14 14 14 14 14 14 14 14 14 14 14 14 14 14 14 14 15 14 14 14 14 14 14 13 13 13 13 13
15 15 14 14 14 14 14 14 14 14 14 14 14 14 14 14 14 14 14 14 14 15 14 14 14 14 14 14 14 14 14 14 14 14 14 14 13 13 13 13 13 13
14 14 15 14 14 15 15 15 14 15 14 14 14 14 15 14 14 14 15 14 14 15 14 14 14 14 14 14 14 14 14 13 13 14 14 14 13 13 13 13 12 12

ECMWFNIL_925_temp_066.txt.gz
Temp
19 19 18 18 18 18 18 18 18 18 17 17 17 17 17 17 17 18 18 18 17 17 17 17 17 17 17 17 17 17 17 17 18 18 18 18 18 18 18 18 18 17
19 19 19 18 18 18 18 18 18 18 17 17 17 17 17 17 17 17 17 17 17 17 17 17 17 16 16 16 16 17 17 17 17 18 18 18 18 18 18 18 18 18
19 19 19 18 18 18 18 18 18 18 17 17 17 17 17 17 17 17 17 17 17 17 17 17 17 16 16 16 16 17 17 17 17 17 17 17 18 18 18 18 18 18
19 19 19 18 18 18 18 18 18 17 17 17 17 17 17 17 17 17 17 17 17 17 17 17 17 16 16 16 16 16 17 17 17 17 17 17 17 18 18 18 18 18
19 19 19 18 18 18 18 18 17 17 17 17 17 17 17 17 17 17 17 17 17 17 17 17 17 16 16 16 16 17 17 17 17 17 17 17 17 17 18 18 18 18
19 19 19 18 18 18 18 18 17 17 17 17 17 17 17 17 17 17 17 17 17 17 17 17 17 17 17 17 17 17 17 17 17 17 17 17 17 17 17 18 18 18
19 19 19 18 18 18 18 18 18 17 17 17 17 17 17 17 17 17 17 17 17 17 17 17 17 17 17 17 17 17 17 17 17 17 17 17 17 17 17 17 18 18
18 19 19 18 18 18 18 18 18 17 17 17 17 17 17 17 17 17 17 17 17 17 17 17 17 17 17 17 17 17 17 17 17 17 17 17 17 17 17 17 17 17
18 18 18 18 18 18 18 18 18 17 17 17 17 17 17 17 17 17 17 17 17 17 17 17 17 17 17 17 17 17 17 17 17 17 17 17 17 17 17 17 17 17
17 17 17 17 18 18 18 18 18 17 17 17 17 17 17 17 17 17 17 17 17 17 17 17 17 17 17 17 17 17 17 17 17 17 17 17 17 17 17 17 17 17
16 16 17 17 17 18 18 18 18 17 17 17 17 17 17 17 17 17 17 17 17 17 17 17 17 17 17 17 17 17 17 17 17 17 17 17 17 17 17 17 17 17
16 16 17 17 17 17 17 17 17 17 17 17 17 17 17 17 17 17 17 17 17 17 17 17 17 17 17 17 17 17 17 17 17 17 16 16 16 16 16 16 16 17
16 16 16 16 17 17 17 17 17 17 17 17 17 17 17 17 17 17 17 17 17 17 17 17 17 17 17 17 17 17 17 17 16 16 16 16 16 16 16 16 16 16
15 16 16 16 16 16 16 17 17 17 17 17 17 17 17 17 17 17 17 17 17 17 17 17 17 17 17 17 17 17 17 16 16 16 16 16 16 16 16 16 16 16
15 15 16 16 16 16 16 17 17 17 17 16 17 17 17 17 17 17 18 17 17 17 17 17 17 17 17 17 17 17 17 17 16 16 16 16 16 16 15 16 16 16
15 15 16 16 16 16 16 17 17 16 16 16 17 17 17 17 17 17 17 17 17 17 17 17 17 17 17 17 17 17 17 17 16 16 16 15 15 15 15 15 15 15
15 15 15 16 16 16 16 16 16 16 16 16 16 16 16 17 17 17 17 18 17 17 17 17 17 17 17 17 17 17 17 16 16 16 15 15 14 14 14 14 14 14
15 15 15 15 15 15 16 16 16 16 16 16 16 16 16 17 17 17 17 17 17 17 17 17 17 17 17 17 17 17 16 16 16 15 15 14 14 14 14 13 13 14
15 14 15 15 15 15 15 15 15 15 16 16 16 16 16 16 16 17 17 17 17 17 17 17 17 17 17 17 16 16 16 16 15 15 15 14 14 14 13 13 13 13
14 14 14 14 14 14 14 14 15 15 15 15 15 15 15 15 16 16 16 16 16 16 16 17 17 17 17 16 16 16 16 15 15 15 14 14 14 14 13 13 13 13
13 13 13 13 13 13 13 13 13 14 14 14 14 14 15 15 16 16 16 16 16 16 16 16 16 16 16 16 16 16 15 15 15 15 14 14 14 14 14 13 13 13
13 13 13 12 12 12 12 13 13 13 13 13 14 14 15 15 15 15 15 16 16 16 16 16 16 16 16 16 15 15 15 14 15 14 14 14 15 14 14 13 13 13
13 13 13 12 12 12 12 12 13 13 13 13 13 13 14 14 15 15 15 15 15 15 15 15 15 15 15 15 15 14 14 14 14 14 14 14 14 14 14 13 13 13
12 13 13 13 13 12 12 12 12 13 13 13 13 13 13 14 14 14 14 15 15 15 15 14 14 14 15 14 14 13 14 14 14 14 14 14 14 14 13 13 13 13
12 13 13 13 13 13 12 12 13 13 13 13 14 13 14 14 14 14 14 14 14 15 14 14 14 14 14 14 13 13 14 14 14 14 13 13 13 13 12 12 12 12
13 13 13 13 13 13 13 13 13 13 13 13 13 13 13 14 14 14 14 13 13 14 14 14 14 14 14 13 13 13 13 14 14 14 14 13 13 13 12 12 12 12

ECMWFNIL_925_temp_069.txt.gz
Temp
18 18 18 18 18 18 18 18 18 17 17 17 17 17 17 17 17 17 17 17 17 17 17 16 16 16 16 17 17 17 18 18 18 18 18 18 18 18 17 17 17 17
18 18 18 18 18 18 18 18 18 17 17 17 17 17 17 17 17 17 17 17 17 17 17 16 16 16 16 16 17 17 17 17 17 17 18 18 18 18 18 18 17 17
18 18 18 18 18 18 17 17 17 17 17 17 17 17 17 17 17 17 17 17 17 17 17 16 16 16 16 16 17 17 17 17 17 17 17 18 18 18 18 18 18 17
18 18 18 18 18 18 17 17 17 17 17 17 17 17 17 17 17 17 17 17 17 17 16 16 16 16 16 16 17 17 17 17 17 17 17 17 18 18 18 18 18 18
18 18 18 18 18 18 18 18 17 17 17 17 17 17 17 17 17 17 17 17 17 17 16 16 16 16 16 16 17 17 17 17 17 17 17 17 18 18 18 18 18 18
18 18 18 18 18 18 18 18 17 17 17 17 17 17 16 17 17 17 17 17 17 17 16 16 16 16 16 16 16 17 17 17 16 17 17 17 17 18 18 18 18 18
18 18 18 18 18 18 18 18 17 17 17 17 17 17 16 16 17 17 17 17 17 17 16 16 16 16 16 16 16 16 17 17 17 17 17 17 17 17 17 18 18 18
17 18 18 18 18 18 18 18 18 17 17 17 17 17 16 16 16 17 17 17 17 17 17 16 16 16 16 16 17 17 17 17 17 17 17 17 17 17 17 17 17 17
17 18 18 18 18 18 18 18 18 17 17 17 17 17 16 16 16 17 17 17 17 17 17 17 17 16 17 17 17 17 17 17 17 17 17 17 17 17 17 17 17 17
17 17 18 18 18 18 18 18 17 17 17 17 17 17 16 16 16 17 17 17 17 17 17 17 17 17 17 17 17 17 17 17 17 17 17 17 17 17 17 17 17 17
17 17 17 18 17 18 18 18 17 17 17 17 17 17 16 16 17 17 17 17 17 17 17 17 17 17 17 17 17 17 17 17 17 17 17 17 17 17 17 16 16 17
16 17 17 17 18 18 18 17 17 17 17 17 17 17 16 16 17 17 17 17 17 17 17 17 17 17 17 17 17 17 17 17 17 17 17 17 17 17 16 16 16 16
16 16 16 17 17 17 17 17 17 17 17 17 17 17 16 17 17 17 17 17 17 17 17 17 17 17 17 17 17 17 17 17 17 17 17 17 16 16 16 16 16 16
15 15 16 16 16 17 17 17 17 17 17 17 17 17 17 17 17 17 17 17 17 17 17 17 17 17 17 17 17 17 17 17 17 16 16 16 16 16 16 16 16 16
15 15 15 15 16 16 16 17 17 17 17 17 17 17 17 17 17 17 17 17 17 17 17 17 17 17 17 17 17 17 16 16 16 16 16 16 16 16 16 16 16 16
15 15 15 15 15 16 16 16 16 17 17 17 17 17 17 17 17 17 17 17 17 17 17 17 17 17 17 17 17 17 17 16 16 16 16 16 16 16 16 16 16 15
15 15 15 15 15 15 16 16 16 16 17 17 17 17 17 17 17 17 17 17 17 17 17 17 17 17 17 17 17 17 17 16 16 16 16 16 16 16 16 15 15 15
14 15 15 15 15 15 15 16 16 16 16 17 17 16 16 17 17 17 17 17 17 17 17 17 17 17 17 17 16 16 16 16 16 16 16 16 16 16 15 15 14 14
13 14 14 14 14 15 15 15 15 15 16 16 16 16 16 17 17 17 17 17 17 17 17 17 17 17 17 16 16 16 16 16 16 16 16 16 16 15 15 14 14 14
12 12 13 13 13 13 14 14 14 15 15 16 16 16 16 16 17 17 16 16 16 17 17 17 17 17 16 16 16 16 16 16 16 16 16 16 15 15 14 14 14 13
12 12 12 12 12 13 13 13 13 14 14 14 15 15 15 15 16 16 16 16 16 16 16 16 16 16 16 16 16 16 16 15 15 16 15 15 15 15 14 14 13 13
11 12 12 12 12 12 12 12 12 13 13 14 14 14 14 14 14 14 14 15 15 15 16 16 16 16 16 16 16 16 15 15 15 15 15 15 14 14 14 13 13 13
11 11 11 11 12 12 12 12 12 12 12 13 13 14 14 14 14 14 14 15 15 15 15 14 15 15 16 16 15 15 15 15 15 15 14 14 14 14 13 13 13 13
11 11 11 11 11 11 11 11 11 12 12 12 13 13 14 14 14 14 14 14 15 15 14 13 13 15 16 15 15 15 14 14 14 14 14 14 14 14 13 13 13 13
11 11 11 11 11 11 11 11 11 11 12 12 12 13 13 13 13 13 13 14 14 14 14 13 13 15 15 15 15 15 14 14 14 14 13 14 14 14 13 13 13 13
10 11 11 11 11 11 11 12 12 12 12 12 12 12 13 13 13 13 13 13 14 14 14 14 14 14 15 14 14 14 14 13 13 13 13 13 14 14 13 13 12 12

ECMWFNIL_925_temp_075.txt.gz
Temp
17 17 17 17 17 17 17 17 17 17 17 17 17 17 17 17 17 17 17 17 16 16 16 16 16 16 17 17 17 17 18 18 18 18 18 17 17 17 16 16 16 15
17 17 17 17 17 17 17 17 17 17 17 17 17 17 17 17 17 17 16 16 16 16 16 16 16 16 17 17 17 18 18 18 18 18 18 17 17 17 16 16 16 15
18 18 17 17 17 17 17 17 17 17 17 17 17 17 17 17 17 16 16 16 16 16 16 16 16 16 17 17 17 17 18 18 18 18 18 18 17 17 17 16 16 15
18 18 18 18 18 18 18 17 17 17 17 17 17 17 17 17 17 16 16 16 16 16 16 16 16 16 16 17 17 17 17 18 18 18 18 18 18 17 17 16 16 16
17 18 18 18 18 18 18 17 17 17 17 17 17 17 17 17 16 16 16 16 16 16 16 16 16 16 16 16 17 17 17 17 17 18 18 18 18 17 17 16 16 16
17 17 18 18 18 18 18 17 17 17 17 17 17 17 17 17 16 16 16 16 16 16 16 16 16 16 16 16 17 17 17 17 17 17 18 18 18 17 17 16 16 16
17 17 17 18 18 18 17 17 17 17 17 17 17 17 17 17 16 16 16 16 16 16 16 15 16 16 16 16 17 17 17 17 17 17 18 18 17 17 17 16 16 16
17 17 17 17 18 17 17 17 17 17 17 17 17 17 17 17 17 16 16 16 16 16 16 15 16 16 16 16 16 16 16 17 17 17 18 17 17 17 17 17 16 16
17 17 17 17 17 17 17 17 17 17 17 17 17 17 17 17 17 17 16 16 16 16 16 16 16 16 16 16 16 16 16 16 16 17 17 17 17 17 17 17 17 17
17 17 17 17 17 17 17 17 17 17 17 17 17 16 16 16 17 16 16 16 16 16 16 16 16 16 16 16 16 16 16 16 16 17 17 17 17 17 17 17 17 17
17 17 17 17 17 17 17 17 17 17 17 16 16 16 16 16 16 16 16 16 16 16 16 16 16 16 16 16 16 16 16 16 17 17 17 17 17 17 17 17 17 17
16 16 16 16 16 17 17 17 17 17 17 16 16 16 16 16 16 16 16 16 16 16 16 16 16 16 16 16 16 16 16 17 17 17 17 17 17 17 17 17 17 17
15 15 15 16 16 17 17 17 17 17 17 17 16 16 16 16 16 16 16 16 16 16 16 16 16 16 16 16 16 16 16 17 17 17 16 16 16 16 16 16 17 17
15 14 14 15 15 15 16 16 17 17 17 17 16 16 16 16 16 16 16 16 16 16 16 16 16 16 16 16 16 16 16 17 17 17 16 16 16 16 16 16 16 16
14 13 14 14 14 14 15 15 16 16 16 16 16 16 16 16 16 16 16 16 16 16 16 16 16 16 16 17 17 16 16 17 17 17 16 16 16 16 16 16 16 16
13 13 13 13 13 14 14 15 15 15 16 16 16 16 16 16 16 16 16 16 16 16 16 16 16 16 17 16 17 17 16 17 17 17 16 16 16 16 16 16 16 16
12 13 13 13 13 14 14 14 14 14 15 15 16 16 16 16 16 16 16 16 16 16 16 16 16 16 16 16 16 16 16 16 16 16 16 16 16 16 16 16 16 16
12 13 13 13 13 13 13 13 14 14 14 15 15 15 16 16 16 16 16 16 16 16 16 16 16 16 16 16 16 16 16 16 16 16 16 16 16 16 16 16 16 16
12 12 12 12 12 13 13 13 14 14 14 14 15 15 15 15 15 15 16 16 16 16 16 16 16 16 16 16 16 16 16 16 16 16 16 16 16 16 16 16 16 16
12 12 12 12 12 12 12 13 13 13 13 13 14 14 15 15 15 15 15 15 16 16 16 16 16 16 16 16 16 16 16 16 15 16 16 16 16 16 16 16 16 16
11 11 11 11 12 12 12 12 12 12 13 13 13 14 14 14 14 14 15 15 15 15 16 16 16 16 16 16 15 15 16 16 15 15 15 15 16 16 16 16 15 15
11 11 11 11 12 12 12 12 12 12 12 13 13 13 14 14 14 14 14 14 14 15 15 15 15 16 15 15 15 15 15 15 15 15 15 15 15 15 15 15 15 15
11 11 11 12 12 12 12 12 12 12 12 13 13 13 13 14 14 14 14 14 14 14 14 14 15 15 15 15 15 15 15 15 14 14 14 14 14 14 15 15 15 15
11 11 11 12 12 12 12 12 12 12 12 12 12 13 13 13 13 13 13 13 13 13 13 14 14 14 14 14 14 15 14 14 14 13 13 14 14 14 14 14 14 14
11 11 11 11 11 11 11 11 11 11 11 11 12 12 12 12 12 12 12 12 13 13 13 13 13 13 13 13 14 14 14 13 13 12 12 13 13 13 13 13 13 14
10 10 10 10 11 11 11 11 11 11 11 12 12 12 12 12 12 12 12 12 12 12 12 13 12 12 13 13 12 13 12 12 12 11 12 13 13 13 13 13 13 13

ECMWFNIL_925_temp_078.txt.gz
Temp
17 17 17 17 18 17 17 17 17 18 18 18 19 18 18 18 17 17 17 17 17 17 17 17 17 17 17 17 17 18 18 18 18 17 17 17 18 17 17 17 17 18
17 17 17 17 17 17 17 17 17 18 18 18 19 18 18 17 17 17 17 17 17 17 17 17 17 17 17 17 17 18 18 18 18 17 17 17 17 17 17 17 17 17
17 17 17 17 17 17 17 17 17 18 18 18 18 18 17 17 17 17 17 17 17 17 17 17 17 17 17 17 17 18 18 18 18 18 17 17 17 17 17 17 17 17
17 17 17 17 17 17 17 17 17 18 18 18 17 17 17 17 17 17 17 17 17 17 17 17 17 17 17 17 18 18 18 18 18 18 18 18 17 17 17 17 17 17
17 17 18 18 18 17 17 17 17 18 18 17 17 17 17 17 17 17 17 17 17 17 17 17 17 17 17 17 18 18 18 18 18 18 18 18 18 17 17 17 17 17
17 18 18 18 18 17 17 17 17 18 17 17 17 17 17 17 17 17 17 17 17 17 17 17 17 17 17 17 18 18 18 18 18 18 18 18 18 18 17 17 17 17
17 18 18 18 17 17 17 17 17 18 17 17 17 17 17 17 17 17 17 17 17 17 17 17 17 17 17 17 17 18 18 18 18 18 19 18 18 18 18 18 18 18
17 17 17 17 17 17 17 18 17 17 17 17 17 17 17 17 17 17 17 17 17 17 17 17 17 17 17 17 17 17 17 18 18 19 19 18 18 18 18 18 18 18
17 17 17 17 17 17 18 18 18 17 17 17 17 17 17 17 18 17 17 18 17 17 17 17 17 17 17 17 17 17 17 18 18 18 18 18 18 19 18 18 18 18
17 17 17 17 17 17 17 18 18 17 17 17 17 17 17 17 17 17 17 18 17 18 18 18 17 17 17 18 18 18 18 18 18 18 18 18 19 19 19 18 18 18
17 16 17 17 17 17 17 17 17 17 17 17 17 17 17 17 17 17 18 18 18 18 18 18 18 18 18 18 18 18 18 18 18 18 18 18 18 18 19 19 18 18
16 16 16 17 17 17 17 17 17 17 17 17 17 17 17 17 17 17 18 18 18 18 18 18 18 18 18 18 18 18 18 18 18 18 18 18 18 18 18 18 18 18
15 15 16 16 16 16 16 16 16 16 17 17 17 17 17 17 17 17 18 18 18 18 18 18 18 18 18 18 18 18 18 18 18 18 18 18 18 18 18 18 18 18
14 14 15 15 15 15 16 16 16 16 17 17 17 17 17 17 18 17 18 18 18 18 18 18 18 18 18 18 18 18 18 18 17 17 17 17 17 17 17 17 18 18
14 14 15 15 14 15 15 15 16 16 16 16 17 17 17 17 18 18 18 18 18 18 18 18 18 18 18 17 18 18 17 17 17 17 17 17 17 17 17 17 17 17
13 13 14 13 13 14 14 15 15 16 16 16 17 17 17 17 18 17 18 18 18 18 17 17 17 17 17 17 17 17 17 17 17 17 17 17 17 17 17 17 17 17
13 13 13 13 13 13 14 14 15 15 16 16 16 17 17 17 17 17 17 17 18 18 17 16 16 16 17 17 16 17 17 16 16 17 17 17 17 17 17 17 17 17
14 13 13 12 13 13 13 13 13 14 15 15 15 16 16 16 17 17 17 17 17 17 17 16 16 16 17 16 16 16 16 16 16 17 17 17 17 17 17 17 17 17
14 14 13 13 13 12 13 13 13 13 14 14 14 15 15 16 16 16 16 16 17 17 17 16 16 16 16 16 16 16 16 16 16 17 17 17 17 17 17 17 17 17
14 14 14 14 13 13 12 13 13 13 13 14 14 14 14 14 15 15 16 16 16 16 17 16 16 16 16 16 16 16 16 16 16 16 16 16 16 16 17 17 17 17
13 14 14 14 13 13 13 12 13 13 13 13 14 14 14 14 14 14 15 15 15 15 16 15 15 16 16 16 16 16 16 16 16 15 15 16 16 16 16 16 16 17
12 13 13 14 13 13 13 13 13 13 13 13 13 13 13 13 13 14 14 14 15 15 15 15 15 15 15 15 16 16 16 16 15 15 15 15 16 16 15 16 16 16
12 12 12 13 13 13 12 12 12 12 12 13 13 13 13 13 13 13 13 14 14 14 14 14 14 14 15 15 15 15 15 15 15 15 15 15 16 16 15 16 16 15
12 12 12 12 13 12 12 12 12 12 12 13 13 13 13 13 14 13 13 13 13 13 14 14 13 13 14 14 14 14 15 14 14 14 15 15 15 15 15 15 15 15
11 11 12 12 12 12 12 12 12 12 13 13 13 13 13 13 13 14 13 13 12 12 12 13 13 13 13 13 14 14 14 13 13 14 15 15 15 15 15 15 15 14
11 11 11 12 12 12 12 12 12 13 13 13 13 14 14 13 13 13 13 12 12 12 12 12 12 12 13 13 13 13 13 12 13 14 14 14 15 15 15 15 14 14

ECMWFNIL_925_temp_081.txt.gz
Temp
17 17 17 16 16 17 17 17 17 19 19 20 20 19 19 19 19 19 19 19 19 19 18 18 18 18 18 18 19 19 19 18 18 18 18 18 18 18 18 18 18 18
17 17 17 17 17 17 17 17 18 19 19 19 19 19 19 19 19 19 19 19 19 18 18 18 18 18 19 19 19 20 19 19 19 18 18 18 18 18 18 18 18 18
17 17 17 17 17 16 17 18 18 19 19 19 19 19 19 19 19 19 19 19 19 18 18 18 18 19 19 19 19 20 19 19 19 19 18 18 18 18 18 18 18 18
17 17 17 17 17 17 18 18 18 19 19 19 19 19 18 18 19 19 18 19 18 18 18 18 18 19 19 19 19 19 19 19 19 19 19 19 19 18 18 18 18 18
18 17 17 17 18 18 18 18 18 18 18 18 18 18 18 18 19 19 18 18 18 18 18 18 18 19 19 19 19 19 19 19 19 19 19 19 19 19 18 18 18 18
18 18 18 18 18 18 18 19 19 19 18 18 18 18 18 18 19 19 18 18 18 18 18 18 18 18 19 19 19 19 19 19 19 20 20 20 19 19 19 18 18 18
18 18 19 19 19 19 19 19 19 19 19 18 18 18 18 18 19 19 18 19 19 19 19 18 18 18 19 19 19 19 19 19 20 20 20 20 20 19 19 19 18 18
18 18 19 19 19 19 19 19 19 19 19 18 18 18 18 18 19 19 19 19 19 19 19 19 18 18 19 19 19 19 19 19 20 20 20 20 20 19 19 19 19 19
17 17 18 19 19 19 19 19 19 19 19 19 18 18 18 18 19 19 19 19 19 19 19 19 19 19 19 19 19 19 19 19 20 20 19 19 20 20 20 19 19 19
15 16 17 19 19 19 19 19 19 19 19 19 19 18 18 18 18 19 19 19 19 19 19 19 19 19 19 19 19 19 19 19 19 19 19 20 20 20 20 20 19 19
15 16 17 18 19 19 19 19 18 18 18 19 19 18 18 19 18 19 19 19 19 19 19 19 19 19 19 19 19 19 19 19 19 19 20 20 20 20 20 20 19 19
16 16 16 18 19 19 19 19 18 18 18 19 18 18 18 19 19 19 19 19 19 20 20 19 19 19 19 19 19 19 19 19 19 19 20 20 20 20 20 20 19 19
16 16 16 16 18 18 18 18 18 18 19 19 18 19 18 18 19 19 19 19 20 20 20 20 20 20 20 19 19 19 19 19 19 19 19 19 19 20 19 19 19 19
15 15 16 16 17 17 18 18 18 18 19 19 18 19 18 19 19 19 19 20 20 20 20 20 20 20 20 20 20 19 19 19 19 19 19 19 19 19 19 19 19 19
15 15 16 16 16 17 17 18 18 18 18 18 18 18 19 19 19 19 19 19 20 20 20 20 20 19 19 19 19 19 19 19 19 19 19 19 19 19 19 19 19 19
14 15 15 15 15 16 17 17 18 18 18 18 18 18 19 19 19 19 19 19 20 20 19 19 19 19 18 18 18 19 19 19 19 19 19 19 19 19 18 18 19 18
14 14 14 14 14 15 16 16 17 17 18 18 18 18 18 19 19 19 19 19 19 19 19 18 18 17 18 18 18 18 18 18 18 18 18 18 18 18 18 18 18 18
13 13 13 13 14 14 15 15 16 16 17 17 17 18 18 18 19 19 19 19 19 19 18 18 17 17 17 17 17 17 17 17 18 18 18 18 18 18 18 18 18 18
13 13 13 13 13 14 14 15 15 15 16 16 16 16 17 18 18 18 18 19 19 19 18 18 17 17 17 17 17 17 17 17 17 18 18 18 18 18 18 18 18 17
14 13 13 13 13 13 14 14 15 14 14 15 15 15 16 16 16 17 17 17 18 18 18 17 17 17 17 17 17 17 17 17 16 17 18 18 18 18 18 17 16 16
15 14 14 13 13 13 13 13 13 13 13 14 14 15 15 15 15 15 16 16 16 17 17 16 16 16 16 16 16 16 16 16 16 16 17 17 17 17 17 16 16 17
14 14 14 14 14 14 13 13 13 13 13 13 14 14 14 15 15 15 15 15 15 16 16 15 16 16 16 16 16 16 16 16 16 16 16 17 17 17 17 17 16 16
13 13 13 13 14 14 14 14 13 13 13 13 14 14 14 14 15 15 14 14 15 15 15 15 15 15 15 16 16 16 16 16 16 16 16 17 16 17 17 17 16 16
14 13 13 13 13 13 13 13 13 13 13 13 13 14 14 14 14 14 14 14 14 14 14 14 14 14 14 15 15 15 15 15 15 16 16 16 16 16 16 17 16 15
14 14 14 13 13 13 13 13 13 13 13 13 14 14 13 13 13 14 14 14 14 14 14 13 13 14 14 14 14 14 14 14 14 15 15 16 16 16 16 16 15 14
14 14 14 14 14 14 13 13 13 13 13 13 13 13 13 13 13 13 13 13 13 13 13 13 13 13 13 13 13 14 14 14 14 14 15 15 15 15 15 14 14 13

ECMWFNIL_925_temp_084.txt.gz
Temp
17 17 17 18 18 18 18 18 18 18 18 19 19 19 18 18 19 19 19 19 19 19 19 19 19 19 19 19 19 19 19 18 18 18 18 18 18 18 18 18 18 18
17 17 17 18 18 18 18 18 18 19 19 19 19 19 19 19 19 19 19 19 19 18 18 18 18 19 19 19 19 19 19 18 18 18 18 18 18 18 18 18 18 18
17 16 17 17 18 18 18 18 18 19 19 19 19 19 19 19 19 19 19 19 18 18 18 19 19 19 19 19 19 19 19 19 19 18 18 18 18 18 17 18 18 18
16 17 17 17 18 18 18 18 18 19 19 19 19 19 19 19 19 19 19 19 18 18 18 19 19 19 19 19 20 19 19 19 19 19 19 18 18 18 17 18 18 18
17 17 17 17 17 17 18 18 18 18 19 19 19 19 19 19 19 19 19 18 18 18 18 19 19 19 19 19 20 19 19 19 19 19 19 19 18 18 18 18 18 18
17 17 17 17 18 18 18 18 18 18 19 19 19 18 19 19 19 19 18 18 18 18 18 18 19 19 19 19 19 19 19 19 19 20 19 19 19 19 18 18 18 19
17 17 17 17 18 18 18 18 18 18 18 18 18 18 19 19 19 19 18 18 18 18 18 18 19 19 19 19 19 19 20 19 20 20 20 19 19 19 19 18 18 18
17 17 18 17 18 18 18 18 18 18 18 18 18 18 19 19 19 19 19 19 19 19 18 18 19 19 19 19 19 19 20 20 20 20 20 20 19 19 19 19 19 18
17 18 18 18 18 18 18 19 19 19 18 18 18 18 19 19 19 19 19 19 19 19 19 19 19 19 19 19 19 19 20 20 20 20 20 19 20 19 19 19 19 18
18 18 18 18 18 19 19 19 19 19 19 19 18 18 19 19 19 19 19 19 19 19 19 19 19 19 19 19 19 19 20 20 19 19 19 20 20 20 20 19 19 18
18 18 18 18 19 19 19 19 19 19 19 19 19 19 19 19 19 19 19 19 19 19 19 19 19 19 19 19 19 19 19 19 19 19 20 20 20 20 20 19 19 19
18 18 18 18 19 19 19 19 19 19 19 19 19 19 19 19 19 19 19 19 19 20 19 19 19 19 19 19 19 19 19 19 19 20 20 20 20 20 20 19 19 19
17 18 18 18 18 19 19 18 18 19 19 19 19 19 19 19 19 19 19 20 20 20 20 19 19 20 19 19 19 19 19 19 19 19 20 20 20 20 19 19 19 19
17 17 18 18 18 19 19 18 18 19 19 19 19 19 19 19 19 19 19 20 20 20 20 20 20 20 19 19 19 19 19 19 19 19 19 19 20 20 19 19 19 19
16 17 17 17 18 18 18 18 18 19 19 19 19 19 19 19 19 19 19 20 20 20 20 20 19 19 19 19 19 19 19 19 19 19 19 19 19 19 19 19 19 19
15 16 16 17 17 18 18 18 18 19 19 19 19 19 19 19 19 19 19 20 20 20 20 19 18 18 19 19 19 19 19 19 19 19 19 19 19 19 19 19 18 18
15 15 16 16 17 17 18 18 18 18 19 19 19 19 19 19 19 19 19 20 20 20 19 18 18 18 18 18 18 18 18 19 18 18 18 18 18 18 18 18 17 17
14 14 15 15 16 17 17 17 18 18 18 18 18 18 19 19 19 19 19 20 20 19 18 18 18 18 18 18 18 18 18 18 17 17 18 18 17 17 16 15 15 16
14 13 14 14 15 16 16 17 17 17 17 17 17 18 18 18 19 19 19 19 19 19 18 17 17 17 17 17 18 17 17 17 17 17 17 17 17 16 15 15 15 16
13 13 13 14 15 15 15 16 16 16 16 17 17 17 17 18 18 18 18 18 18 17 17 17 17 17 17 17 17 17 17 17 17 17 17 17 17 16 16 16 16 16
13 13 13 14 14 14 14 14 15 15 16 16 16 16 16 17 17 17 17 16 16 16 16 16 16 16 17 17 17 17 17 17 17 17 17 17 16 17 16 16 16 16
13 13 12 13 13 13 13 14 14 14 14 15 15 15 15 16 16 16 16 16 16 16 16 16 16 16 16 16 16 16 16 17 17 17 17 17 17 17 17 17 16 16
13 13 13 13 13 13 13 13 13 14 14 14 14 15 15 15 15 16 15 15 16 16 16 16 15 15 16 16 16 16 16 16 16 16 16 16 17 16 16 16 16 16
13 13 13 13 13 13 13 13 14 14 14 14 14 14 14 14 14 15 15 15 15 15 15 15 15 15 15 15 15 15 16 16 15 15 15 16 16 16 16 16 16 15
13 13 13 13 13 13 13 13 13 13 13 13 13 14 14 14 14 14 14 14 14 14 14 14 14 14 15 15 15 15 15 15 15 15 15 15 15 15 15 15 15 15
13 13 13 13 13 13 13 13 13 13 13 13 13 13 13 13 14 14 13 13 14 14 14 14 14 14 14 14 14 14 14 14 14 14 14 14 14 14 15 14 14 13

ECMWFNIL_925_temp_087.txt.gz
Temp
15 16 17 18 18 18 17 18 18 18 18 18 18 18 18 18 18 18 18 18 19 19 19 19 19 19 19 18 18 18 18 18 18 18 17 17 17 17 17 17 18 18
15 15 16 18 18 17 18 18 18 18 18 18 18 18 18 18 18 18 18 19 19 19 19 19 19 19 19 18 18 18 18 18 18 18 18 17 17 17 17 17 18 18
16 16 16 17 18 17 18 18 18 18 18 18 18 18 18 18 18 18 19 19 18 18 18 19 19 19 19 19 18 18 18 18 18 18 18 18 17 17 17 18 18 17
17 17 16 17 18 18 18 18 18 18 18 18 18 18 18 18 18 18 18 18 18 18 18 18 19 19 19 19 19 18 18 18 18 18 18 18 18 18 18 18 18 17
17 17 17 17 17 18 18 18 18 18 18 19 19 18 18 18 18 18 18 18 18 18 18 18 19 19 19 19 19 18 18 18 18 18 18 18 18 18 18 18 18 18
16 16 17 17 17 18 18 18 18 18 19 19 19 18 19 19 18 18 18 18 18 18 18 19 19 19 19 19 19 19 19 19 18 18 18 18 18 18 18 18 18 18
16 16 16 17 18 18 18 18 18 18 19 19 19 18 18 18 18 18 18 18 18 18 18 19 19 19 19 19 19 19 19 19 19 18 18 18 18 18 18 18 18 18
16 16 17 17 18 18 18 18 18 18 18 18 18 18 18 18 18 18 18 18 18 18 18 19 19 19 19 19 19 19 19 19 19 19 19 18 18 18 18 18 18 18
17 17 17 17 18 18 18 18 18 18 18 18 18 18 18 18 18 18 18 18 18 18 18 19 19 19 19 19 19 19 19 19 19 19 19 19 18 18 18 18 18 18
17 17 17 17 18 18 18 18 18 18 18 18 18 18 18 18 18 18 18 18 18 18 18 18 19 19 19 19 19 19 19 19 19 19 19 19 19 18 18 18 18 18
17 17 17 17 18 18 18 18 18 18 18 18 18 18 18 18 19 19 19 19 18 18 18 18 18 19 19 19 19 19 19 19 19 19 19 19 19 19 19 18 18 18
17 17 17 17 18 18 18 18 18 18 18 18 18 18 18 19 19 19 19 19 19 19 18 18 18 19 19 19 19 19 19 19 19 19 19 19 19 19 19 18 18 18
17 17 17 18 18 18 18 18 18 18 18 18 18 18 19 19 19 19 19 19 19 19 19 19 19 19 19 19 19 19 19 19 19 19 19 19 19 19 19 18 18 18
17 17 18 18 18 18 18 19 18 18 18 18 18 18 19 19 19 19 19 19 19 19 19 19 19 19 19 19 19 19 19 19 19 19 19 19 19 19 18 18 18 18
16 16 17 18 18 18 18 19 18 18 18 18 18 18 18 19 19 19 19 19 19 19 19 19 19 19 19 19 19 19 19 19 19 19 19 18 18 18 18 17 18 18
15 15 16 17 18 18 18 18 18 18 18 18 18 18 19 19 19 19 19 19 19 19 18 18 18 18 19 19 19 19 19 19 19 18 18 18 17 17 17 17 17 17
14 16 17 17 18 18 18 18 18 18 18 18 18 18 19 19 19 19 19 19 19 18 18 18 18 18 18 18 19 18 18 18 18 18 18 18 17 17 17 17 17 17
15 15 16 17 18 18 18 18 18 18 18 18 18 19 19 19 19 19 18 18 18 18 18 17 17 17 17 18 18 18 18 18 17 17 17 17 17 17 17 17 17 17
15 15 15 16 17 17 17 18 18 18 18 18 18 18 19 19 18 18 18 18 18 17 17 17 17 17 17 17 17 17 17 17 17 17 17 17 17 17 17 17 17 17
14 14 15 15 15 16 16 17 17 17 17 17 17 18 18 18 18 17 17 17 17 17 17 17 17 17 17 17 17 17 17 17 17 17 17 17 17 17 17 17 17 17
13 14 14 14 15 15 15 15 16 16 16 16 17 17 17 17 17 17 17 17 17 17 17 17 16 16 17 17 17 17 17 17 16 16 17 17 16 17 16 16 16 16
13 13 13 13 14 14 14 14 15 16 16 16 16 16 16 16 16 16 16 16 16 17 17 16 16 16 16 16 17 17 16 16 16 16 16 16 16 16 16 16 16 16
12 13 13 13 13 13 13 13 14 15 15 16 15 15 15 15 15 16 16 16 16 16 16 16 16 16 16 16 16 16 16 16 16 16 16 16 16 16 16 16 15 15
12 12 13 13 13 13 13 13 13 14 14 15 15 15 15 15 15 15 15 16 16 16 16 16 15 15 15 16 16 16 16 16 16 16 15 15 15 15 15 15 14 14
12 12 12 12 13 13 13 13 13 13 14 14 14 14 14 14 14 14 14 14 14 14 15 15 15 14 14 14 15 15 15 15 15 15 15 14 14 14 14 14 14 14
11 12 12 12 12 12 13 13 13 13 13 14 14 14 14 14 14 14 14 13 13 13 14 14 14 14 13 13 14 14 14 14 14 14 14 13 13 13 13 13 12 12

ECMWFNIL_925_temp_090.txt.gz
Temp
17 17 17 17 17 17 16 15 16 17 17 17 17 18 17 17 17 17 18 18 18 18 18 18 18 18 18 18 17 17 17 17 17 17 17 17 17 17 17 17 17 18
17 16 17 17 17 17 17 16 16 17 17 17 18 18 18 18 18 18 18 18 18 18 18 18 18 18 18 18 18 18 17 17 17 17 17 17 17 17 17 17 17 18
17 16 16 16 16 18 18 16 16 17 18 18 18 18 18 18 18 18 18 18 18 18 19 18 18 18 18 18 18 18 18 17 17 17 17 17 17 17 17 17 17 17
16 16 17 16 17 18 18 17 17 18 18 17 18 18 18 18 18 18 18 18 18 18 19 19 18 18 18 18 18 18 18 18 18 17 17 17 17 17 17 17 17 17
16 16 17 16 16 17 17 17 17 18 17 17 18 18 18 18 18 18 18 18 18 18 18 18 18 18 18 18 18 18 18 18 17 17 17 17 17 17 17 17 17 17
16 16 17 16 16 16 17 17 18 18 18 18 18 18 18 18 18 18 18 18 18 18 18 18 18 18 18 18 18 18 18 18 17 17 17 17 17 17 17 17 17 17
16 16 17 17 16 16 17 17 17 17 17 17 18 18 18 18 18 18 18 18 18 18 18 18 18 18 18 18 18 18 18 18 18 18 17 17 17 17 17 17 17 17
15 16 16 16 16 17 17 17 17 17 16 17 17 17 18 18 18 18 18 18 18 18 18 18 18 19 18 18 18 18 18 18 18 18 17 17 17 17 17 17 17 17
15 16 16 16 16 17 17 17 17 17 17 17 17 17 18 18 18 18 18 18 18 18 18 18 19 19 19 18 19 18 18 18 18 18 18 18 17 17 17 17 18 18
15 16 15 15 17 17 17 18 17 17 17 18 18 17 18 18 18 18 18 18 18 18 18 19 19 19 19 19 19 19 18 18 18 18 18 18 18 18 17 18 18 18
15 15 15 15 16 17 17 17 16 16 17 17 17 18 18 18 18 18 18 18 18 18 18 19 19 19 19 19 19 19 19 19 19 18 18 18 18 18 18 18 18 17
14 15 15 16 17 17 17 16 15 16 17 17 18 18 18 18 18 18 18 18 18 18 18 19 19 19 19 19 19 19 19 19 19 18 18 18 18 18 18 18 17 17
14 14 15 16 17 17 17 16 16 17 17 17 18 18 18 18 18 18 18 18 18 18 18 18 19 19 19 19 19 19 19 19 19 19 18 18 18 18 18 18 17 17
14 14 15 17 17 17 17 17 17 18 18 18 18 18 18 18 18 18 18 18 18 18 18 18 18 19 19 19 19 19 19 19 19 19 18 18 18 18 18 18 18 18
14 15 15 16 16 16 17 17 18 18 18 18 18 18 18 18 18 18 18 18 18 18 18 18 18 18 19 19 19 19 19 19 19 18 18 18 18 18 18 18 18 18
14 15 15 15 15 16 17 17 17 18 18 18 18 18 18 18 19 19 19 18 18 18 18 18 18 18 18 19 19 19 19 18 18 18 18 18 18 17 17 18 18 18
14 14 15 15 15 16 16 16 17 18 18 18 18 18 18 18 19 18 18 18 18 18 18 18 18 18 18 18 19 19 18 18 18 18 18 18 18 17 17 17 17 17
14 14 14 14 15 15 15 15 17 18 18 18 18 18 18 18 18 18 18 18 18 18 18 18 18 18 18 18 18 18 18 18 17 17 17 17 17 17 17 17 17 17
14 14 14 14 15 15 15 15 17 18 18 18 18 18 18 18 18 17 17 17 18 18 18 18 18 17 17 18 18 18 18 17 17 17 17 17 17 17 17 17 17 16
14 14 14 14 14 15 15 16 18 18 18 18 18 17 17 17 17 17 17 17 17 17 17 17 17 17 17 17 17 17 17 17 17 17 17 17 17 17 17 17 16 16
14 14 14 14 14 15 15 15 16 17 17 18 17 17 17 17 17 17 17 17 17 17 17 17 17 16 16 17 17 17 17 17 17 17 17 16 16 16 16 16 16 16
13 13 13 14 14 14 15 14 14 14 16 17 17 16 16 16 16 16 17 17 17 17 17 17 16 16 16 17 17 17 17 17 17 16 16 16 16 16 16 16 16 15
12 12 12 13 14 14 14 14 13 13 14 15 15 15 15 15 16 16 16 16 16 16 16 16 16 16 16 16 17 17 17 17 16 16 16 16 16 15 16 15 15 15
12 12 12 12 13 13 13 13 14 13 14 14 15 14 14 15 15 15 15 15 15 15 16 16 15 15 15 16 16 16 17 16 16 15 15 15 15 15 15 15 14 14
11 12 12 12 12 13 13 13 13 13 14 14 14 14 14 14 14 14 14 13 13 14 14 15 15 15 15 15 15 15 15 15 15 15 15 14 14 14 14 14 13 13
11 11 12 12 12 12 12 13 13 13 14 14 14 14 14 13 14 14 13 13 13 13 13 14 14 14 14 14 14 15 15 15 15 15 14 13 13 13 13 12 12 12

ECMWFNIL_925_temp_093.txt.gz
Temp
16 17 17 17 17 16 17 17 17 17 17 17 17 17 17 17 17 17 17 17 17 17 17 17 17 17 17 17 17 17 17 17 17 18 17 17 17 17 17 17 17 17
16 16 16 17 17 17 16 17 17 17 17 18 17 17 17 17 17 17 17 17 17 17 17 17 17 17 17 17 17 17 17 17 17 17 17 17 17 17 17 17 17 17
16 16 16 17 17 17 17 16 16 16 17 17 17 17 17 17 17 17 17 17 17 17 17 17 17 17 17 17 17 17 17 17 17 17 17 17 17 17 17 17 17 17
16 16 16 16 17 17 17 17 16 16 17 17 17 17 17 17 17 17 17 17 17 17 17 17 17 17 17 17 17 17 17 17 17 17 17 17 17 17 17 17 17 17
15 15 15 16 16 16 17 17 17 16 16 17 17 17 17 17 17 17 17 17 17 17 18 18 18 18 17 17 17 17 17 17 17 17 17 17 17 17 17 17 17 17
16 15 15 15 15 16 16 17 17 16 15 16 16 17 17 17 17 17 17 17 18 18 18 18 18 18 18 17 17 17 17 17 17 17 17 17 16 16 16 17 17 17
15 15 14 15 15 15 15 16 15 15 15 16 16 16 16 17 17 17 17 17 18 18 18 18 18 18 18 18 17 17 17 17 17 17 17 17 16 16 16 16 17 17
14 14 14 14 15 15 15 15 15 16 16 16 16 17 17 16 16 17 18 18 18 18 18 18 18 18 18 18 17 17 17 17 17 17 17 17 16 16 16 17 17 17
14 14 14 14 14 15 14 14 15 16 17 16 17 17 17 17 16 17 18 18 18 18 18 18 18 18 18 18 18 17 17 17 17 17 17 17 17 17 17 17 17 17
14 14 15 14 14 14 14 15 16 16 17 17 17 17 17 17 17 17 18 18 18 18 18 18 18 18 18 18 18 18 18 18 17 17 17 17 17 17 17 17 17 17
14 14 14 14 14 14 14 15 16 16 16 17 17 17 17 17 17 17 18 18 18 18 18 18 18 18 18 18 18 18 18 18 18 17 17 17 17 17 17 17 17 17
14 14 15 14 14 14 15 15 16 16 16 16 16 16 17 17 17 18 18 18 18 18 18 18 18 18 18 18 18 18 18 18 18 18 17 17 17 17 17 17 17 17
14 14 15 14 13 14 14 15 16 16 16 16 16 16 16 17 17 18 18 18 18 18 18 18 18 18 18 18 18 18 18 18 18 18 18 17 17 17 17 17 17 17
14 14 14 14 13 14 14 14 15 15 15 16 17 16 16 17 18 18 18 18 18 18 18 18 18 18 18 18 18 19 19 19 18 18 18 17 17 17 17 17 17 17
14 14 14 13 14 15 15 14 14 14 15 16 17 16 17 17 18 17 17 17 18 18 18 18 18 18 19 19 19 19 19 19 19 18 18 17 17 17 17 17 17 17
14 14 14 14 14 15 14 13 13 13 15 16 16 16 17 18 18 17 17 17 18 18 18 18 18 18 18 18 19 19 19 19 18 18 18 17 17 17 17 17 17 17
14 14 14 14 14 14 14 14 13 14 15 15 15 16 17 18 18 18 17 17 18 18 18 18 18 18 18 18 18 19 19 19 18 18 18 17 17 17 17 17 17 17
14 14 14 14 15 15 14 14 14 14 15 15 15 16 17 18 18 18 18 17 18 18 18 18 18 18 18 18 18 19 19 18 18 18 18 17 17 17 17 17 17 16
13 14 14 14 15 15 15 15 15 14 14 15 16 16 17 18 18 17 18 18 18 18 18 18 18 18 18 18 18 19 19 18 18 18 17 17 17 17 17 16 16 16
13 13 14 14 14 15 15 15 15 14 15 16 17 17 17 17 17 17 17 17 18 18 17 18 18 18 18 18 18 18 18 18 18 17 17 16 16 16 16 16 16 16
12 12 13 13 14 14 14 14 14 14 15 16 17 17 17 17 17 17 17 17 17 17 17 17 17 17 17 18 18 18 18 17 17 17 16 16 16 16 16 16 16 16
11 12 13 13 13 14 14 14 14 14 15 16 17 17 17 17 16 16 16 16 16 17 17 17 17 17 17 17 17 17 17 17 17 16 16 16 16 15 15 15 16 16
11 12 12 12 13 13 13 13 13 13 13 15 16 16 15 15 15 15 15 15 15 15 16 16 16 16 16 16 16 17 17 16 16 16 16 15 15 15 15 15 14 15
11 11 12 12 12 13 13 13 13 12 12 12 13 14 14 13 14 13 13 14 14 15 15 15 15 15 15 15 16 16 16 15 15 15 15 15 14 14 14 14 14 14
12 12 12 12 12 12 12 12 12 12 12 11 11 11 12 12 13 13 13 13 14 14 14 14 14 14 15 15 15 16 15 15 15 15 15 14 14 14 13 13 13 13
11 12 12 12 11 11 12 12 12 12 12 12 11 11 11 11 11 12 12 12 13 13 13 13 14 14 15 15 15 15 15 15 15 15 14 14 13 13 13 12 12 12

ECMWFNIL_925_temp_096.txt.gz
Temp
16 16 16 16 16 16 16 15 15 15 15 15 15 16 16 16 16 16 17 17 17 17 17 17 17 16 16 16 16 16 16 16 17 17 17 17 17 17 17 17 17 16
15 15 15 16 16 15 15 15 15 15 15 15 15 15 16 16 16 17 17 17 16 16 16 16 16 16 16 16 16 16 16 16 17 17 17 17 16 16 16 17 17 16
15 15 15 16 16 16 15 15 15 15 15 15 15 15 16 16 17 17 17 17 17 16 16 16 16 16 16 16 17 17 17 17 17 17 17 16 16 16 16 16 16 16
15 15 15 16 16 16 15 15 15 15 15 15 15 15 15 16 16 16 16 16 17 17 16 16 16 16 16 17 17 17 17 17 17 17 16 16 16 16 16 16 16 16
14 15 15 15 15 16 15 15 15 15 15 15 16 16 15 15 16 16 16 16 16 16 16 16 16 16 17 17 17 16 16 16 16 16 16 16 16 16 16 17 16 16
14 14 15 15 15 15 15 14 15 16 16 16 17 16 15 15 16 16 16 16 17 17 16 16 16 16 17 16 16 16 16 16 16 16 16 16 16 16 16 17 17 16
15 15 15 15 15 14 14 15 16 16 17 16 16 17 16 16 16 16 16 16 17 17 17 17 17 17 17 16 16 16 16 16 16 16 16 16 16 16 16 16 16 16
16 16 15 15 14 14 14 16 16 16 16 16 16 17 17 16 16 16 16 16 17 17 17 17 17 17 17 17 16 16 16 16 16 16 16 16 16 16 16 16 16 16
15 14 14 14 14 14 16 17 16 15 16 16 16 17 17 16 17 17 17 17 17 17 17 17 17 17 17 17 17 17 16 16 16 16 16 16 16 16 16 16 16 16
14 14 14 14 14 15 16 16 16 16 16 16 16 16 16 16 16 16 17 17 17 17 17 18 18 18 17 17 17 17 17 17 16 16 16 16 16 16 16 16 16 16
14 14 14 14 14 15 16 16 16 16 16 16 16 16 16 16 16 16 17 17 17 17 18 18 18 18 18 17 17 17 17 17 17 16 16 16 16 16 16 16 16 16
14 14 14 14 14 15 15 16 16 16 16 16 16 16 16 16 16 17 17 17 17 17 18 18 18 18 18 18 17 17 17 17 17 17 16 16 16 16 17 16 17 17
14 14 14 14 14 14 15 15 16 16 16 16 15 15 16 16 16 17 16 17 17 17 18 18 18 18 18 18 18 17 17 17 17 17 16 16 16 16 17 17 17 17
14 14 14 14 14 14 14 15 15 16 16 16 15 15 15 16 16 16 16 17 17 17 18 17 17 18 18 18 18 18 17 17 17 17 17 16 16 16 17 17 17 17
13 13 14 14 14 14 14 14 15 15 15 16 16 16 15 15 16 15 16 17 17 17 18 18 18 18 18 18 18 18 18 18 17 17 17 17 16 16 16 16 16 17
13 13 13 14 14 14 13 13 14 14 15 16 16 15 16 15 15 15 16 17 17 18 18 18 18 18 18 18 18 18 18 18 17 17 17 17 17 16 16 16 17 17
13 13 13 13 13 13 13 13 13 13 14 15 15 15 15 15 15 15 16 17 17 18 18 18 18 18 18 18 18 18 18 18 18 18 17 17 17 17 17 17 17 17
13 13 13 13 13 13 13 13 13 13 14 14 14 14 15 15 15 16 16 17 17 18 18 18 18 18 18 18 18 18 18 18 18 18 17 17 17 17 17 17 17 16
12 12 12 13 13 13 13 13 13 14 14 15 14 14 14 14 15 16 16 17 17 17 18 18 18 18 18 18 18 18 18 18 18 17 17 17 17 17 17 16 16 16
12 12 12 12 13 13 13 13 13 14 14 15 14 14 14 15 15 16 17 17 17 17 17 17 18 18 18 18 18 18 18 18 17 17 16 16 16 16 16 16 16 16
11 12 12 12 12 13 13 13 13 13 13 14 13 14 14 15 15 16 17 17 17 17 17 17 17 18 18 17 17 17 17 17 17 16 16 16 16 16 16 16 16 16
11 11 12 12 12 13 13 13 13 13 12 12 12 13 13 14 15 16 16 16 16 17 17 17 17 17 17 16 16 16 16 16 16 16 16 16 15 15 15 15 15 15
11 11 11 11 12 12 12 13 13 13 12 12 12 11 12 13 14 15 15 15 16 16 17 17 17 16 16 15 15 16 16 16 16 16 15 15 15 14 14 14 14 14
11 11 10 11 11 11 12 12 12 12 12 12 11 11 11 13 13 14 14 14 14 15 16 16 16 15 15 15 15 15 16 16 16 16 15 14 14 13 13 14 13 13
10 11 10 10 10 10 11 12 11 11 11 11 11 10 11 12 12 12 12 12 13 13 13 14 14 13 13 14 14 15 15 15 15 15 14 13 13 13 12 13 13 13
10 10 10 10 10 9 10 10 11 11 11 11 11 10 10 11 11 11 11 11 11 12 12 12 12 12 12 13 13 14 14 14 14 14 13 13 12 12 12 11 12 12

ECMWFNIL_925_temp_099.txt.gz
Temp
15 15 15 15 15 16 16 16 15 15 16 15 15 15 15 15 15 15 15 16 16 16 16 16 16 16 16 16 16 16 16 16 16 16 15 16 16 16 15 16 16 16
15 15 15 15 15 15 15 15 15 15 16 15 15 15 15 15 15 16 16 16 16 16 16 16 16 16 16 16 16 16 16 16 16 16 16 16 16 16 15 15 16 16
15 15 14 14 15 15 15 15 15 15 16 15 15 15 15 15 16 16 16 16 16 16 16 16 16 16 16 16 16 16 16 16 15 15 16 16 15 15 16 16 16 16
15 15 14 14 15 15 15 14 15 16 16 15 15 15 15 16 16 16 16 16 16 15 15 16 16 16 15 15 16 16 16 16 15 15 15 15 15 15 16 16 16 16
15 15 15 15 15 15 15 15 15 17 16 15 15 15 15 15 16 16 16 16 15 15 15 15 15 16 16 16 16 15 16 15 15 15 15 15 16 16 15 16 16 16
15 15 15 15 14 15 16 16 15 16 16 15 16 15 15 15 16 16 16 15 15 15 15 15 15 16 16 16 16 15 15 15 15 15 15 16 16 16 16 16 16 16
14 15 15 14 14 16 17 16 15 15 16 16 16 15 15 15 16 16 16 15 15 15 15 15 15 15 16 16 16 15 15 15 15 16 16 16 16 16 16 16 15 15
14 14 14 14 15 16 16 16 15 15 15 15 15 15 15 16 16 16 16 16 16 16 16 15 15 15 16 16 16 15 15 15 15 16 16 16 16 16 16 16 15 15
14 14 14 14 14 15 15 15 15 15 15 15 15 15 15 15 16 16 16 16 16 16 16 15 15 15 15 16 16 15 15 15 16 16 16 16 16 16 16 16 16 15
14 14 14 14 14 15 15 15 14 14 14 15 15 15 15 15 16 16 17 16 16 16 16 15 15 15 15 16 16 16 16 16 16 16 16 16 16 16 16 16 16 16
14 14 14 14 14 14 14 14 14 14 14 14 14 15 15 15 15 16 16 16 16 16 16 16 16 16 16 17 17 17 16 16 16 16 16 16 16 16 16 16 16 16
14 14 14 14 14 14 14 14 14 14 14 14 14 14 15 15 15 15 16 16 16 16 16 17 17 17 17 17 17 17 17 16 16 16 16 16 16 16 16 16 16 16
13 13 14 14 14 14 14 14 14 14 14 14 14 14 14 15 15 15 15 15 16 16 17 17 17 18 17 17 17 17 17 16 16 16 16 16 16 16 16 16 16 16
13 13 13 14 14 14 14 14 14 14 14 14 14 14 14 15 15 15 15 14 15 15 16 16 17 18 17 17 17 17 17 17 16 16 16 16 16 16 16 16 16 16
13 13 13 13 14 14 14 14 14 14 14 14 14 14 14 15 15 16 16 15 15 15 15 16 17 18 18 18 17 17 17 17 17 17 16 16 16 16 16 16 16 16
12 13 13 13 13 14 14 13 13 13 13 14 14 14 14 15 15 16 16 16 16 16 15 16 17 17 18 18 17 17 17 17 17 17 16 16 16 16 16 16 16 16
12 12 13 13 13 13 13 13 13 13 13 13 13 13 14 15 15 15 16 16 16 16 17 17 17 17 17 18 18 18 18 17 17 17 17 16 16 16 16 16 16 16
11 12 12 12 13 13 13 13 13 13 13 13 13 13 13 15 15 15 16 16 16 17 17 17 17 17 18 18 18 18 18 18 17 17 17 16 16 16 16 16 15 15
11 11 12 12 12 13 13 13 13 13 12 13 13 13 13 14 15 15 15 16 16 17 17 17 17 18 18 18 18 18 18 17 17 17 17 16 16 16 16 16 16 16
11 11 11 12 12 12 12 13 12 12 12 12 12 13 13 14 14 15 15 15 16 16 17 17 17 18 18 18 18 18 17 17 17 17 17 16 16 16 16 16 16 16
10 11 11 12 12 12 12 12 12 12 12 12 12 13 13 13 14 14 14 15 15 16 17 17 17 18 18 18 18 17 17 16 16 17 16 16 16 16 16 16 16 16
10 10 11 11 11 11 12 12 12 12 12 12 12 13 13 13 13 13 14 14 15 16 17 17 17 17 17 18 17 17 16 16 16 16 16 16 16 16 16 15 15 16
9 10 10 10 11 11 11 11 11 11 11 12 12 12 12 12 13 13 13 14 14 15 16 17 17 16 16 17 16 16 16 16 16 16 15 15 15 14 15 15 15 15
9 9 9 9 10 10 10 10 11 11 11 12 12 11 11 11 12 13 13 13 13 14 15 15 15 15 14 15 15 15 16 16 15 15 14 14 14 14 14 14 14 14
9 9 9 9 9 9 9 9 9 10 11 12 12 11 10 10 11 11 12 12 12 13 13 13 13 12 12 13 14 15 15 15 15 14 13 12 12 13 13 13 13 13
9 9 9 9 9 9 9 9 9 9 10 11 12 11 11 10 10 11 11 11 11 11 11 11 11 11 11 12 12 13 14 15 14 13 12 11 11 12 12 12 12 12

ECMWFNIL_925_temp_102.txt.gz
Temp
17 17 17 17 17 17 16 17 17 17 17 17 16 16 16 16 16 16 16 16 16 16 16 16 16 16 16 16 16 16 16 16 16 16 16 16 16 17 17 18 17 17
16 16 16 16 16 16 16 17 16 16 17 17 16 16 16 16 16 16 16 16 16 16 16 16 16 16 16 16 16 17 16 16 17 16 16 16 16 17 17 17 17 17
16 16 15 16 16 16 16 16 16 16 16 17 16 16 16 16 16 16 16 16 16 16 16 16 16 16 16 16 16 17 16 16 16 16 16 16 17 17 17 17 17 17
16 16 16 16 16 16 16 16 16 15 16 17 17 16 16 16 16 16 16 16 16 16 16 16 16 16 17 17 17 17 16 15 15 16 16 16 17 17 17 17 17 16
16 16 16 16 16 16 16 16 16 16 16 16 16 16 16 15 15 16 16 16 16 16 16 16 16 16 16 17 17 17 16 16 15 16 17 16 16 17 17 17 17 16
16 16 16 16 16 16 16 16 16 16 16 16 16 16 16 16 15 16 17 16 16 16 16 16 16 16 16 16 16 16 17 17 17 17 17 17 16 17 17 17 17 17
16 16 15 15 16 16 16 16 16 16 16 16 16 15 16 16 16 16 16 17 16 16 16 16 16 16 16 16 16 16 16 17 17 18 18 17 17 17 18 18 18 18
16 15 15 15 16 15 15 15 15 16 16 16 16 16 16 16 16 16 16 16 16 16 16 16 16 16 16 15 15 16 16 16 17 18 18 18 18 18 18 19 18 19
15 15 15 15 15 15 15 15 15 15 16 15 16 16 16 16 16 16 16 16 16 16 16 16 16 16 15 16 16 16 16 16 17 17 18 17 18 19 19 19 18 19
14 14 15 15 15 15 15 15 15 15 16 16 16 16 16 16 16 16 16 16 16 16 16 16 16 16 15 16 16 16 16 17 17 17 17 17 17 18 19 19 18 18
14 14 14 15 15 15 15 15 15 15 16 16 16 16 16 16 16 16 16 16 16 16 16 16 16 16 15 15 16 16 16 16 17 17 16 17 17 18 19 19 18 18
14 14 14 14 15 15 15 15 15 15 15 16 16 16 16 16 16 16 16 16 16 17 16 16 16 16 16 16 15 15 16 16 17 17 16 17 18 19 19 19 18 18
13 14 14 14 14 15 15 15 15 15 15 15 15 15 15 15 16 16 16 16 16 16 16 16 16 16 16 16 16 16 16 16 17 17 17 18 19 19 19 18 18 18
13 13 13 14 14 14 15 15 15 15 15 15 15 15 15 15 15 16 16 16 16 16 16 16 16 16 16 16 16 16 16 16 17 18 18 18 18 18 18 18 18 18
13 13 14 14 14 14 14 14 14 15 15 15 15 15 15 15 15 16 16 15 16 16 16 16 16 16 16 16 16 16 16 17 18 18 18 18 18 18 18 18 18 18
13 14 14 14 14 14 14 14 14 14 14 14 15 15 14 15 15 15 15 15 15 15 15 16 16 16 16 16 16 16 17 17 18 18 18 18 17 18 17 18 18 17
13 14 14 14 14 14 14 13 14 14 14 14 14 14 14 14 14 14 14 14 14 15 14 15 16 16 17 17 17 17 17 18 18 17 17 17 17 17 17 17 16 16
13 13 13 14 14 14 14 13 13 13 13 14 14 13 13 13 13 13 13 14 15 15 15 15 16 17 17 17 17 17 17 17 18 18 17 17 17 17 17 17 16 16
13 13 13 13 14 13 13 13 13 13 13 13 13 13 13 13 13 13 13 14 14 14 14 15 16 16 17 17 17 17 17 18 18 18 18 17 17 17 17 17 16 16
12 13 13 13 12 12 12 12 12 12 12 12 12 12 12 13 13 13 13 13 13 13 13 14 16 16 17 17 17 17 17 18 18 18 18 17 17 17 17 17 16 16
12 12 13 12 12 11 11 11 11 11 11 12 12 12 12 12 12 12 12 13 13 13 13 14 16 17 17 17 17 17 17 17 17 17 17 17 17 16 16 16 16 16
11 12 12 12 12 11 10 10 10 10 11 11 12 11 11 11 11 11 12 12 12 13 13 14 15 16 17 17 17 17 17 17 17 17 16 16 16 16 16 16 16 16
10 11 11 12 11 11 10 10 10 10 10 10 11 11 11 11 11 11 11 11 12 12 13 14 14 14 16 16 16 15 16 17 17 17 16 15 15 15 15 15 15 16
9 10 10 11 10 10 10 9 9 9 9 9 11 11 11 10 10 11 11 11 11 11 12 13 13 13 14 15 14 14 16 16 16 16 15 15 14 14 14 14 14 15
9 9 9 10 10 10 10 9 9 9 9 9 10 11 11 11 10 11 11 11 10 10 10 11 11 11 12 13 14 14 15 16 16 15 14 14 14 13 13 13 14 14
8 8 9 9 9 9 9 9 9 9 9 9 9 9 10 11 11 10 10 9 9 10 10 10 10 11 11 12 13 14 14 14 15 14 13 13 14 13 12 12 13 13

ECMWFNIL_925_temp_105.txt.gz
Temp
19 19 19 19 18 17 17 17 17 18 18 18 19 19 19 19 18 18 17 17 17 17 17 17 17 17 17 16 17 16 16 17 16 16 16 16 16 16 17 17 17 17
18 18 18 18 18 18 17 17 17 17 17 18 18 19 19 19 18 18 17 17 17 17 17 17 17 17 17 17 17 16 16 17 16 16 16 16 16 16 16 17 17 17
18 18 18 18 18 18 17 17 17 17 17 17 17 17 18 18 18 18 17 17 17 17 17 17 17 16 16 17 17 16 16 16 16 16 16 16 16 16 16 17 16 17
18 18 18 18 18 18 17 17 17 17 17 17 17 17 17 17 17 17 17 17 17 17 17 17 17 17 16 16 17 17 16 16 16 16 16 16 16 16 17 17 16 17
18 18 18 18 18 18 17 17 16 16 16 16 16 17 17 17 17 17 17 17 17 17 16 17 17 17 16 16 17 17 16 16 16 16 16 16 16 16 17 16 15 16
18 18 18 18 18 17 16 16 16 16 16 16 16 16 17 17 17 17 17 17 17 16 16 17 16 16 16 17 17 17 17 16 16 16 16 16 16 16 17 16 15 16
17 18 18 18 17 17 16 16 16 16 16 15 15 16 17 17 17 17 17 17 18 17 16 17 16 16 16 17 17 17 17 17 16 16 16 16 16 16 16 16 15 16
17 17 17 17 17 16 16 16 16 16 15 15 15 16 16 17 17 17 17 17 17 17 16 16 17 16 16 17 18 17 16 16 16 16 16 16 16 16 16 16 15 16
16 16 16 16 16 16 16 16 16 16 16 15 16 16 16 17 17 17 17 17 17 17 17 17 17 16 16 17 17 17 16 17 16 16 16 16 16 16 16 16 16 17
16 16 16 16 16 15 16 16 15 16 16 15 15 15 16 16 17 17 17 17 16 17 17 17 17 16 16 17 17 17 17 16 16 16 16 16 16 16 16 17 17 17
15 15 16 16 16 15 15 16 15 15 16 15 15 15 16 16 16 16 17 16 16 16 16 17 17 16 16 16 16 16 16 16 16 16 16 16 16 16 16 17 17 17
15 15 15 15 15 15 15 15 15 15 16 15 15 16 16 16 15 16 16 16 16 16 15 16 16 16 16 16 16 16 16 16 17 16 16 16 17 17 17 17 17 17
14 15 15 15 15 15 15 15 15 15 15 15 15 15 15 15 15 15 16 16 16 15 15 16 16 16 17 17 17 17 16 16 16 16 16 17 17 17 18 17 17 17
14 15 15 15 15 15 15 15 15 15 15 15 15 15 15 15 16 16 16 16 15 15 15 16 16 16 17 16 17 17 17 17 16 16 17 17 17 18 18 17 16 16
14 15 15 15 15 15 15 15 15 15 15 15 15 15 15 15 15 15 15 15 15 15 15 16 16 16 16 16 16 16 16 17 17 16 17 17 17 17 17 16 16 16
14 15 15 15 15 15 15 15 15 15 15 15 15 15 15 15 14 15 15 15 15 15 15 16 17 16 15 16 16 16 16 17 17 17 17 17 17 17 16 15 16 17
14 15 15 15 15 15 15 15 15 14 14 15 15 14 15 15 14 14 15 15 15 15 15 16 16 16 16 16 16 16 17 17 17 17 17 16 16 15 15 15 16 17
14 15 15 14 14 15 14 14 14 14 13 14 14 14 14 15 14 14 14 14 14 15 15 15 16 16 16 16 16 16 17 17 17 17 17 16 15 14 16 16 16 17
14 14 14 14 14 14 14 13 13 13 12 12 13 13 13 14 14 14 14 14 14 14 14 14 15 16 16 16 16 16 17 17 17 17 16 16 15 16 17 17 16 17
13 14 14 14 13 13 13 13 12 12 11 11 12 12 12 12 13 13 13 13 13 13 13 14 14 15 16 16 16 16 16 17 17 17 16 16 17 17 18 17 16 17
12 13 13 13 13 13 12 12 12 11 11 11 11 11 11 11 11 12 12 12 12 12 13 13 14 14 15 16 16 16 17 17 17 17 17 17 17 17 17 16 16 16
12 12 12 13 12 12 12 12 11 11 11 10 10 10 10 11 11 11 11 11 11 12 12 12 12 13 14 15 15 15 16 17 17 17 17 17 17 16 15 15 16 16
11 11 11 12 12 12 11 11 11 11 10 10 10 10 10 10 10 10 10 10 10 11 12 12 12 12 13 14 14 15 16 17 16 16 17 17 16 15 14 15 16 16
11 11 11 11 11 11 11 11 10 10 10 10 10 9 9 9 9 9 9 10 10 10 11 11 12 12 12 13 14 15 16 16 15 15 15 16 15 14 14 14 15 15
10 10 10 10 10 10 10 10 10 9 10 10 9 9 9 8 8 9 9 9 10 10 11 12 12 12 12 13 13 14 15 15 14 14 15 15 15 14 13 13 14 14
10 10 9 10 9 9 9 9 9 9 9 9 9 9 8 8 8 8 8 8 9 10 11 12 12 13 13 13 13 14 15 14 13 13 13 14 14 13 12 11 12 12

ECMWFNIL_925_temp_108.txt.gz
Temp
19 18 18 18 18 18 18 18 18 18 17 17 17 17 17 16 16 16 15 16 17 17 17 17 16 16 16 16 16 16 16 16 16 16 17 17 17 17 17 17 17 17
18 18 18 18 18 18 19 18 18 18 17 17 17 17 17 16 17 16 15 15 16 17 17 16 16 16 16 16 16 16 16 16 16 16 17 17 17 17 17 17 17 17
18 18 18 18 18 18 19 19 18 18 17 17 17 17 17 17 17 16 16 15 16 16 16 16 16 16 16 16 16 16 16 16 16 16 17 17 17 17 17 17 17 17
18 18 18 18 19 19 19 18 18 18 17 17 17 17 17 17 17 16 15 15 15 16 16 16 16 16 16 16 16 16 16 17 17 16 16 17 17 17 17 17 17 17
17 18 18 18 18 18 18 18 18 17 17 16 16 16 16 16 16 15 15 14 15 15 15 16 16 16 16 16 16 16 16 16 17 17 16 17 17 17 17 16 17 17
17 17 17 17 18 18 17 17 17 16 16 16 16 16 16 16 15 15 15 15 15 15 15 15 16 16 16 16 16 16 16 16 16 16 16 17 17 16 16 16 16 17
17 17 17 17 17 17 17 17 16 16 16 16 16 16 16 15 15 15 15 15 15 15 15 15 15 16 16 16 16 16 16 16 15 16 16 16 16 16 16 16 16 17
16 17 16 16 16 16 16 16 16 16 16 16 16 16 16 15 15 15 15 15 15 15 15 15 15 15 15 15 15 16 16 15 15 15 16 16 16 16 16 16 16 17
16 16 16 16 16 16 16 16 16 16 16 15 16 15 15 15 15 16 16 16 16 16 16 15 15 16 16 15 16 16 15 15 15 15 15 16 16 16 16 16 16 17
15 15 15 15 15 16 16 15 15 16 15 15 15 15 15 15 15 16 16 16 16 17 16 16 16 16 15 15 16 16 15 14 15 16 16 16 16 16 16 16 16 17
15 15 15 15 15 15 15 15 15 15 15 15 15 15 16 16 15 15 16 16 16 16 16 16 16 16 15 15 15 16 16 15 15 16 16 16 16 16 16 16 16 17
15 15 15 15 15 15 15 15 15 15 15 15 15 15 15 16 15 15 15 15 16 16 16 16 16 16 16 15 15 15 16 16 16 16 16 16 16 16 16 16 16 16
15 15 15 15 15 15 15 15 15 15 15 15 15 15 15 15 15 15 15 15 16 17 16 16 16 16 16 16 16 15 16 17 17 16 16 16 16 16 16 16 16 15
15 15 15 15 15 15 15 15 15 15 15 15 15 15 15 15 15 15 15 15 16 16 16 15 16 16 16 16 16 15 16 17 16 16 16 16 16 16 16 16 16 16
15 15 15 15 15 15 15 15 15 14 14 14 14 14 15 15 15 15 15 15 15 15 15 15 16 15 15 16 16 16 16 16 16 16 16 16 16 15 15 16 16 16
14 15 15 14 14 14 14 14 14 13 13 13 14 14 14 14 14 15 15 15 15 15 15 15 15 15 15 15 16 16 16 16 16 16 16 16 15 16 15 16 16 16
14 14 14 14 14 14 13 13 13 12 12 12 12 13 13 13 14 14 14 14 14 14 14 14 15 15 15 15 15 15 16 16 15 16 16 15 16 16 16 16 16 16
13 14 14 13 13 13 13 12 12 11 11 11 11 12 12 12 13 13 13 13 13 13 13 13 14 14 14 15 15 15 15 15 15 15 15 15 15 16 16 15 15 14
13 13 13 13 13 13 12 12 11 11 11 11 11 11 11 12 12 12 12 13 13 12 12 12 13 13 14 14 15 15 15 15 15 15 15 15 14 14 15 15 15 14
12 12 13 13 12 12 12 11 11 11 10 10 10 10 10 11 11 11 12 12 12 12 11 12 12 13 13 14 15 15 15 15 15 15 15 15 14 14 14 15 15 14
12 12 12 12 12 12 11 11 11 11 10 10 9 9 9 10 10 10 10 10 11 11 12 12 12 12 13 14 15 15 15 15 15 15 14 14 13 14 14 14 14 14
11 11 11 11 11 11 11 11 10 10 10 9 9 9 9 9 9 9 9 9 9 10 11 12 12 13 14 14 15 15 15 15 15 14 13 13 13 13 13 13 14 14
10 11 10 10 10 10 10 10 10 10 10 9 9 9 8 8 8 8 8 8 9 9 10 11 12 13 14 15 15 15 15 14 14 13 12 11 11 12 12 13 13 13
10 10 10 10 9 9 9 9 9 9 9 9 9 9 8 8 8 7 7 7 8 9 10 11 12 13 14 14 14 14 14 14 14 13 11 11 11 11 11 11 12 12
9 9 9 9 9 9 9 8 8 9 9 9 9 9 8 8 7 7 7 7 7 9 10 11 12 12 13 13 13 13 14 14 13 12 10 10 11 11 11 11 11 12
8 8 8 8 8 8 8 8 8 8 8 8 8 8 8 8 7 7 7 6 6 8 9 10 11 12 12 13 13 13 13 13 13 12 11 10 10 10 10 10 10 10

ECMWFNIL_925_temp_111.txt.gz
Temp
18 18 18 18 18 18 18 18 18 18 18 18 17 17 17 17 17 17 17 17 16 15 16 16 15 15 15 16 16 16 16 16 16 16 15 15 15 15 16 17 17 17
17 18 18 18 18 18 18 18 18 18 18 17 17 17 16 16 16 16 16 16 16 15 16 16 15 15 15 16 16 16 16 16 16 16 15 15 15 15 15 16 17 17
17 17 17 17 17 17 17 17 17 17 17 17 17 16 16 16 16 15 15 16 16 16 15 15 15 15 15 15 15 16 16 16 16 16 16 15 16 15 15 16 17 17
17 17 17 17 17 17 17 17 17 16 16 16 16 16 16 16 15 15 15 15 15 15 15 14 15 15 16 15 15 15 16 16 16 16 16 15 16 16 15 16 16 16
16 16 16 16 16 16 16 16 16 16 16 16 16 16 16 16 15 15 15 14 15 15 15 15 16 16 16 16 15 15 15 16 15 15 16 15 15 15 15 15 15 16
16 16 16 16 16 16 16 16 16 16 16 16 16 16 15 15 15 15 15 15 15 15 15 16 16 16 16 16 16 15 15 16 15 14 15 15 15 15 15 14 15 16
15 15 15 16 16 16 16 15 15 15 15 15 16 16 15 15 15 15 15 15 15 15 15 15 15 15 15 16 16 15 15 15 15 14 15 15 15 14 15 14 15 16
15 15 15 15 15 15 15 15 15 15 15 15 16 16 15 15 15 15 15 15 15 15 15 15 14 15 15 15 15 15 15 15 15 15 15 15 15 14 15 15 15 15
15 15 15 15 15 15 15 15 15 15 15 15 15 15 15 15 15 15 15 15 15 15 15 15 15 15 15 15 15 15 15 15 15 16 15 15 15 15 15 15 15 15
15 15 15 15 15 15 15 15 15 15 15 15 15 15 15 15 15 15 15 15 15 15 15 15 15 15 15 15 16 16 15 16 16 16 16 16 15 15 15 15 15 15
15 15 15 14 15 15 15 15 14 14 14 14 14 15 15 15 15 15 15 15 15 15 15 15 15 15 15 15 16 15 15 16 17 16 16 16 16 15 15 15 15 15
14 14 14 14 14 14 14 14 14 13 13 14 14 14 14 14 15 15 15 15 14 14 15 15 15 15 15 15 15 15 15 16 16 17 16 16 15 15 15 15 15 16
14 14 14 14 13 13 13 13 13 13 13 13 13 13 14 14 14 14 14 14 14 14 14 15 14 15 15 15 15 15 15 15 15 16 15 15 15 15 15 15 16 16
14 13 13 13 13 13 12 12 12 12 12 12 13 13 13 13 14 14 14 14 14 14 14 14 14 15 15 15 15 14 14 14 15 15 15 14 15 15 14 15 16 16
13 13 13 13 12 12 11 11 11 11 11 12 12 12 13 13 13 13 13 13 13 14 14 14 14 14 15 15 15 15 14 14 14 14 14 14 14 14 14 15 15 15
13 13 13 12 12 11 11 11 11 10 10 11 11 11 12 12 12 12 12 12 13 13 13 14 14 15 15 15 15 15 15 14 14 14 14 14 15 14 14 15 15 15
12 12 12 12 11 11 11 10 10 10 10 10 10 10 10 10 10 11 11 12 12 12 12 13 14 15 15 15 15 15 15 14 14 14 14 15 15 14 13 14 14 15
12 12 12 11 11 11 10 10 10 9 9 9 9 9 9 9 9 10 10 11 11 12 12 12 13 14 14 14 14 15 15 14 14 14 14 14 14 14 13 14 14 14
11 11 11 11 11 10 10 10 9 9 9 9 8 8 9 9 9 9 10 10 10 11 11 12 13 14 14 14 14 14 14 14 14 14 13 13 13 13 13 14 14 14
10 10 10 10 10 10 10 9 9 9 8 8 8 8 8 8 8 9 9 9 10 10 11 12 13 13 14 14 14 14 14 14 13 13 13 12 13 13 13 13 13 14
10 10 9 9 9 9 9 9 9 9 8 8 8 7 7 7 7 8 8 9 9 10 10 11 12 13 13 14 14 14 14 13 13 13 12 12 12 13 13 13 13 13
9 9 9 9 9 9 9 9 9 9 8 8 7 7 7 6 7 7 8 9 10 10 10 11 11 12 13 14 14 14 14 13 12 12 11 10 11 11 12 12 12 13
9 9 8 8 8 8 8 9 9 9 8 8 7 7 6 6 6 6 6 8 9 10 10 11 11 11 12 13 14 14 13 12 12 11 10 9 9 9 10 10 11 12
8 8 8 8 8 8 8 8 8 8 8 8 7 7 6 6 6 5 6 7 7 8 9 10 10 11 11 12 13 13 13 12 11 10 9 8 8 8 8 9 9 10
7 7 7 8 8 8 8 8 8 8 8 7 7 7 6 6 6 5 5 5 6 7 8 9 9 9 10 11 12 12 12 12 12 11 10 8 8 8 8 8 9 9
7 7 7 7 7 7 7 8 8 8 7 7 7 7 6 6 6 5 5 5 5 6 7 8 7 8 9 11 12 12 11 11 12 11 10 9 9 9 9 8 8 8

ECMWFNIL_925_temp_114.txt.gz
Temp
17 17 17 17 17 17 17 17 17 17 17 17 17 16 16 16 16 16 16 16 15 15 15 15 15 15 15 15 15 15 15 15 15 15 14 14 15 15 15 15 15 15
17 17 17 17 17 17 17 17 17 16 16 16 16 16 16 16 16 16 16 16 15 15 14 14 14 14 14 14 14 15 15 14 15 15 14 15 15 15 15 15 15 15
16 16 16 16 16 16 16 16 16 16 16 16 16 16 16 16 16 16 16 15 15 14 14 14 14 14 14 14 14 14 14 14 14 14 15 15 15 15 15 15 15 15
16 16 16 16 16 16 16 16 16 16 16 16 16 16 16 16 15 15 15 15 14 14 14 14 14 14 14 14 14 14 14 14 14 14 15 15 15 15 15 15 15 15
15 15 16 16 16 16 16 15 15 15 15 16 16 16 15 15 15 15 15 15 15 14 14 14 14 14 14 14 14 14 14 14 14 14 15 15 15 15 15 15 15 15
15 15 15 15 15 15 15 15 15 15 15 15 15 15 15 15 15 15 15 15 14 14 14 14 14 14 14 14 14 14 14 14 14 15 15 15 15 15 15 15 15 15
15 15 15 15 15 15 15 15 15 14 14 14 14 14 15 15 15 15 15 14 14 14 14 14 14 14 14 14 14 14 14 15 14 15 15 15 15 15 15 15 15 15
15 15 15 14 14 14 14 14 14 14 14 14 14 14 14 14 14 14 14 14 14 15 15 15 14 14 14 14 14 14 14 15 14 15 15 15 15 15 15 15 15 15
14 14 14 14 14 14 13 13 14 14 14 14 14 14 14 14 14 14 14 14 14 14 15 15 15 15 14 14 14 14 14 15 15 15 15 15 14 14 14 15 14 15
14 14 13 13 13 13 13 13 13 13 14 14 14 14 14 14 14 14 14 14 14 14 15 15 15 15 15 14 14 14 15 15 15 14 14 15 14 14 14 14 14 15
13 13 12 12 12 12 12 12 12 13 13 13 13 13 13 13 14 14 14 14 14 14 15 15 15 14 15 15 14 14 14 15 15 14 14 14 14 14 14 15 15 15
13 12 12 12 12 11 11 11 12 12 12 12 12 13 13 13 13 13 13 14 14 14 14 14 14 14 14 15 14 14 14 14 14 14 14 14 14 15 15 15 15 15
12 12 11 11 11 11 11 11 11 11 11 11 12 12 12 12 13 13 13 13 14 14 14 14 14 14 14 14 14 14 14 14 14 14 14 14 14 15 15 15 15 15
12 11 11 11 10 10 10 10 10 10 10 11 12 12 11 11 12 13 13 14 14 13 14 14 14 14 14 14 14 14 14 14 14 14 14 14 14 15 15 15 15 15
11 11 11 10 10 10 10 10 10 10 10 10 11 11 10 11 11 12 12 13 13 13 13 13 14 14 14 14 14 14 14 14 14 14 14 14 14 14 15 15 15 15
11 11 10 10 10 9 9 9 9 9 9 9 9 9 9 10 10 11 11 12 11 11 12 12 13 13 14 14 14 14 14 14 14 14 14 14 14 14 14 14 14 14
10 10 10 10 9 9 8 8 8 8 9 9 9 9 9 10 10 10 10 10 10 10 11 11 12 13 14 14 14 14 14 14 14 14 14 14 14 14 14 14 14 14
10 10 10 9 9 9 8 8 8 8 8 8 9 9 9 10 10 9 10 10 10 10 10 11 12 13 13 14 14 14 14 14 13 13 13 13 13 14 13 14 14 14
10 9 9 9 9 8 8 8 8 8 8 8 8 8 9 9 9 9 9 10 10 10 10 11 12 13 13 14 14 14 14 14 13 13 13 13 13 13 13 13 13 13
9 9 9 9 9 8 8 8 7 7 7 7 7 8 8 8 8 8 9 9 9 9 10 10 10 11 12 13 13 13 13 13 12 12 12 12 12 12 12 12 12 12
9 9 9 9 8 8 8 7 7 7 6 6 6 7 7 7 7 8 8 8 8 9 9 9 9 10 11 12 12 12 12 12 12 11 11 11 11 11 11 12 12 12
8 8 8 8 8 8 8 7 7 6 6 6 6 6 6 6 7 7 7 7 8 9 9 8 8 9 10 11 12 12 12 12 11 11 10 10 10 9 10 10 11 11
8 8 8 8 8 8 7 7 7 7 6 6 6 6 6 5 6 6 6 7 8 8 8 7 7 8 9 11 11 12 12 12 11 11 10 9 9 8 8 9 10 11
8 8 8 8 7 7 7 7 7 6 6 6 6 6 5 5 5 6 6 6 7 7 7 7 7 7 8 9 10 11 11 11 10 11 10 9 9 8 8 8 9 10
7 7 7 7 7 7 7 7 6 6 6 6 6 5 5 5 5 5 5 5 6 6 7 7 7 7 7 7 8 9 9 8 8 9 8 7 8 8 8 8 8 8
7 7 7 7 7 7 7 6 6 6 5 5 5 5 5 5 5 5 5 5 5 6 6 6 7 7 7 8 8 8 7 7 7 6 5 5 6 7 7 7 7 8

ECMWFNIL_925_temp_120.txt.gz
Temp
17 17 16 16 16 16 16 16 16 16 15 15 15 15 15 15 15 15 15 15 15 15 15 15 15 14 14 14 14 14 14 14 14 14 14 14 14 14 14 14 14 14
16 16 16 16 16 16 16 16 15 15 15 15 15 15 15 15 15 14 14 14 14 14 14 14 14 14 14 14 14 14 14 14 14 14 14 14 14 14 14 14 14 14
16 16 16 16 16 16 15 15 15 14 14 14 14 14 14 14 14 14 14 14 13 13 13 13 13 13 14 14 14 14 14 14 14 14 14 14 14 14 14 14 14 14
15 15 15 15 15 15 15 14 14 14 13 14 14 14 13 13 13 13 13 13 13 13 13 13 13 13 13 14 14 14 14 14 14 14 14 14 14 14 14 14 14 14
15 15 15 14 14 14 14 14 13 13 13 13 13 13 13 13 13 13 13 13 13 13 13 13 13 13 13 14 14 14 14 14 14 14 14 14 14 14 14 14 14 14
14 14 14 14 14 14 14 13 13 13 13 13 13 13 13 12 12 12 12 13 13 13 13 13 13 13 14 14 14 14 14 14 14 14 14 14 14 14 14 14 14 14
14 14 13 13 13 13 13 13 13 13 12 12 12 12 12 12 12 12 12 12 12 13 13 13 13 14 14 14 14 14 14 15 14 14 14 14 14 14 14 14 14 14
13 13 13 13 13 13 13 13 12 12 11 11 12 12 12 12 12 12 12 12 12 13 13 13 13 14 14 14 14 14 14 14 14 14 14 14 14 14 14 14 14 14
13 12 13 13 13 12 12 11 11 11 11 11 11 11 12 12 11 12 11 11 11 12 12 13 13 13 13 14 14 13 14 14 14 14 14 14 14 14 14 14 14 14
12 12 12 12 11 11 10 10 10 10 11 11 11 11 11 11 11 11 11 10 11 12 12 12 13 13 13 14 13 13 13 14 14 14 14 14 14 14 14 14 14 14
12 11 11 11 10 9 9 9 10 10 10 10 10 11 11 10 10 10 10 10 11 11 12 13 13 13 13 13 14 14 13 13 14 14 14 14 14 14 14 14 14 14
11 11 10 9 9 9 9 9 9 9 9 9 9 9 9 9 10 10 10 10 11 11 12 12 13 13 13 13 14 14 14 13 13 14 14 14 14 14 14 14 14 14
10 9 9 8 8 8 9 9 9 9 9 9 8 8 9 9 9 10 10 10 10 11 11 12 12 13 13 13 13 13 14 13 13 13 14 14 14 13 14 14 14 14
9 8 8 8 8 8 8 9 9 9 9 9 8 8 8 8 9 9 9 9 10 10 10 11 12 12 12 13 13 13 13 13 13 13 13 13 13 13 13 13 13 13
9 8 8 8 8 8 8 9 9 9 9 8 8 8 8 8 8 8 8 9 9 10 10 11 11 11 11 12 12 12 12 12 12 13 13 13 13 13 13 13 13 13
9 8 8 8 8 8 8 8 8 8 8 8 8 7 7 7 8 8 8 8 9 9 10 10 10 10 11 11 12 12 12 12 12 12 12 12 12 12 13 13 13 13
8 8 8 8 8 8 8 8 8 8 8 7 7 7 7 8 7 7 7 7 8 8 9 9 9 9 10 11 11 11 11 11 11 11 11 11 11 12 12 12 12 12
8 8 8 7 7 7 7 7 8 7 7 7 7 7 7 7 7 6 6 7 8 8 8 8 8 8 9 10 10 10 10 10 10 10 10 10 10 11 11 11 12 12
8 8 7 7 7 7 7 7 7 7 7 7 7 7 7 7 7 7 6 7 8 8 8 7 7 8 9 10 10 10 9 9 9 9 9 9 9 9 9 10 10 11
8 8 7 7 7 7 7 7 6 6 6 6 7 7 8 7 7 7 7 7 8 7 7 7 7 7 8 9 9 9 9 9 8 8 7 7 7 8 8 8 9 9
8 7 7 7 6 6 6 6 6 6 6 6 6 6 7 7 7 7 7 7 7 7 7 7 6 7 8 8 8 8 8 8 8 7 7 7 7 7 7 7 8 8
8 7 6 6 6 6 6 6 6 6 6 5 5 5 6 6 6 6 7 7 7 8 8 7 6 7 7 8 8 8 7 7 6 6 6 6 6 7 7 7 8 8
7 7 6 6 6 5 5 5 5 5 5 5 5 5 5 6 6 6 6 7 7 7 7 6 6 7 7 8 8 8 7 6 6 6 6 6 6 6 6 6 7 7
7 6 6 5 5 5 5 5 5 5 5 5 5 5 5 5 5 5 6 6 6 6 6 6 6 7 8 8 8 9 8 6 6 6 5 5 5 5 5 6 6 6
6 6 5 5 5 5 5 5 5 5 5 5 5 5 4 4 5 5 5 5 6 6 6 7 6 7 8 8 9 9 9 8 7 7 5 4 5 5 5 5 6 6
6 5 5 5 5 4 5 5 5 5 5 5 4 4 5 5 5 5 4 4 5 5 5 6 6 6 7 8 9 9 9 9 8 7 4 4 5 5 5 5 5 6

ECMWFNIL_925_temp_123.txt.gz
Temp
16 16 16 16 16 15 15 15 15 15 14 14 14 14 14 14 13 13 13 13 14 14 14 14 14 14 14 14 14 14 14 14 14 14 15 14 14 14 14 14 15 15
16 16 15 15 15 14 14 14 14 14 14 13 13 13 13 13 13 13 13 13 13 13 13 13 13 13 14 14 14 14 14 14 14 14 14 14 14 14 14 14 15 14
15 15 14 14 14 14 14 14 13 13 13 13 13 13 13 13 13 13 13 13 13 13 14 13 13 13 14 14 14 14 14 14 14 14 14 14 14 14 14 14 14 14
14 14 14 13 13 13 13 13 13 13 13 13 13 13 13 13 13 12 12 12 13 13 13 13 13 13 14 14 14 14 14 14 14 15 14 14 14 14 14 14 14 15
14 13 13 13 13 13 13 13 13 13 12 12 12 12 12 12 12 12 12 12 12 12 13 13 13 13 14 14 14 14 14 14 14 14 14 14 15 15 15 14 14 15
13 13 13 13 13 13 13 13 12 12 12 12 12 12 12 11 11 11 12 12 12 12 12 12 13 13 13 13 14 14 14 14 15 15 14 14 15 15 15 14 14 15
13 13 12 12 12 12 12 12 11 11 11 11 11 11 11 11 11 11 11 11 11 11 12 12 12 13 13 13 13 14 14 14 15 14 15 15 15 15 15 15 15 15
13 12 12 12 12 11 11 11 11 10 10 10 10 10 10 11 11 11 10 10 10 11 12 12 12 13 13 13 13 13 14 14 14 14 15 14 14 15 15 15 15 15
12 12 11 11 11 10 10 10 10 10 10 10 10 10 10 10 10 10 10 10 10 11 12 13 13 13 13 13 13 13 13 14 14 14 14 14 14 14 14 15 15 15
11 11 10 10 10 10 9 9 9 9 9 9 9 9 9 10 10 10 10 10 10 11 12 12 13 13 13 13 13 13 13 13 13 14 14 14 14 14 14 14 14 15
11 10 10 9 9 9 9 9 9 9 9 9 9 9 9 9 9 9 9 9 10 11 11 12 12 13 13 13 13 13 13 13 13 13 14 14 14 14 14 14 14 14
10 9 9 9 8 9 9 9 8 8 8 8 8 8 8 8 8 8 9 9 10 10 11 12 12 12 13 13 13 13 13 13 13 13 13 13 13 13 13 13 14 14
9 9 8 8 8 8 8 8 8 8 8 8 8 8 8 8 8 8 9 9 9 10 11 11 11 12 12 12 12 12 12 12 13 13 13 13 12 13 13 12 13 13
8 8 8 8 8 8 8 8 8 7 7 7 7 7 7 7 8 8 9 9 9 10 10 10 11 11 11 11 11 11 12 12 12 12 12 12 12 12 12 12 12 12
8 8 8 8 8 8 8 8 7 7 7 7 7 7 7 7 7 8 8 8 8 9 9 10 9 9 10 11 11 11 11 11 11 11 11 12 11 11 11 10 11 11
8 8 8 8 8 7 7 7 7 7 7 7 7 7 7 7 7 8 8 7 8 8 8 8 8 8 9 10 10 10 10 10 10 10 10 10 10 10 10 10 10 10
8 8 7 7 7 7 7 7 7 7 8 8 8 7 8 8 7 7 7 7 7 6 6 6 7 8 9 9 10 10 10 10 9 9 9 8 8 8 9 9 9 9
8 8 7 7 7 7 7 7 7 8 8 9 8 8 8 8 7 7 7 6 6 6 5 6 6 7 8 9 10 10 10 9 8 8 8 7 7 7 8 8 8 9
8 7 7 7 7 7 7 7 8 8 8 9 8 7 7 6 6 6 6 5 5 5 5 6 6 7 8 8 9 9 8 8 7 7 7 7 7 7 7 7 7 8
7 7 7 6 6 7 7 7 7 7 8 9 8 6 6 6 6 6 5 5 5 5 5 6 6 7 7 8 8 8 8 7 7 7 6 6 6 6 6 7 7 7
7 7 6 6 6 7 6 6 6 7 8 8 7 5 5 6 5 5 5 5 5 5 5 6 6 7 7 7 7 7 7 7 7 6 6 6 6 6 6 6 6 6
7 6 6 6 6 6 6 6 6 6 7 7 6 5 6 5 4 5 5 5 5 5 5 5 6 7 7 8 8 8 8 7 6 6 6 6 6 6 6 6 6 6
7 6 6 6 6 6 6 6 6 6 6 7 7 6 6 5 5 5 6 6 6 6 5 5 5 6 7 8 9 9 9 8 7 6 6 6 6 5 5 6 7 7
6 6 5 5 5 5 5 5 6 6 6 7 7 6 6 5 5 5 5 5 6 6 5 5 5 6 8 9 9 9 8 8 7 7 6 6 6 6 5 6 7 8
6 5 5 5 5 5 5 6 6 6 6 8 8 7 6 5 5 5 5 5 5 6 6 5 5 6 8 9 9 9 8 7 7 7 6 6 6 6 5 5 6 7
5 5 5 5 5 5 6 6 6 6 7 8 7 6 6 5 5 5 5 5 5 5 6 5 5 5 7 8 9 9 8 7 6 6 6 6 5 5 5 5 5 6

ECMWFNIL_925_temp_126.txt.gz
Temp
18 18 18 17 17 17 17 17 17 17 16 16 16 16 16 15 15 15 15 15 15 15 15 15 15 15 15 15 15 16 16 16 16 17 16 16 17 17 16 16 16 16
17 17 17 17 17 16 16 16 16 16 16 16 15 15 15 15 15 15 15 15 15 15 15 15 15 15 15 15 15 16 16 16 16 16 16 16 17 17 17 16 16 16
17 17 16 17 16 16 16 16 16 15 15 15 15 15 15 15 15 15 14 14 15 14 14 14 14 15 15 15 15 16 16 16 16 16 16 16 16 17 17 17 16 16
17 16 16 16 16 16 15 15 15 15 15 15 14 14 14 14 14 14 14 14 14 14 14 14 13 14 14 14 15 15 15 16 16 16 16 17 16 16 17 17 16 16
16 16 16 16 15 15 15 15 14 14 14 14 14 13 13 13 13 13 13 13 13 13 14 13 13 13 13 14 14 15 15 16 16 16 16 17 17 16 17 17 16 16
16 15 15 15 15 14 14 14 14 14 13 13 13 13 13 13 13 12 12 13 13 13 13 13 12 13 13 13 14 14 15 15 16 16 16 17 17 17 17 16 16 17
15 15 14 14 14 13 14 13 13 13 13 13 13 13 12 12 12 12 12 12 12 12 12 12 12 12 12 13 13 13 14 14 15 15 16 16 17 17 17 17 16 17
14 14 14 13 13 13 13 12 12 12 12 12 12 12 11 11 11 11 11 11 11 11 11 11 11 12 12 12 12 13 13 14 14 15 15 16 16 17 17 17 16 16
13 13 13 13 13 12 11 11 11 11 11 11 11 11 11 11 10 10 10 11 11 11 10 10 11 11 12 12 12 12 13 14 14 15 15 15 15 16 16 16 16 16
13 12 12 12 12 11 10 10 10 10 10 10 10 10 10 10 10 10 10 10 10 10 10 10 10 11 11 11 12 12 13 13 14 14 14 14 14 14 14 14 15 15
12 12 11 11 11 10 10 10 10 10 10 10 10 10 9 9 9 9 9 9 9 10 10 10 10 10 11 11 11 12 12 12 12 13 13 13 13 13 13 13 13 13
12 11 10 10 10 10 10 9 9 10 9 9 9 9 9 9 9 9 9 9 9 9 10 10 10 10 11 11 11 11 11 11 11 12 12 12 12 12 12 12 12 12
11 10 10 10 9 9 9 9 9 9 9 9 9 9 8 8 8 8 9 9 9 9 9 9 9 10 11 11 10 10 11 11 11 11 11 11 11 11 11 11 11 11
10 10 9 9 9 9 9 9 9 9 9 8 8 8 8 8 8 9 9 9 9 8 8 8 8 9 10 11 10 10 10 10 10 10 11 11 11 11 11 10 11 10
10 9 9 9 9 9 9 9 9 9 8 8 8 8 8 8 8 9 9 9 8 8 8 8 7 7 9 10 10 9 10 10 10 10 10 10 10 10 10 10 10 10
9 9 10 9 9 9 10 10 9 9 8 8 8 8 8 8 9 9 9 8 8 8 7 7 7 7 8 9 9 9 10 10 10 9 9 9 9 9 10 9 9 9
10 10 9 9 9 10 10 9 9 9 8 8 8 8 9 9 9 8 8 8 7 7 7 7 7 8 8 8 8 9 9 10 9 9 9 9 9 9 9 10 10 10
10 9 9 9 9 10 9 9 9 9 9 9 9 10 10 10 9 8 8 7 7 7 7 7 7 7 8 8 8 8 9 10 10 9 9 9 9 9 9 10 10 10
9 10 9 9 9 9 9 9 9 10 10 10 10 10 10 10 9 8 7 7 7 7 7 7 7 7 7 7 8 8 9 10 10 10 9 9 9 9 9 10 10 10
9 9 9 9 9 9 8 9 10 11 11 11 11 10 10 10 9 8 8 7 7 7 7 7 7 7 7 8 9 9 9 10 11 10 9 9 9 9 9 10 10 10
9 9 9 9 9 9 9 9 10 11 11 11 11 11 10 10 9 9 8 8 8 8 8 7 7 7 7 8 9 10 10 11 11 10 9 9 8 8 8 8 9 9
9 10 9 9 9 9 9 9 10 11 11 11 11 11 10 10 9 9 9 9 9 8 8 7 8 8 8 8 9 10 11 11 11 10 10 9 9 8 7 8 8 8
9 9 9 9 9 9 9 8 9 10 10 11 11 11 10 10 9 9 9 8 8 8 8 7 7 8 8 9 9 10 11 11 11 10 10 9 9 8 8 8 8 8
9 9 9 9 9 9 8 8 8 9 9 10 10 10 10 9 9 9 8 8 7 7 7 6 7 8 8 9 9 10 10 11 11 10 10 9 9 9 8 7 8 8
9 10 10 9 9 8 8 8 8 8 9 9 10 10 9 9 9 9 8 8 7 6 6 6 6 8 8 9 9 9 10 11 11 10 10 10 9 9 8 7 7 7
8 9 9 9 8 8 8 8 8 8 9 9 10 10 9 9 9 8 8 8 7 6 6 6 6 7 8 9 9 9 9 10 10 10 10 10 9 9 8 8 7 6

ECMWFNIL_925_temp_132.txt.gz
Temp
20 20 18 17 18 20 19 19 19 18 18 18 18 18 17 17 17 16 16 16 16 16 16 16 16 16 16 16 16 16 16 16 17 17 17 17 17 17 17 17 17 17
20 19 18 18 18 19 18 18 18 18 17 17 17 17 17 16 16 16 16 16 16 15 16 16 15 15 15 15 15 15 16 16 16 17 17 17 17 17 17 17 16 16
19 19 18 18 18 18 17 17 17 17 17 17 16 16 16 16 16 16 16 15 15 15 15 15 15 15 15 15 15 15 15 15 16 16 16 16 16 16 16 16 16 16
18 18 18 18 18 17 17 17 17 17 16 16 16 16 16 16 16 16 15 15 15 15 15 15 14 14 14 14 14 14 15 15 15 15 16 16 16 16 16 16 16 16
18 18 18 17 17 17 17 17 17 16 16 16 15 15 15 15 15 15 15 15 15 15 14 14 14 14 14 13 14 14 14 14 15 15 16 16 16 15 15 15 15 15
17 17 17 17 17 16 16 16 16 16 16 15 15 15 15 15 15 15 14 14 14 14 14 14 14 14 13 13 13 14 14 14 14 15 15 15 15 15 14 14 14 14
17 17 17 16 16 16 16 15 15 15 15 15 14 14 14 14 14 13 13 13 13 14 14 14 14 14 13 13 13 13 14 14 14 14 14 14 14 14 13 13 13 12
16 16 16 16 15 15 15 15 14 15 15 14 14 13 13 13 13 13 13 13 14 14 14 13 13 13 13 13 13 13 13 13 13 13 13 13 13 13 12 12 12 11
16 16 15 15 15 14 14 14 13 14 14 14 13 12 12 12 13 13 13 13 14 13 13 13 12 12 12 12 12 13 13 13 13 13 13 12 12 12 11 11 11 10
15 15 14 14 14 13 13 13 13 13 13 13 13 12 12 12 12 13 13 13 13 12 12 11 11 11 11 12 12 12 12 12 12 12 12 12 12 11 11 10 10 9
15 14 14 13 13 13 13 12 12 13 13 13 12 12 12 12 12 12 12 12 12 11 11 10 10 10 11 11 12 12 12 12 12 12 11 11 11 11 10 10 9 9
14 13 13 13 13 12 13 12 12 12 12 12 12 12 13 12 12 12 12 11 11 10 10 9 10 10 11 11 11 12 12 11 11 11 11 11 11 11 10 10 9 9
13 13 13 13 13 13 13 13 12 12 12 12 12 13 13 13 12 11 11 10 10 9 9 9 10 11 11 11 11 11 11 11 11 11 12 12 11 11 11 10 10 10
13 12 12 13 13 13 12 12 12 12 12 12 12 13 13 13 12 11 10 10 9 9 9 9 10 10 11 11 12 11 11 11 11 12 12 12 12 12 11 10 10 10
12 12 12 13 13 12 12 12 12 12 12 12 13 13 12 12 12 11 11 10 9 9 9 10 10 10 11 11 12 12 12 11 11 12 12 12 12 12 12 11 10 10
12 12 13 13 12 12 12 12 12 12 13 13 13 12 12 12 12 11 10 10 9 9 9 10 10 11 11 11 12 12 12 12 12 12 12 12 12 12 12 11 10 10
13 13 13 13 12 12 12 12 12 13 13 13 12 12 12 12 12 11 10 10 9 9 9 10 10 11 11 12 12 12 12 12 12 11 11 11 11 12 11 11 11 10
13 13 13 13 12 12 12 13 13 13 13 12 12 12 12 12 12 11 11 10 10 9 10 10 11 11 12 12 12 12 12 11 11 11 10 10 10 10 10 11 11 11
13 14 13 13 13 13 13 13 13 13 13 12 12 12 12 12 12 12 11 10 10 9 10 10 11 11 12 12 12 12 12 11 11 10 9 9 9 9 9 10 10 10
13 13 13 13 13 13 13 13 13 13 12 12 12 12 12 12 12 12 12 11 10 10 10 10 10 11 12 12 12 12 12 12 11 10 9 9 9 9 9 9 9 9
13 13 13 13 13 13 13 13 13 13 13 13 13 12 12 12 12 12 12 11 10 10 10 10 10 11 11 12 12 12 12 12 11 11 10 9 9 9 8 8 8 8
13 13 13 13 13 13 14 13 13 13 13 13 13 12 12 11 11 11 11 11 10 10 10 10 10 11 12 12 12 13 12 12 11 11 10 9 9 8 8 8 8 8
13 13 14 14 13 13 13 13 13 13 13 13 12 12 11 11 10 10 10 9 9 9 9 10 10 11 11 12 13 13 13 12 12 11 10 9 9 8 8 7 7 8
13 13 13 13 13 13 13 13 13 13 13 13 12 12 11 11 10 10 9 9 8 8 9 9 10 10 11 12 12 13 13 12 12 11 10 10 9 8 8 7 8 8
13 13 13 13 13 13 13 13 13 13 13 13 13 12 12 11 10 10 9 8 8 8 9 9 9 10 11 11 12 12 12 12 11 11 10 10 9 9 8 8 8 8
13 13 13 13 13 13 13 13 13 13 13 13 13 12 12 11 10 9 9 8 8 9 9 9 9 9 10 11 11 12 12 11 11 11 10 10 9 9 8 8 8 8

ECMWFNIL_925_temp_135.txt.gz
Temp
19 20 20 19 19 19 18 18 18 19 18 18 17 17 17 17 17 16 16 16 16 16 15 15 15 15 15 15 15 15 15 15 15 16 16 16 15 15 16 15 15 15
19 19 19 19 18 18 18 18 18 18 18 17 17 17 16 16 16 16 16 15 15 15 15 15 15 15 15 14 14 15 15 15 15 15 15 15 15 15 15 15 15 15
18 19 18 18 18 18 18 18 18 17 17 17 17 16 16 16 16 16 15 15 15 15 14 14 14 14 14 14 14 14 14 15 15 15 15 15 14 14 14 14 14 15
18 18 17 17 18 18 18 18 17 17 16 16 16 16 16 15 15 15 15 15 15 14 14 14 14 13 13 14 14 14 14 14 14 14 14 14 14 14 14 14 14 14
17 17 17 18 18 18 17 17 17 16 16 16 15 15 15 15 15 15 15 14 14 14 14 14 13 13 13 13 14 14 14 14 14 14 14 13 13 13 13 13 13 13
17 17 17 17 17 17 17 16 16 16 16 15 15 15 15 15 15 14 14 14 14 13 13 13 13 13 13 13 13 13 13 13 13 13 13 13 13 13 13 13 12 12
17 17 17 17 17 17 16 16 16 15 15 15 15 15 14 14 14 13 13 13 13 13 13 13 13 13 13 13 13 13 13 13 13 13 13 12 12 12 12 12 11 11
17 17 16 16 16 16 16 16 15 15 15 15 14 14 14 13 13 13 13 13 13 13 13 13 12 12 12 12 12 12 12 12 12 13 12 12 12 11 11 11 10 10
16 16 16 16 15 15 15 15 15 14 14 14 13 13 13 12 12 13 13 13 13 12 12 12 12 12 12 12 12 12 12 12 12 12 12 11 11 11 10 10 10 9
16 15 15 15 15 14 15 15 14 14 13 13 12 12 12 12 12 13 12 12 12 11 11 11 11 11 12 12 11 11 12 12 12 12 11 11 11 10 10 10 9 9
15 15 15 14 14 14 14 14 13 13 13 12 12 12 12 12 12 12 12 11 10 10 10 10 10 11 12 11 11 11 12 12 12 11 11 11 11 10 10 10 9 9
14 14 14 14 13 13 13 13 13 12 12 12 12 12 12 12 12 11 10 10 9 10 10 10 11 11 11 11 11 11 12 12 12 11 11 11 11 10 10 10 9 9
14 14 14 13 13 13 12 12 12 12 12 12 12 12 12 11 11 10 9 9 9 10 10 11 11 11 11 11 11 11 12 12 12 12 11 11 11 11 10 10 10 9
13 13 13 13 13 12 12 12 12 12 12 12 12 12 12 11 10 9 8 9 9 10 10 11 11 11 11 11 11 11 12 12 12 12 11 11 11 10 10 10 10 9
13 13 13 12 12 12 12 12 12 12 12 12 12 12 11 10 9 9 9 9 10 10 11 11 11 11 11 11 11 11 11 12 12 11 11 11 11 11 11 10 10 10
13 13 12 12 12 12 12 12 12 12 12 12 12 11 11 10 9 9 9 9 10 10 11 11 11 11 11 11 11 11 11 11 11 11 11 11 10 10 10 10 10 9
13 12 12 12 12 12 12 12 12 12 12 12 12 11 11 10 9 9 9 10 10 11 11 11 11 11 11 11 11 11 11 11 11 11 11 10 10 10 10 10 9 9
12 12 12 12 12 12 12 12 12 12 12 12 11 11 11 10 10 9 10 10 10 11 11 11 11 11 11 11 11 11 11 11 10 10 10 10 10 10 9 9 9 10
12 12 12 12 12 12 12 12 12 12 12 12 12 11 11 10 10 10 10 10 11 11 11 11 11 11 11 11 11 10 10 10 10 10 9 9 9 9 9 9 9 10
12 12 12 12 12 12 12 12 12 12 12 12 12 11 11 11 10 10 10 10 10 11 11 11 11 11 11 11 11 10 10 10 9 9 9 8 8 8 8 9 9 9
13 12 12 12 12 12 12 12 12 12 12 12 12 11 11 10 10 10 10 10 10 11 11 11 11 11 11 11 11 10 10 9 9 8 8 8 8 8 8 8 9 9
13 13 13 13 13 13 13 12 12 12 12 11 11 11 10 10 10 9 9 9 10 10 11 11 11 12 12 11 11 10 10 9 9 8 8 8 8 8 8 9 9 9
13 13 13 13 13 13 12 12 12 12 11 11 11 11 10 10 9 9 9 9 10 10 11 11 11 12 12 11 11 10 10 9 9 8 8 8 8 8 9 9 9 9
13 13 13 13 13 13 13 12 12 12 11 11 11 10 10 9 9 9 9 9 10 10 10 11 11 12 12 11 11 10 10 9 9 8 8 8 8 9 9 9 9 9
13 13 13 13 13 13 13 12 12 12 11 11 10 9 9 9 9 9 9 10 10 10 10 11 11 11 12 11 11 10 10 9 9 8 8 8 8 9 9 9 9 9
13 13 13 13 13 13 13 13 12 12 11 10 10 9 9 9 9 9 9 9 9 10 10 10 10 11 11 11 11 10 10 9 9 8 8 8 8 9 9 9 9 9